﻿<?xml version="1.0" encoding="UTF-8" standalone="no"?>
<gpx xmlns="http://www.topografix.com/GPX/1/1" xmlns:gpxtpx="http://www.garmin.com/xmlschemas/TrackPointExtension/v1" xmlns:xsi="http://www.w3.org/2001/XMLSchema-instance" creator="Hribi.net" version="1.1" xsi:schemaLocation="http://www.topografix.com/GPX/1/1 http://www.topografix.com/GPX/1/1/gpx.xsd http://www.garmin.com/xmlschemas/TrackPointExtension/v1 http://www.garmin.com/xmlschemas/TrackPointExtensionv1.xsd">
  <metadata>
    <name>GPS sled</name>
    <desc>www.hribi.net</desc>
    <author>
      <name>hribi.net</name>
    </author>
    <link href="http://www.hribi.net">
      <text>Hribi.net</text>
    </link>
  </metadata>
  <trk>
    <trkseg>
      <trkpt lat="46.317890" lon="14.637847">
        <ele>1364.248224</ele>
        <time>2011-07-30T06:37:25Z</time>
      </trkpt>
      <trkpt lat="46.317899" lon="14.637845">
        <ele>1363.76664</ele>
        <time>2011-07-30T06:37:26Z</time>
      </trkpt>
      <trkpt lat="46.317906" lon="14.637838">
        <ele>1363.288104</ele>
        <time>2011-07-30T06:37:26Z</time>
      </trkpt>
      <trkpt lat="46.317980" lon="14.637759">
        <ele>1359.923112</ele>
        <time>2011-07-30T06:37:35Z</time>
      </trkpt>
      <trkpt lat="46.318035" lon="14.637709">
        <ele>1357.999824</ele>
        <time>2011-07-30T06:37:41Z</time>
      </trkpt>
      <trkpt lat="46.318110" lon="14.637661">
        <ele>1356.55812</ele>
        <time>2011-07-30T06:37:46Z</time>
      </trkpt>
      <trkpt lat="46.318182" lon="14.637624">
        <ele>1355.116416</ele>
        <time>2011-07-30T06:37:53Z</time>
      </trkpt>
      <trkpt lat="46.318230" lon="14.637597">
        <ele>1354.153248</ele>
        <time>2011-07-30T06:37:57Z</time>
      </trkpt>
      <trkpt lat="46.318307" lon="14.637567">
        <ele>1351.751424</ele>
        <time>2011-07-30T06:38:02Z</time>
      </trkpt>
      <trkpt lat="46.318403" lon="14.637558">
        <ele>1349.828136</ele>
        <time>2011-07-30T06:38:09Z</time>
      </trkpt>
      <trkpt lat="46.318485" lon="14.637584">
        <ele>1348.386432</ele>
        <time>2011-07-30T06:38:16Z</time>
      </trkpt>
      <trkpt lat="46.318520" lon="14.637589">
        <ele>1347.904848</ele>
        <time>2011-07-30T06:38:19Z</time>
      </trkpt>
      <trkpt lat="46.318576" lon="14.637569">
        <ele>1347.426312</ele>
        <time>2011-07-30T06:38:24Z</time>
      </trkpt>
      <trkpt lat="46.318627" lon="14.637522">
        <ele>1347.904848</ele>
        <time>2011-07-30T06:38:31Z</time>
      </trkpt>
      <trkpt lat="46.318600" lon="14.637565">
        <ele>1349.346552</ele>
        <time>2011-07-30T06:38:42Z</time>
      </trkpt>
      <trkpt lat="46.318578" lon="14.637581">
        <ele>1350.788256</ele>
        <time>2011-07-30T06:38:50Z</time>
      </trkpt>
      <trkpt lat="46.318578" lon="14.637600">
        <ele>1350.30972</ele>
        <time>2011-07-30T06:39:05Z</time>
      </trkpt>
      <trkpt lat="46.318620" lon="14.637584">
        <ele>1347.904848</ele>
        <time>2011-07-30T06:39:17Z</time>
      </trkpt>
      <trkpt lat="46.318653" lon="14.637536">
        <ele>1345.503024</ele>
        <time>2011-07-30T06:39:23Z</time>
      </trkpt>
      <trkpt lat="46.318661" lon="14.637536">
        <ele>1344.539856</ele>
        <time>2011-07-30T06:39:30Z</time>
      </trkpt>
      <trkpt lat="46.318669" lon="14.637542">
        <ele>1343.098152</ele>
        <time>2011-07-30T06:39:38Z</time>
      </trkpt>
      <trkpt lat="46.318679" lon="14.637508">
        <ele>1342.619616</ele>
        <time>2011-07-30T06:39:45Z</time>
      </trkpt>
      <trkpt lat="46.318701" lon="14.637432">
        <ele>1341.177912</ele>
        <time>2011-07-30T06:39:53Z</time>
      </trkpt>
      <trkpt lat="46.318697" lon="14.637349">
        <ele>1339.73316</ele>
        <time>2011-07-30T06:40:01Z</time>
      </trkpt>
      <trkpt lat="46.318678" lon="14.637268">
        <ele>1338.291456</ele>
        <time>2011-07-30T06:40:08Z</time>
      </trkpt>
      <trkpt lat="46.318672" lon="14.637176">
        <ele>1337.331336</ele>
        <time>2011-07-30T06:40:15Z</time>
      </trkpt>
      <trkpt lat="46.318662" lon="14.637094">
        <ele>1336.849752</ele>
        <time>2011-07-30T06:40:20Z</time>
      </trkpt>
      <trkpt lat="46.318656" lon="14.636991">
        <ele>1336.371216</ele>
        <time>2011-07-30T06:40:28Z</time>
      </trkpt>
      <trkpt lat="46.318647" lon="14.636873">
        <ele>1335.408048</ele>
        <time>2011-07-30T06:40:35Z</time>
      </trkpt>
      <trkpt lat="46.318642" lon="14.636756">
        <ele>1334.447928</ele>
        <time>2011-07-30T06:40:43Z</time>
      </trkpt>
      <trkpt lat="46.318640" lon="14.636672">
        <ele>1333.966344</ele>
        <time>2011-07-30T06:40:50Z</time>
      </trkpt>
      <trkpt lat="46.318633" lon="14.636570">
        <ele>1333.48476</ele>
        <time>2011-07-30T06:40:57Z</time>
      </trkpt>
      <trkpt lat="46.318629" lon="14.636512">
        <ele>1333.006224</ele>
        <time>2011-07-30T06:41:02Z</time>
      </trkpt>
      <trkpt lat="46.318627" lon="14.636497">
        <ele>1332.52464</ele>
        <time>2011-07-30T06:41:03Z</time>
      </trkpt>
      <trkpt lat="46.318611" lon="14.636428">
        <ele>1332.52464</ele>
        <time>2011-07-30T06:41:09Z</time>
      </trkpt>
      <trkpt lat="46.318596" lon="14.636349">
        <ele>1331.56452</ele>
        <time>2011-07-30T06:41:18Z</time>
      </trkpt>
      <trkpt lat="46.318596" lon="14.636316">
        <ele>1331.082936</ele>
        <time>2011-07-30T06:41:22Z</time>
      </trkpt>
      <trkpt lat="46.318578" lon="14.636270">
        <ele>1330.601352</ele>
        <time>2011-07-30T06:41:34Z</time>
      </trkpt>
      <trkpt lat="46.318567" lon="14.636199">
        <ele>1329.641232</ele>
        <time>2011-07-30T06:41:41Z</time>
      </trkpt>
      <trkpt lat="46.318555" lon="14.636129">
        <ele>1329.159648</ele>
        <time>2011-07-30T06:41:49Z</time>
      </trkpt>
      <trkpt lat="46.318545" lon="14.636090">
        <ele>1329.159648</ele>
        <time>2011-07-30T06:41:52Z</time>
      </trkpt>
      <trkpt lat="46.318519" lon="14.635940">
        <ele>1328.199528</ele>
        <time>2011-07-30T06:42:01Z</time>
      </trkpt>
      <trkpt lat="46.318497" lon="14.635808">
        <ele>1328.199528</ele>
        <time>2011-07-30T06:42:11Z</time>
      </trkpt>
      <trkpt lat="46.318490" lon="14.635722">
        <ele>1328.678064</ele>
        <time>2011-07-30T06:42:16Z</time>
      </trkpt>
      <trkpt lat="46.318488" lon="14.635708">
        <ele>1328.678064</ele>
        <time>2011-07-30T06:42:18Z</time>
      </trkpt>
      <trkpt lat="46.318492" lon="14.635679">
        <ele>1329.641232</ele>
        <time>2011-07-30T06:42:24Z</time>
      </trkpt>
      <trkpt lat="46.318483" lon="14.635613">
        <ele>1331.082936</ele>
        <time>2011-07-30T06:42:31Z</time>
      </trkpt>
      <trkpt lat="46.318484" lon="14.635598">
        <ele>1330.122816</ele>
        <time>2011-07-30T06:42:39Z</time>
      </trkpt>
      <trkpt lat="46.318476" lon="14.635514">
        <ele>1328.678064</ele>
        <time>2011-07-30T06:42:50Z</time>
      </trkpt>
      <trkpt lat="46.318467" lon="14.635351">
        <ele>1326.27624</ele>
        <time>2011-07-30T06:43:02Z</time>
      </trkpt>
      <trkpt lat="46.318463" lon="14.635291">
        <ele>1325.31612</ele>
        <time>2011-07-30T06:43:06Z</time>
      </trkpt>
      <trkpt lat="46.318444" lon="14.635153">
        <ele>1324.352952</ele>
        <time>2011-07-30T06:43:17Z</time>
      </trkpt>
      <trkpt lat="46.318428" lon="14.635042">
        <ele>1324.352952</ele>
        <time>2011-07-30T06:43:25Z</time>
      </trkpt>
      <trkpt lat="46.318414" lon="14.634935">
        <ele>1325.31612</ele>
        <time>2011-07-30T06:43:33Z</time>
      </trkpt>
      <trkpt lat="46.318398" lon="14.634797">
        <ele>1325.31612</ele>
        <time>2011-07-30T06:43:41Z</time>
      </trkpt>
      <trkpt lat="46.318390" lon="14.634747">
        <ele>1325.794656</ele>
        <time>2011-07-30T06:43:47Z</time>
      </trkpt>
      <trkpt lat="46.318388" lon="14.634723">
        <ele>1326.27624</ele>
        <time>2011-07-30T06:43:52Z</time>
      </trkpt>
      <trkpt lat="46.318383" lon="14.634688">
        <ele>1327.23636</ele>
        <time>2011-07-30T06:43:57Z</time>
      </trkpt>
      <trkpt lat="46.318389" lon="14.634678">
        <ele>1326.757824</ele>
        <time>2011-07-30T06:44:04Z</time>
      </trkpt>
      <trkpt lat="46.318389" lon="14.634594">
        <ele>1323.392832</ele>
        <time>2011-07-30T06:44:15Z</time>
      </trkpt>
      <trkpt lat="46.318382" lon="14.634484">
        <ele>1322.911248</ele>
        <time>2011-07-30T06:44:23Z</time>
      </trkpt>
      <trkpt lat="46.318372" lon="14.634350">
        <ele>1321.951128</ele>
        <time>2011-07-30T06:44:31Z</time>
      </trkpt>
      <trkpt lat="46.318368" lon="14.634250">
        <ele>1320.98796</ele>
        <time>2011-07-30T06:44:37Z</time>
      </trkpt>
      <trkpt lat="46.318356" lon="14.634132">
        <ele>1320.509424</ele>
        <time>2011-07-30T06:44:43Z</time>
      </trkpt>
      <trkpt lat="46.318340" lon="14.633991">
        <ele>1319.546256</ele>
        <time>2011-07-30T06:44:51Z</time>
      </trkpt>
      <trkpt lat="46.318322" lon="14.633887">
        <ele>1319.064672</ele>
        <time>2011-07-30T06:44:58Z</time>
      </trkpt>
      <trkpt lat="46.318306" lon="14.633799">
        <ele>1319.064672</ele>
        <time>2011-07-30T06:45:05Z</time>
      </trkpt>
      <trkpt lat="46.318295" lon="14.633684">
        <ele>1319.064672</ele>
        <time>2011-07-30T06:45:12Z</time>
      </trkpt>
      <trkpt lat="46.318292" lon="14.633563">
        <ele>1318.104552</ele>
        <time>2011-07-30T06:45:18Z</time>
      </trkpt>
      <trkpt lat="46.318306" lon="14.633441">
        <ele>1317.144432</ele>
        <time>2011-07-30T06:45:25Z</time>
      </trkpt>
      <trkpt lat="46.318329" lon="14.633326">
        <ele>1315.702728</ele>
        <time>2011-07-30T06:45:32Z</time>
      </trkpt>
      <trkpt lat="46.318369" lon="14.633210">
        <ele>1314.261024</ele>
        <time>2011-07-30T06:45:40Z</time>
      </trkpt>
      <trkpt lat="46.318408" lon="14.633105">
        <ele>1313.297856</ele>
        <time>2011-07-30T06:45:48Z</time>
      </trkpt>
      <trkpt lat="46.318415" lon="14.633090">
        <ele>1312.816272</ele>
        <time>2011-07-30T06:45:48Z</time>
      </trkpt>
      <trkpt lat="46.318448" lon="14.632951">
        <ele>1312.816272</ele>
        <time>2011-07-30T06:45:58Z</time>
      </trkpt>
      <trkpt lat="46.318472" lon="14.632807">
        <ele>1312.816272</ele>
        <time>2011-07-30T06:46:07Z</time>
      </trkpt>
      <trkpt lat="46.318491" lon="14.632699">
        <ele>1313.77944</ele>
        <time>2011-07-30T06:46:14Z</time>
      </trkpt>
      <trkpt lat="46.318510" lon="14.632609">
        <ele>1314.261024</ele>
        <time>2011-07-30T06:46:22Z</time>
      </trkpt>
      <trkpt lat="46.318528" lon="14.632627">
        <ele>1315.221144</ele>
        <time>2011-07-30T06:46:29Z</time>
      </trkpt>
      <trkpt lat="46.318552" lon="14.632656">
        <ele>1315.702728</ele>
        <time>2011-07-30T06:46:34Z</time>
      </trkpt>
      <trkpt lat="46.318578" lon="14.632666">
        <ele>1315.702728</ele>
        <time>2011-07-30T06:46:41Z</time>
      </trkpt>
      <trkpt lat="46.318610" lon="14.632687">
        <ele>1316.181264</ele>
        <time>2011-07-30T06:46:46Z</time>
      </trkpt>
      <trkpt lat="46.318640" lon="14.632705">
        <ele>1315.702728</ele>
        <time>2011-07-30T06:46:53Z</time>
      </trkpt>
      <trkpt lat="46.318687" lon="14.632704">
        <ele>1316.662848</ele>
        <time>2011-07-30T06:46:58Z</time>
      </trkpt>
      <trkpt lat="46.318725" lon="14.632700">
        <ele>1316.181264</ele>
        <time>2011-07-30T06:47:04Z</time>
      </trkpt>
      <trkpt lat="46.318749" lon="14.632705">
        <ele>1316.181264</ele>
        <time>2011-07-30T06:47:06Z</time>
      </trkpt>
      <trkpt lat="46.318797" lon="14.632710">
        <ele>1316.181264</ele>
        <time>2011-07-30T06:47:13Z</time>
      </trkpt>
      <trkpt lat="46.318835" lon="14.632704">
        <ele>1316.181264</ele>
        <time>2011-07-30T06:47:17Z</time>
      </trkpt>
      <trkpt lat="46.318855" lon="14.632700">
        <ele>1316.662848</ele>
        <time>2011-07-30T06:47:21Z</time>
      </trkpt>
      <trkpt lat="46.318878" lon="14.632695">
        <ele>1317.144432</ele>
        <time>2011-07-30T06:47:27Z</time>
      </trkpt>
      <trkpt lat="46.318906" lon="14.632692">
        <ele>1317.622968</ele>
        <time>2011-07-30T06:47:32Z</time>
      </trkpt>
      <trkpt lat="46.318930" lon="14.632687">
        <ele>1318.104552</ele>
        <time>2011-07-30T06:47:36Z</time>
      </trkpt>
      <trkpt lat="46.318953" lon="14.632682">
        <ele>1318.586136</ele>
        <time>2011-07-30T06:47:40Z</time>
      </trkpt>
      <trkpt lat="46.318977" lon="14.632675">
        <ele>1319.064672</ele>
        <time>2011-07-30T06:47:43Z</time>
      </trkpt>
      <trkpt lat="46.318998" lon="14.632668">
        <ele>1319.546256</ele>
        <time>2011-07-30T06:47:47Z</time>
      </trkpt>
      <trkpt lat="46.319013" lon="14.632660">
        <ele>1320.509424</ele>
        <time>2011-07-30T06:47:51Z</time>
      </trkpt>
      <trkpt lat="46.319032" lon="14.632650">
        <ele>1320.509424</ele>
        <time>2011-07-30T06:47:55Z</time>
      </trkpt>
      <trkpt lat="46.319052" lon="14.632642">
        <ele>1320.98796</ele>
        <time>2011-07-30T06:47:59Z</time>
      </trkpt>
      <trkpt lat="46.319072" lon="14.632637">
        <ele>1321.951128</ele>
        <time>2011-07-30T06:48:03Z</time>
      </trkpt>
      <trkpt lat="46.319090" lon="14.632637">
        <ele>1321.951128</ele>
        <time>2011-07-30T06:48:07Z</time>
      </trkpt>
      <trkpt lat="46.319111" lon="14.632636">
        <ele>1322.429664</ele>
        <time>2011-07-30T06:48:11Z</time>
      </trkpt>
      <trkpt lat="46.319132" lon="14.632625">
        <ele>1322.911248</ele>
        <time>2011-07-30T06:48:17Z</time>
      </trkpt>
      <trkpt lat="46.319156" lon="14.632612">
        <ele>1323.871368</ele>
        <time>2011-07-30T06:48:22Z</time>
      </trkpt>
      <trkpt lat="46.319175" lon="14.632598">
        <ele>1324.834536</ele>
        <time>2011-07-30T06:48:26Z</time>
      </trkpt>
      <trkpt lat="46.319191" lon="14.632577">
        <ele>1326.27624</ele>
        <time>2011-07-30T06:48:30Z</time>
      </trkpt>
      <trkpt lat="46.319209" lon="14.632555">
        <ele>1326.757824</ele>
        <time>2011-07-30T06:48:34Z</time>
      </trkpt>
      <trkpt lat="46.319224" lon="14.632542">
        <ele>1327.717944</ele>
        <time>2011-07-30T06:48:37Z</time>
      </trkpt>
      <trkpt lat="46.319245" lon="14.632522">
        <ele>1328.199528</ele>
        <time>2011-07-30T06:48:42Z</time>
      </trkpt>
      <trkpt lat="46.319265" lon="14.632504">
        <ele>1328.199528</ele>
        <time>2011-07-30T06:48:46Z</time>
      </trkpt>
      <trkpt lat="46.319288" lon="14.632490">
        <ele>1328.678064</ele>
        <time>2011-07-30T06:48:53Z</time>
      </trkpt>
      <trkpt lat="46.319311" lon="14.632466">
        <ele>1329.159648</ele>
        <time>2011-07-30T06:49:00Z</time>
      </trkpt>
      <trkpt lat="46.319334" lon="14.632446">
        <ele>1329.159648</ele>
        <time>2011-07-30T06:49:04Z</time>
      </trkpt>
      <trkpt lat="46.319353" lon="14.632438">
        <ele>1329.641232</ele>
        <time>2011-07-30T06:49:11Z</time>
      </trkpt>
      <trkpt lat="46.319372" lon="14.632435">
        <ele>1330.601352</ele>
        <time>2011-07-30T06:49:15Z</time>
      </trkpt>
      <trkpt lat="46.319397" lon="14.632432">
        <ele>1331.56452</ele>
        <time>2011-07-30T06:49:20Z</time>
      </trkpt>
      <trkpt lat="46.319421" lon="14.632436">
        <ele>1333.006224</ele>
        <time>2011-07-30T06:49:26Z</time>
      </trkpt>
      <trkpt lat="46.319445" lon="14.632410">
        <ele>1333.48476</ele>
        <time>2011-07-30T06:49:31Z</time>
      </trkpt>
      <trkpt lat="46.319457" lon="14.632389">
        <ele>1333.966344</ele>
        <time>2011-07-30T06:49:36Z</time>
      </trkpt>
      <trkpt lat="46.319505" lon="14.632382">
        <ele>1335.408048</ele>
        <time>2011-07-30T06:49:50Z</time>
      </trkpt>
      <trkpt lat="46.319526" lon="14.632386">
        <ele>1336.371216</ele>
        <time>2011-07-30T06:49:55Z</time>
      </trkpt>
      <trkpt lat="46.319548" lon="14.632390">
        <ele>1336.371216</ele>
        <time>2011-07-30T06:49:59Z</time>
      </trkpt>
      <trkpt lat="46.319578" lon="14.632385">
        <ele>1336.849752</ele>
        <time>2011-07-30T06:50:06Z</time>
      </trkpt>
      <trkpt lat="46.319614" lon="14.632386">
        <ele>1337.331336</ele>
        <time>2011-07-30T06:50:13Z</time>
      </trkpt>
      <trkpt lat="46.319636" lon="14.632410">
        <ele>1337.331336</ele>
        <time>2011-07-30T06:50:20Z</time>
      </trkpt>
      <trkpt lat="46.319659" lon="14.632436">
        <ele>1339.254624</ele>
        <time>2011-07-30T06:50:29Z</time>
      </trkpt>
      <trkpt lat="46.319668" lon="14.632440">
        <ele>1340.214744</ele>
        <time>2011-07-30T06:50:36Z</time>
      </trkpt>
      <trkpt lat="46.319696" lon="14.632481">
        <ele>1343.098152</ele>
        <time>2011-07-30T06:50:47Z</time>
      </trkpt>
      <trkpt lat="46.319718" lon="14.632499">
        <ele>1345.02144</ele>
        <time>2011-07-30T06:50:55Z</time>
      </trkpt>
      <trkpt lat="46.319729" lon="14.632509">
        <ele>1345.984608</ele>
        <time>2011-07-30T06:51:00Z</time>
      </trkpt>
      <trkpt lat="46.319750" lon="14.632528">
        <ele>1346.463144</ele>
        <time>2011-07-30T06:51:05Z</time>
      </trkpt>
      <trkpt lat="46.319753" lon="14.632527">
        <ele>1347.426312</ele>
        <time>2011-07-30T06:51:14Z</time>
      </trkpt>
      <trkpt lat="46.319720" lon="14.632490">
        <ele>1350.30972</ele>
        <time>2011-07-30T06:51:41Z</time>
      </trkpt>
      <trkpt lat="46.319728" lon="14.632481">
        <ele>1351.26984</ele>
        <time>2011-07-30T06:51:53Z</time>
      </trkpt>
      <trkpt lat="46.319740" lon="14.632485">
        <ele>1350.788256</ele>
        <time>2011-07-30T06:51:55Z</time>
      </trkpt>
      <trkpt lat="46.319765" lon="14.632499">
        <ele>1350.788256</ele>
        <time>2011-07-30T06:52:01Z</time>
      </trkpt>
      <trkpt lat="46.319783" lon="14.632516">
        <ele>1350.30972</ele>
        <time>2011-07-30T06:52:06Z</time>
      </trkpt>
      <trkpt lat="46.319813" lon="14.632534">
        <ele>1351.751424</ele>
        <time>2011-07-30T06:52:14Z</time>
      </trkpt>
      <trkpt lat="46.319828" lon="14.632565">
        <ele>1351.26984</ele>
        <time>2011-07-30T06:52:21Z</time>
      </trkpt>
      <trkpt lat="46.319851" lon="14.632586">
        <ele>1352.22996</ele>
        <time>2011-07-30T06:52:26Z</time>
      </trkpt>
      <trkpt lat="46.319866" lon="14.632620">
        <ele>1352.22996</ele>
        <time>2011-07-30T06:52:36Z</time>
      </trkpt>
      <trkpt lat="46.319881" lon="14.632640">
        <ele>1352.711544</ele>
        <time>2011-07-30T06:52:43Z</time>
      </trkpt>
      <trkpt lat="46.319890" lon="14.632668">
        <ele>1353.674712</ele>
        <time>2011-07-30T06:52:48Z</time>
      </trkpt>
      <trkpt lat="46.319910" lon="14.632689">
        <ele>1353.674712</ele>
        <time>2011-07-30T06:52:56Z</time>
      </trkpt>
      <trkpt lat="46.319927" lon="14.632708">
        <ele>1354.634832</ele>
        <time>2011-07-30T06:53:04Z</time>
      </trkpt>
      <trkpt lat="46.319955" lon="14.632735">
        <ele>1357.039704</ele>
        <time>2011-07-30T06:53:15Z</time>
      </trkpt>
      <trkpt lat="46.319978" lon="14.632732">
        <ele>1358.481408</ele>
        <time>2011-07-30T06:53:22Z</time>
      </trkpt>
      <trkpt lat="46.320013" lon="14.632750">
        <ele>1362.324936</ele>
        <time>2011-07-30T06:53:34Z</time>
      </trkpt>
      <trkpt lat="46.320032" lon="14.632780">
        <ele>1365.208344</ele>
        <time>2011-07-30T06:53:45Z</time>
      </trkpt>
      <trkpt lat="46.320035" lon="14.632801">
        <ele>1366.171512</ele>
        <time>2011-07-30T06:53:50Z</time>
      </trkpt>
      <trkpt lat="46.320039" lon="14.632821">
        <ele>1367.613216</ele>
        <time>2011-07-30T06:53:54Z</time>
      </trkpt>
      <trkpt lat="46.320053" lon="14.632841">
        <ele>1370.978208</ele>
        <time>2011-07-30T06:54:06Z</time>
      </trkpt>
      <trkpt lat="46.320066" lon="14.632866">
        <ele>1373.861616</ele>
        <time>2011-07-30T06:54:13Z</time>
      </trkpt>
      <trkpt lat="46.320075" lon="14.632884">
        <ele>1375.30332</ele>
        <time>2011-07-30T06:54:18Z</time>
      </trkpt>
      <trkpt lat="46.320093" lon="14.632913">
        <ele>1376.745024</ele>
        <time>2011-07-30T06:54:27Z</time>
      </trkpt>
      <trkpt lat="46.320117" lon="14.632954">
        <ele>1378.186728</ele>
        <time>2011-07-30T06:54:36Z</time>
      </trkpt>
      <trkpt lat="46.320132" lon="14.632990">
        <ele>1379.628432</ele>
        <time>2011-07-30T06:54:41Z</time>
      </trkpt>
      <trkpt lat="46.320144" lon="14.633028">
        <ele>1381.070136</ele>
        <time>2011-07-30T06:54:50Z</time>
      </trkpt>
      <trkpt lat="46.320156" lon="14.633056">
        <ele>1381.55172</ele>
        <time>2011-07-30T06:54:55Z</time>
      </trkpt>
      <trkpt lat="46.320169" lon="14.633071">
        <ele>1381.55172</ele>
        <time>2011-07-30T06:55:02Z</time>
      </trkpt>
      <trkpt lat="46.320198" lon="14.633087">
        <ele>1381.55172</ele>
        <time>2011-07-30T06:55:14Z</time>
      </trkpt>
      <trkpt lat="46.320227" lon="14.633121">
        <ele>1381.070136</ele>
        <time>2011-07-30T06:55:19Z</time>
      </trkpt>
      <trkpt lat="46.320237" lon="14.633159">
        <ele>1380.5916</ele>
        <time>2011-07-30T06:55:25Z</time>
      </trkpt>
      <trkpt lat="46.320247" lon="14.633209">
        <ele>1381.070136</ele>
        <time>2011-07-30T06:55:31Z</time>
      </trkpt>
      <trkpt lat="46.320262" lon="14.633236">
        <ele>1381.55172</ele>
        <time>2011-07-30T06:55:37Z</time>
      </trkpt>
      <trkpt lat="46.320276" lon="14.633286">
        <ele>1382.51184</ele>
        <time>2011-07-30T06:55:44Z</time>
      </trkpt>
      <trkpt lat="46.320291" lon="14.633335">
        <ele>1383.956592</ele>
        <time>2011-07-30T06:55:53Z</time>
      </trkpt>
      <trkpt lat="46.320310" lon="14.633361">
        <ele>1384.916712</ele>
        <time>2011-07-30T06:56:01Z</time>
      </trkpt>
      <trkpt lat="46.320319" lon="14.633375">
        <ele>1384.916712</ele>
        <time>2011-07-30T06:56:05Z</time>
      </trkpt>
      <trkpt lat="46.320337" lon="14.633413">
        <ele>1385.398296</ele>
        <time>2011-07-30T06:56:12Z</time>
      </trkpt>
      <trkpt lat="46.320376" lon="14.633466">
        <ele>1385.876832</ele>
        <time>2011-07-30T06:56:24Z</time>
      </trkpt>
      <trkpt lat="46.320391" lon="14.633490">
        <ele>1386.84</ele>
        <time>2011-07-30T06:56:31Z</time>
      </trkpt>
      <trkpt lat="46.320417" lon="14.633491">
        <ele>1386.84</ele>
        <time>2011-07-30T06:56:39Z</time>
      </trkpt>
      <trkpt lat="46.320425" lon="14.633501">
        <ele>1386.84</ele>
        <time>2011-07-30T06:56:44Z</time>
      </trkpt>
      <trkpt lat="46.320474" lon="14.633546">
        <ele>1390.204992</ele>
        <time>2011-07-30T06:57:10Z</time>
      </trkpt>
      <trkpt lat="46.320496" lon="14.633581">
        <ele>1390.683528</ele>
        <time>2011-07-30T06:57:19Z</time>
      </trkpt>
      <trkpt lat="46.320513" lon="14.633607">
        <ele>1393.0884</ele>
        <time>2011-07-30T06:57:27Z</time>
      </trkpt>
      <trkpt lat="46.320545" lon="14.633648">
        <ele>1397.895096</ele>
        <time>2011-07-30T06:57:37Z</time>
      </trkpt>
      <trkpt lat="46.320563" lon="14.633671">
        <ele>1399.818384</ele>
        <time>2011-07-30T06:57:45Z</time>
      </trkpt>
      <trkpt lat="46.320576" lon="14.633684">
        <ele>1401.738624</ele>
        <time>2011-07-30T06:57:53Z</time>
      </trkpt>
      <trkpt lat="46.320576" lon="14.633668">
        <ele>1401.260088</ele>
        <time>2011-07-30T06:58:08Z</time>
      </trkpt>
      <trkpt lat="46.320578" lon="14.633685">
        <ele>1399.3368</ele>
        <time>2011-07-30T06:58:17Z</time>
      </trkpt>
      <trkpt lat="46.320584" lon="14.633682">
        <ele>1398.373632</ele>
        <time>2011-07-30T06:58:24Z</time>
      </trkpt>
      <trkpt lat="46.320575" lon="14.633648">
        <ele>1395.971808</ele>
        <time>2011-07-30T06:58:35Z</time>
      </trkpt>
      <trkpt lat="46.320555" lon="14.633614">
        <ele>1392.606816</ele>
        <time>2011-07-30T06:58:47Z</time>
      </trkpt>
      <trkpt lat="46.320563" lon="14.633663">
        <ele>1392.125232</ele>
        <time>2011-07-30T06:58:54Z</time>
      </trkpt>
      <trkpt lat="46.320590" lon="14.633715">
        <ele>1392.606816</ele>
        <time>2011-07-30T06:59:02Z</time>
      </trkpt>
      <trkpt lat="46.320601" lon="14.633755">
        <ele>1392.606816</ele>
        <time>2011-07-30T06:59:07Z</time>
      </trkpt>
      <trkpt lat="46.320618" lon="14.633788">
        <ele>1393.0884</ele>
        <time>2011-07-30T06:59:15Z</time>
      </trkpt>
      <trkpt lat="46.320634" lon="14.633783">
        <ele>1394.04852</ele>
        <time>2011-07-30T06:59:24Z</time>
      </trkpt>
      <trkpt lat="46.320636" lon="14.633828">
        <ele>1394.530104</ele>
        <time>2011-07-30T06:59:30Z</time>
      </trkpt>
      <trkpt lat="46.320629" lon="14.633850">
        <ele>1395.971808</ele>
        <time>2011-07-30T06:59:40Z</time>
      </trkpt>
      <trkpt lat="46.320634" lon="14.633861">
        <ele>1395.971808</ele>
        <time>2011-07-30T06:59:48Z</time>
      </trkpt>
      <trkpt lat="46.320630" lon="14.633906">
        <ele>1401.738624</ele>
        <time>2011-07-30T07:00:14Z</time>
      </trkpt>
      <trkpt lat="46.320634" lon="14.633913">
        <ele>1402.220208</ele>
        <time>2011-07-30T07:00:16Z</time>
      </trkpt>
      <trkpt lat="46.320641" lon="14.633919">
        <ele>1402.220208</ele>
        <time>2011-07-30T07:00:18Z</time>
      </trkpt>
      <trkpt lat="46.320652" lon="14.633928">
        <ele>1403.180328</ele>
        <time>2011-07-30T07:00:23Z</time>
      </trkpt>
      <trkpt lat="46.320664" lon="14.633938">
        <ele>1403.661912</ele>
        <time>2011-07-30T07:00:27Z</time>
      </trkpt>
      <trkpt lat="46.320680" lon="14.633938">
        <ele>1403.661912</ele>
        <time>2011-07-30T07:00:31Z</time>
      </trkpt>
      <trkpt lat="46.320698" lon="14.633955">
        <ele>1402.701792</ele>
        <time>2011-07-30T07:00:38Z</time>
      </trkpt>
      <trkpt lat="46.320714" lon="14.633977">
        <ele>1402.701792</ele>
        <time>2011-07-30T07:00:43Z</time>
      </trkpt>
      <trkpt lat="46.320736" lon="14.633996">
        <ele>1403.180328</ele>
        <time>2011-07-30T07:00:54Z</time>
      </trkpt>
      <trkpt lat="46.320748" lon="14.633992">
        <ele>1402.701792</ele>
        <time>2011-07-30T07:00:58Z</time>
      </trkpt>
      <trkpt lat="46.320755" lon="14.633998">
        <ele>1402.701792</ele>
        <time>2011-07-30T07:01:02Z</time>
      </trkpt>
      <trkpt lat="46.320774" lon="14.633979">
        <ele>1401.738624</ele>
        <time>2011-07-30T07:01:14Z</time>
      </trkpt>
      <trkpt lat="46.320793" lon="14.633981">
        <ele>1401.738624</ele>
        <time>2011-07-30T07:01:21Z</time>
      </trkpt>
      <trkpt lat="46.320816" lon="14.634014">
        <ele>1399.818384</ele>
        <time>2011-07-30T07:01:30Z</time>
      </trkpt>
      <trkpt lat="46.320839" lon="14.634035">
        <ele>1398.855216</ele>
        <time>2011-07-30T07:01:40Z</time>
      </trkpt>
      <trkpt lat="46.320853" lon="14.634019">
        <ele>1398.855216</ele>
        <time>2011-07-30T07:01:47Z</time>
      </trkpt>
      <trkpt lat="46.320867" lon="14.634033">
        <ele>1398.855216</ele>
        <time>2011-07-30T07:01:52Z</time>
      </trkpt>
      <trkpt lat="46.320894" lon="14.634082">
        <ele>1397.895096</ele>
        <time>2011-07-30T07:02:07Z</time>
      </trkpt>
      <trkpt lat="46.320912" lon="14.634113">
        <ele>1397.895096</ele>
        <time>2011-07-30T07:02:15Z</time>
      </trkpt>
      <trkpt lat="46.320931" lon="14.634133">
        <ele>1398.855216</ele>
        <time>2011-07-30T07:02:22Z</time>
      </trkpt>
      <trkpt lat="46.320948" lon="14.634154">
        <ele>1399.3368</ele>
        <time>2011-07-30T07:02:29Z</time>
      </trkpt>
      <trkpt lat="46.320957" lon="14.634201">
        <ele>1402.220208</ele>
        <time>2011-07-30T07:02:41Z</time>
      </trkpt>
      <trkpt lat="46.320966" lon="14.634224">
        <ele>1402.701792</ele>
        <time>2011-07-30T07:02:46Z</time>
      </trkpt>
      <trkpt lat="46.320976" lon="14.634253">
        <ele>1403.180328</ele>
        <time>2011-07-30T07:02:54Z</time>
      </trkpt>
      <trkpt lat="46.320990" lon="14.634284">
        <ele>1403.180328</ele>
        <time>2011-07-30T07:02:58Z</time>
      </trkpt>
      <trkpt lat="46.321005" lon="14.634310">
        <ele>1403.180328</ele>
        <time>2011-07-30T07:03:02Z</time>
      </trkpt>
      <trkpt lat="46.321038" lon="14.634338">
        <ele>1402.220208</ele>
        <time>2011-07-30T07:03:10Z</time>
      </trkpt>
      <trkpt lat="46.321059" lon="14.634370">
        <ele>1401.260088</ele>
        <time>2011-07-30T07:03:16Z</time>
      </trkpt>
      <trkpt lat="46.321065" lon="14.634388">
        <ele>1400.778504</ele>
        <time>2011-07-30T07:03:21Z</time>
      </trkpt>
      <trkpt lat="46.321079" lon="14.634421">
        <ele>1399.818384</ele>
        <time>2011-07-30T07:03:27Z</time>
      </trkpt>
      <trkpt lat="46.321077" lon="14.634446">
        <ele>1400.29692</ele>
        <time>2011-07-30T07:03:32Z</time>
      </trkpt>
      <trkpt lat="46.321087" lon="14.634484">
        <ele>1400.29692</ele>
        <time>2011-07-30T07:03:37Z</time>
      </trkpt>
      <trkpt lat="46.321098" lon="14.634509">
        <ele>1400.778504</ele>
        <time>2011-07-30T07:03:44Z</time>
      </trkpt>
      <trkpt lat="46.321110" lon="14.634516">
        <ele>1401.260088</ele>
        <time>2011-07-30T07:03:50Z</time>
      </trkpt>
      <trkpt lat="46.321122" lon="14.634499">
        <ele>1403.661912</ele>
        <time>2011-07-30T07:03:59Z</time>
      </trkpt>
      <trkpt lat="46.321127" lon="14.634483">
        <ele>1404.143496</ele>
        <time>2011-07-30T07:04:08Z</time>
      </trkpt>
      <trkpt lat="46.321142" lon="14.634489">
        <ele>1406.066784</ele>
        <time>2011-07-30T07:04:18Z</time>
      </trkpt>
      <trkpt lat="46.321143" lon="14.634464">
        <ele>1407.026904</ele>
        <time>2011-07-30T07:04:25Z</time>
      </trkpt>
      <trkpt lat="46.321160" lon="14.634431">
        <ele>1408.468608</ele>
        <time>2011-07-30T07:04:34Z</time>
      </trkpt>
      <trkpt lat="46.321163" lon="14.634396">
        <ele>1408.950192</ele>
        <time>2011-07-30T07:04:39Z</time>
      </trkpt>
      <trkpt lat="46.321174" lon="14.634375">
        <ele>1409.428728</ele>
        <time>2011-07-30T07:04:45Z</time>
      </trkpt>
      <trkpt lat="46.321186" lon="14.634353">
        <ele>1410.391896</ele>
        <time>2011-07-30T07:04:52Z</time>
      </trkpt>
      <trkpt lat="46.321205" lon="14.634356">
        <ele>1411.352016</ele>
        <time>2011-07-30T07:04:58Z</time>
      </trkpt>
      <trkpt lat="46.321214" lon="14.634363">
        <ele>1411.8336</ele>
        <time>2011-07-30T07:05:05Z</time>
      </trkpt>
      <trkpt lat="46.321210" lon="14.634385">
        <ele>1412.79372</ele>
        <time>2011-07-30T07:05:12Z</time>
      </trkpt>
      <trkpt lat="46.321210" lon="14.634386">
        <ele>1413.275304</ele>
        <time>2011-07-30T07:05:20Z</time>
      </trkpt>
      <trkpt lat="46.321221" lon="14.634391">
        <ele>1412.79372</ele>
        <time>2011-07-30T07:05:33Z</time>
      </trkpt>
      <trkpt lat="46.321228" lon="14.634412">
        <ele>1410.87348</ele>
        <time>2011-07-30T07:05:39Z</time>
      </trkpt>
      <trkpt lat="46.321226" lon="14.634426">
        <ele>1410.87348</ele>
        <time>2011-07-30T07:05:44Z</time>
      </trkpt>
      <trkpt lat="46.321222" lon="14.634426">
        <ele>1411.352016</ele>
        <time>2011-07-30T07:05:48Z</time>
      </trkpt>
      <trkpt lat="46.321220" lon="14.634426">
        <ele>1411.8336</ele>
        <time>2011-07-30T07:05:55Z</time>
      </trkpt>
      <trkpt lat="46.321222" lon="14.634432">
        <ele>1411.352016</ele>
        <time>2011-07-30T07:06:00Z</time>
      </trkpt>
      <trkpt lat="46.321202" lon="14.634400">
        <ele>1414.235424</ele>
        <time>2011-07-30T07:06:18Z</time>
      </trkpt>
      <trkpt lat="46.321221" lon="14.634402">
        <ele>1416.640296</ele>
        <time>2011-07-30T07:06:37Z</time>
      </trkpt>
      <trkpt lat="46.321250" lon="14.634436">
        <ele>1415.680176</ele>
        <time>2011-07-30T07:06:42Z</time>
      </trkpt>
      <trkpt lat="46.321294" lon="14.634490">
        <ele>1415.198592</ele>
        <time>2011-07-30T07:06:57Z</time>
      </trkpt>
      <trkpt lat="46.321294" lon="14.634493">
        <ele>1416.640296</ele>
        <time>2011-07-30T07:07:04Z</time>
      </trkpt>
      <trkpt lat="46.321297" lon="14.634471">
        <ele>1419.523704</ele>
        <time>2011-07-30T07:07:15Z</time>
      </trkpt>
      <trkpt lat="46.321314" lon="14.634477">
        <ele>1420.005288</ele>
        <time>2011-07-30T07:07:28Z</time>
      </trkpt>
      <trkpt lat="46.321325" lon="14.634500">
        <ele>1420.486872</ele>
        <time>2011-07-30T07:07:32Z</time>
      </trkpt>
      <trkpt lat="46.321342" lon="14.634557">
        <ele>1421.928576</ele>
        <time>2011-07-30T07:07:47Z</time>
      </trkpt>
      <trkpt lat="46.321352" lon="14.634587">
        <ele>1422.888696</ele>
        <time>2011-07-30T07:07:55Z</time>
      </trkpt>
      <trkpt lat="46.321360" lon="14.634609">
        <ele>1423.848816</ele>
        <time>2011-07-30T07:07:59Z</time>
      </trkpt>
      <trkpt lat="46.321389" lon="14.634609">
        <ele>1425.772104</ele>
        <time>2011-07-30T07:08:20Z</time>
      </trkpt>
      <trkpt lat="46.321399" lon="14.634597">
        <ele>1427.695392</ele>
        <time>2011-07-30T07:08:25Z</time>
      </trkpt>
      <trkpt lat="46.321414" lon="14.634606">
        <ele>1428.655512</ele>
        <time>2011-07-30T07:08:32Z</time>
      </trkpt>
      <trkpt lat="46.321446" lon="14.634620">
        <ele>1428.176976</ele>
        <time>2011-07-30T07:08:44Z</time>
      </trkpt>
      <trkpt lat="46.321446" lon="14.634603">
        <ele>1429.137096</ele>
        <time>2011-07-30T07:08:52Z</time>
      </trkpt>
      <trkpt lat="46.321456" lon="14.634586">
        <ele>1429.61868</ele>
        <time>2011-07-30T07:08:56Z</time>
      </trkpt>
      <trkpt lat="46.321468" lon="14.634550">
        <ele>1431.53892</ele>
        <time>2011-07-30T07:09:08Z</time>
      </trkpt>
      <trkpt lat="46.321488" lon="14.634560">
        <ele>1431.060384</ele>
        <time>2011-07-30T07:09:14Z</time>
      </trkpt>
      <trkpt lat="46.321515" lon="14.634598">
        <ele>1430.097216</ele>
        <time>2011-07-30T07:09:20Z</time>
      </trkpt>
      <trkpt lat="46.321529" lon="14.634624">
        <ele>1430.097216</ele>
        <time>2011-07-30T07:09:27Z</time>
      </trkpt>
      <trkpt lat="46.321541" lon="14.634644">
        <ele>1430.5788</ele>
        <time>2011-07-30T07:09:31Z</time>
      </trkpt>
      <trkpt lat="46.321553" lon="14.634669">
        <ele>1431.060384</ele>
        <time>2011-07-30T07:09:39Z</time>
      </trkpt>
      <trkpt lat="46.321563" lon="14.634699">
        <ele>1432.983672</ele>
        <time>2011-07-30T07:09:47Z</time>
      </trkpt>
      <trkpt lat="46.321587" lon="14.634772">
        <ele>1431.53892</ele>
        <time>2011-07-30T07:10:06Z</time>
      </trkpt>
      <trkpt lat="46.321602" lon="14.634809">
        <ele>1432.020504</ele>
        <time>2011-07-30T07:10:17Z</time>
      </trkpt>
      <trkpt lat="46.321610" lon="14.634836">
        <ele>1431.53892</ele>
        <time>2011-07-30T07:10:24Z</time>
      </trkpt>
      <trkpt lat="46.321624" lon="14.634887">
        <ele>1430.5788</ele>
        <time>2011-07-30T07:10:33Z</time>
      </trkpt>
      <trkpt lat="46.321645" lon="14.634904">
        <ele>1431.060384</ele>
        <time>2011-07-30T07:10:43Z</time>
      </trkpt>
      <trkpt lat="46.321657" lon="14.634926">
        <ele>1432.020504</ele>
        <time>2011-07-30T07:10:48Z</time>
      </trkpt>
      <trkpt lat="46.321667" lon="14.634966">
        <ele>1432.983672</ele>
        <time>2011-07-30T07:10:53Z</time>
      </trkpt>
      <trkpt lat="46.321677" lon="14.634998">
        <ele>1432.983672</ele>
        <time>2011-07-30T07:10:59Z</time>
      </trkpt>
      <trkpt lat="46.321693" lon="14.635032">
        <ele>1432.983672</ele>
        <time>2011-07-30T07:11:06Z</time>
      </trkpt>
      <trkpt lat="46.321712" lon="14.635053">
        <ele>1432.983672</ele>
        <time>2011-07-30T07:11:12Z</time>
      </trkpt>
      <trkpt lat="46.321727" lon="14.635072">
        <ele>1432.502088</ele>
        <time>2011-07-30T07:11:19Z</time>
      </trkpt>
      <trkpt lat="46.321728" lon="14.635102">
        <ele>1431.53892</ele>
        <time>2011-07-30T07:11:27Z</time>
      </trkpt>
      <trkpt lat="46.321742" lon="14.635110">
        <ele>1432.502088</ele>
        <time>2011-07-30T07:11:37Z</time>
      </trkpt>
      <trkpt lat="46.321759" lon="14.635136">
        <ele>1432.502088</ele>
        <time>2011-07-30T07:11:43Z</time>
      </trkpt>
      <trkpt lat="46.321762" lon="14.635166">
        <ele>1432.502088</ele>
        <time>2011-07-30T07:11:50Z</time>
      </trkpt>
      <trkpt lat="46.321770" lon="14.635206">
        <ele>1432.983672</ele>
        <time>2011-07-30T07:11:58Z</time>
      </trkpt>
      <trkpt lat="46.321790" lon="14.635225">
        <ele>1433.462208</ele>
        <time>2011-07-30T07:12:01Z</time>
      </trkpt>
      <trkpt lat="46.321800" lon="14.635254">
        <ele>1434.903912</ele>
        <time>2011-07-30T07:12:08Z</time>
      </trkpt>
      <trkpt lat="46.321810" lon="14.635284">
        <ele>1435.385496</ele>
        <time>2011-07-30T07:12:14Z</time>
      </trkpt>
      <trkpt lat="46.321816" lon="14.635318">
        <ele>1437.308784</ele>
        <time>2011-07-30T07:12:21Z</time>
      </trkpt>
      <trkpt lat="46.321826" lon="14.635360">
        <ele>1437.790368</ele>
        <time>2011-07-30T07:12:29Z</time>
      </trkpt>
      <trkpt lat="46.321829" lon="14.635398">
        <ele>1438.750488</ele>
        <time>2011-07-30T07:12:36Z</time>
      </trkpt>
      <trkpt lat="46.321816" lon="14.635434">
        <ele>1440.192192</ele>
        <time>2011-07-30T07:12:41Z</time>
      </trkpt>
      <trkpt lat="46.321819" lon="14.635474">
        <ele>1441.152312</ele>
        <time>2011-07-30T07:12:48Z</time>
      </trkpt>
      <trkpt lat="46.321824" lon="14.635516">
        <ele>1442.11548</ele>
        <time>2011-07-30T07:12:55Z</time>
      </trkpt>
      <trkpt lat="46.321851" lon="14.635570">
        <ele>1443.557184</ele>
        <time>2011-07-30T07:13:07Z</time>
      </trkpt>
      <trkpt lat="46.321865" lon="14.635596">
        <ele>1444.998888</ele>
        <time>2011-07-30T07:13:19Z</time>
      </trkpt>
      <trkpt lat="46.321874" lon="14.635577">
        <ele>1449.324</ele>
        <time>2011-07-30T07:13:26Z</time>
      </trkpt>
      <trkpt lat="46.321890" lon="14.635534">
        <ele>1452.207408</ele>
        <time>2011-07-30T07:13:38Z</time>
      </trkpt>
      <trkpt lat="46.321902" lon="14.635560">
        <ele>1453.65216</ele>
        <time>2011-07-30T07:13:50Z</time>
      </trkpt>
      <trkpt lat="46.321917" lon="14.635538">
        <ele>1457.014104</ele>
        <time>2011-07-30T07:14:11Z</time>
      </trkpt>
      <trkpt lat="46.321939" lon="14.635533">
        <ele>1456.535568</ele>
        <time>2011-07-30T07:14:20Z</time>
      </trkpt>
      <trkpt lat="46.321961" lon="14.635547">
        <ele>1454.61228</ele>
        <time>2011-07-30T07:14:29Z</time>
      </trkpt>
      <trkpt lat="46.321974" lon="14.635555">
        <ele>1454.61228</ele>
        <time>2011-07-30T07:14:39Z</time>
      </trkpt>
      <trkpt lat="46.321989" lon="14.635534">
        <ele>1457.977272</ele>
        <time>2011-07-30T07:15:02Z</time>
      </trkpt>
      <trkpt lat="46.321993" lon="14.635567">
        <ele>1458.455808</ele>
        <time>2011-07-30T07:15:13Z</time>
      </trkpt>
      <trkpt lat="46.321998" lon="14.635590">
        <ele>1458.937392</ele>
        <time>2011-07-30T07:15:18Z</time>
      </trkpt>
      <trkpt lat="46.322004" lon="14.635579">
        <ele>1460.379096</ele>
        <time>2011-07-30T07:15:30Z</time>
      </trkpt>
      <trkpt lat="46.322014" lon="14.635588">
        <ele>1460.86068</ele>
        <time>2011-07-30T07:15:34Z</time>
      </trkpt>
      <trkpt lat="46.322037" lon="14.635613">
        <ele>1461.342264</ele>
        <time>2011-07-30T07:15:45Z</time>
      </trkpt>
      <trkpt lat="46.322068" lon="14.635640">
        <ele>1465.667376</ele>
        <time>2011-07-30T07:16:08Z</time>
      </trkpt>
      <trkpt lat="46.322084" lon="14.635654">
        <ele>1465.667376</ele>
        <time>2011-07-30T07:16:21Z</time>
      </trkpt>
      <trkpt lat="46.322104" lon="14.635687">
        <ele>1465.667376</ele>
        <time>2011-07-30T07:16:35Z</time>
      </trkpt>
      <trkpt lat="46.322113" lon="14.635728">
        <ele>1465.667376</ele>
        <time>2011-07-30T07:16:42Z</time>
      </trkpt>
      <trkpt lat="46.322129" lon="14.635794">
        <ele>1465.667376</ele>
        <time>2011-07-30T07:16:55Z</time>
      </trkpt>
      <trkpt lat="46.322136" lon="14.635802">
        <ele>1466.14896</ele>
        <time>2011-07-30T07:17:02Z</time>
      </trkpt>
      <trkpt lat="46.322155" lon="14.635811">
        <ele>1467.590664</ele>
        <time>2011-07-30T07:17:11Z</time>
      </trkpt>
      <trkpt lat="46.322181" lon="14.635807">
        <ele>1470.955656</ele>
        <time>2011-07-30T07:17:28Z</time>
      </trkpt>
      <trkpt lat="46.322183" lon="14.635828">
        <ele>1471.915776</ele>
        <time>2011-07-30T07:17:34Z</time>
      </trkpt>
      <trkpt lat="46.322172" lon="14.635784">
        <ele>1473.839064</ele>
        <time>2011-07-30T07:17:42Z</time>
      </trkpt>
      <trkpt lat="46.322170" lon="14.635788">
        <ele>1474.799184</ele>
        <time>2011-07-30T07:17:52Z</time>
      </trkpt>
      <trkpt lat="46.322167" lon="14.635814">
        <ele>1477.204056</ele>
        <time>2011-07-30T07:18:01Z</time>
      </trkpt>
      <trkpt lat="46.322173" lon="14.635888">
        <ele>1480.569048</ele>
        <time>2011-07-30T07:18:14Z</time>
      </trkpt>
      <trkpt lat="46.322182" lon="14.635926">
        <ele>1483.452456</ele>
        <time>2011-07-30T07:18:22Z</time>
      </trkpt>
      <trkpt lat="46.322181" lon="14.635956">
        <ele>1485.85428</ele>
        <time>2011-07-30T07:18:32Z</time>
      </trkpt>
      <trkpt lat="46.322192" lon="14.636011">
        <ele>1488.259152</ele>
        <time>2011-07-30T07:18:43Z</time>
      </trkpt>
      <trkpt lat="46.322198" lon="14.636111">
        <ele>1489.219272</ele>
        <time>2011-07-30T07:19:03Z</time>
      </trkpt>
      <trkpt lat="46.322193" lon="14.636138">
        <ele>1489.700856</ele>
        <time>2011-07-30T07:19:09Z</time>
      </trkpt>
      <trkpt lat="46.322212" lon="14.636158">
        <ele>1493.065848</ele>
        <time>2011-07-30T07:19:25Z</time>
      </trkpt>
      <trkpt lat="46.322195" lon="14.636141">
        <ele>1499.792784</ele>
        <time>2011-07-30T07:19:44Z</time>
      </trkpt>
      <trkpt lat="46.322184" lon="14.636119">
        <ele>1503.63936</ele>
        <time>2011-07-30T07:20:04Z</time>
      </trkpt>
      <trkpt lat="46.322170" lon="14.636100">
        <ele>1505.081064</ele>
        <time>2011-07-30T07:20:11Z</time>
      </trkpt>
      <trkpt lat="46.322161" lon="14.636086">
        <ele>1506.041184</ele>
        <time>2011-07-30T07:20:15Z</time>
      </trkpt>
      <trkpt lat="46.322158" lon="14.636080">
        <ele>1506.522768</ele>
        <time>2011-07-30T07:20:16Z</time>
      </trkpt>
      <trkpt lat="46.322172" lon="14.636100">
        <ele>1506.522768</ele>
        <time>2011-07-30T07:20:27Z</time>
      </trkpt>
      <trkpt lat="46.322205" lon="14.636176">
        <ele>1505.081064</ele>
        <time>2011-07-30T07:20:38Z</time>
      </trkpt>
      <trkpt lat="46.322228" lon="14.636229">
        <ele>1505.081064</ele>
        <time>2011-07-30T07:20:49Z</time>
      </trkpt>
      <trkpt lat="46.322238" lon="14.636266">
        <ele>1506.041184</ele>
        <time>2011-07-30T07:20:54Z</time>
      </trkpt>
      <trkpt lat="46.322257" lon="14.636300">
        <ele>1506.041184</ele>
        <time>2011-07-30T07:21:00Z</time>
      </trkpt>
      <trkpt lat="46.322273" lon="14.636324">
        <ele>1506.041184</ele>
        <time>2011-07-30T07:21:05Z</time>
      </trkpt>
      <trkpt lat="46.322285" lon="14.636348">
        <ele>1506.041184</ele>
        <time>2011-07-30T07:21:13Z</time>
      </trkpt>
      <trkpt lat="46.322299" lon="14.636385">
        <ele>1506.041184</ele>
        <time>2011-07-30T07:21:21Z</time>
      </trkpt>
      <trkpt lat="46.322321" lon="14.636395">
        <ele>1507.004352</ele>
        <time>2011-07-30T07:21:31Z</time>
      </trkpt>
      <trkpt lat="46.322336" lon="14.636408">
        <ele>1507.004352</ele>
        <time>2011-07-30T07:21:37Z</time>
      </trkpt>
      <trkpt lat="46.322325" lon="14.636438">
        <ele>1508.446056</ele>
        <time>2011-07-30T07:21:47Z</time>
      </trkpt>
      <trkpt lat="46.322326" lon="14.636474">
        <ele>1510.369344</ele>
        <time>2011-07-30T07:21:52Z</time>
      </trkpt>
      <trkpt lat="46.322343" lon="14.636494">
        <ele>1510.84788</ele>
        <time>2011-07-30T07:21:59Z</time>
      </trkpt>
      <trkpt lat="46.322373" lon="14.636488">
        <ele>1514.694456</ele>
        <time>2011-07-30T07:22:19Z</time>
      </trkpt>
      <trkpt lat="46.322374" lon="14.636595">
        <ele>1516.617744</ele>
        <time>2011-07-30T07:22:57Z</time>
      </trkpt>
      <trkpt lat="46.322381" lon="14.636613">
        <ele>1517.099328</ele>
        <time>2011-07-30T07:23:01Z</time>
      </trkpt>
      <trkpt lat="46.322387" lon="14.636656">
        <ele>1516.617744</ele>
        <time>2011-07-30T07:23:15Z</time>
      </trkpt>
      <trkpt lat="46.322386" lon="14.636681">
        <ele>1517.099328</ele>
        <time>2011-07-30T07:23:20Z</time>
      </trkpt>
      <trkpt lat="46.322409" lon="14.636698">
        <ele>1517.099328</ele>
        <time>2011-07-30T07:23:25Z</time>
      </trkpt>
      <trkpt lat="46.322421" lon="14.636749">
        <ele>1518.541032</ele>
        <time>2011-07-30T07:23:36Z</time>
      </trkpt>
      <trkpt lat="46.322430" lon="14.636774">
        <ele>1519.501152</ele>
        <time>2011-07-30T07:23:46Z</time>
      </trkpt>
      <trkpt lat="46.322448" lon="14.636791">
        <ele>1520.461272</ele>
        <time>2011-07-30T07:23:52Z</time>
      </trkpt>
      <trkpt lat="46.322454" lon="14.636827">
        <ele>1522.38456</ele>
        <time>2011-07-30T07:24:03Z</time>
      </trkpt>
      <trkpt lat="46.322455" lon="14.636876">
        <ele>1525.267968</ele>
        <time>2011-07-30T07:24:14Z</time>
      </trkpt>
      <trkpt lat="46.322458" lon="14.636902">
        <ele>1526.709672</ele>
        <time>2011-07-30T07:24:19Z</time>
      </trkpt>
      <trkpt lat="46.322460" lon="14.636925">
        <ele>1527.191256</ele>
        <time>2011-07-30T07:24:25Z</time>
      </trkpt>
      <trkpt lat="46.322462" lon="14.636951">
        <ele>1527.67284</ele>
        <time>2011-07-30T07:24:30Z</time>
      </trkpt>
      <trkpt lat="46.322479" lon="14.636974">
        <ele>1528.151376</ele>
        <time>2011-07-30T07:24:37Z</time>
      </trkpt>
      <trkpt lat="46.322479" lon="14.636996">
        <ele>1528.63296</ele>
        <time>2011-07-30T07:24:45Z</time>
      </trkpt>
      <trkpt lat="46.322481" lon="14.637030">
        <ele>1529.114544</ele>
        <time>2011-07-30T07:24:52Z</time>
      </trkpt>
      <trkpt lat="46.322483" lon="14.637059">
        <ele>1529.114544</ele>
        <time>2011-07-30T07:24:57Z</time>
      </trkpt>
      <trkpt lat="46.322491" lon="14.637078">
        <ele>1529.114544</ele>
        <time>2011-07-30T07:25:08Z</time>
      </trkpt>
      <trkpt lat="46.322496" lon="14.637105">
        <ele>1530.556248</ele>
        <time>2011-07-30T07:25:24Z</time>
      </trkpt>
      <trkpt lat="46.322507" lon="14.637137">
        <ele>1530.556248</ele>
        <time>2011-07-30T07:25:31Z</time>
      </trkpt>
      <trkpt lat="46.322523" lon="14.637177">
        <ele>1530.074664</ele>
        <time>2011-07-30T07:25:43Z</time>
      </trkpt>
      <trkpt lat="46.322539" lon="14.637168">
        <ele>1530.074664</ele>
        <time>2011-07-30T07:25:55Z</time>
      </trkpt>
      <trkpt lat="46.322548" lon="14.637154">
        <ele>1531.516368</ele>
        <time>2011-07-30T07:26:01Z</time>
      </trkpt>
      <trkpt lat="46.322611" lon="14.637171">
        <ele>1530.556248</ele>
        <time>2011-07-30T07:26:25Z</time>
      </trkpt>
      <trkpt lat="46.322623" lon="14.637195">
        <ele>1530.556248</ele>
        <time>2011-07-30T07:26:33Z</time>
      </trkpt>
      <trkpt lat="46.322635" lon="14.637211">
        <ele>1530.556248</ele>
        <time>2011-07-30T07:26:44Z</time>
      </trkpt>
      <trkpt lat="46.322635" lon="14.637235">
        <ele>1531.037832</ele>
        <time>2011-07-30T07:26:49Z</time>
      </trkpt>
      <trkpt lat="46.322635" lon="14.637258">
        <ele>1531.997952</ele>
        <time>2011-07-30T07:26:56Z</time>
      </trkpt>
      <trkpt lat="46.322654" lon="14.637269">
        <ele>1531.997952</ele>
        <time>2011-07-30T07:27:04Z</time>
      </trkpt>
      <trkpt lat="46.322660" lon="14.637275">
        <ele>1532.479536</ele>
        <time>2011-07-30T07:27:09Z</time>
      </trkpt>
      <trkpt lat="46.322675" lon="14.637285">
        <ele>1532.958072</ele>
        <time>2011-07-30T07:27:14Z</time>
      </trkpt>
      <trkpt lat="46.322647" lon="14.637285">
        <ele>1537.286232</ele>
        <time>2011-07-30T07:27:43Z</time>
      </trkpt>
      <trkpt lat="46.322646" lon="14.637289">
        <ele>1537.764768</ele>
        <time>2011-07-30T07:27:47Z</time>
      </trkpt>
      <trkpt lat="46.322643" lon="14.637298">
        <ele>1539.20952</ele>
        <time>2011-07-30T07:27:54Z</time>
      </trkpt>
      <trkpt lat="46.322640" lon="14.637308">
        <ele>1540.651224</ele>
        <time>2011-07-30T07:27:59Z</time>
      </trkpt>
      <trkpt lat="46.322629" lon="14.637310">
        <ele>1543.053048</ele>
        <time>2011-07-30T07:28:17Z</time>
      </trkpt>
      <trkpt lat="46.322628" lon="14.637317">
        <ele>1541.611344</ele>
        <time>2011-07-30T07:28:33Z</time>
      </trkpt>
      <trkpt lat="46.322625" lon="14.637323">
        <ele>1542.092928</ele>
        <time>2011-07-30T07:28:41Z</time>
      </trkpt>
      <trkpt lat="46.322618" lon="14.637314">
        <ele>1542.571464</ele>
        <time>2011-07-30T07:28:48Z</time>
      </trkpt>
      <trkpt lat="46.322627" lon="14.637313">
        <ele>1544.494752</ele>
        <time>2011-07-30T07:29:04Z</time>
      </trkpt>
      <trkpt lat="46.322625" lon="14.637325">
        <ele>1545.45792</ele>
        <time>2011-07-30T07:29:08Z</time>
      </trkpt>
      <trkpt lat="46.322620" lon="14.637342">
        <ele>1547.37816</ele>
        <time>2011-07-30T07:29:15Z</time>
      </trkpt>
      <trkpt lat="46.322610" lon="14.637369">
        <ele>1547.37816</ele>
        <time>2011-07-30T07:29:22Z</time>
      </trkpt>
      <trkpt lat="46.322593" lon="14.637375">
        <ele>1547.859744</ele>
        <time>2011-07-30T07:29:27Z</time>
      </trkpt>
      <trkpt lat="46.322576" lon="14.637350">
        <ele>1548.341328</ele>
        <time>2011-07-30T07:29:34Z</time>
      </trkpt>
      <trkpt lat="46.322573" lon="14.637350">
        <ele>1548.341328</ele>
        <time>2011-07-30T07:29:42Z</time>
      </trkpt>
      <trkpt lat="46.322571" lon="14.637326">
        <ele>1548.341328</ele>
        <time>2011-07-30T07:29:51Z</time>
      </trkpt>
      <trkpt lat="46.322577" lon="14.637331">
        <ele>1547.37816</ele>
        <time>2011-07-30T07:30:08Z</time>
      </trkpt>
      <trkpt lat="46.322584" lon="14.637358">
        <ele>1548.819864</ele>
        <time>2011-07-30T07:30:36Z</time>
      </trkpt>
      <trkpt lat="46.322584" lon="14.637372">
        <ele>1548.341328</ele>
        <time>2011-07-30T07:30:44Z</time>
      </trkpt>
      <trkpt lat="46.322601" lon="14.637403">
        <ele>1550.743152</ele>
        <time>2011-07-30T07:30:56Z</time>
      </trkpt>
      <trkpt lat="46.322573" lon="14.637397">
        <ele>1550.264616</ele>
        <time>2011-07-30T07:31:14Z</time>
      </trkpt>
      <trkpt lat="46.322569" lon="14.637393">
        <ele>1550.264616</ele>
        <time>2011-07-30T07:31:22Z</time>
      </trkpt>
      <trkpt lat="46.322570" lon="14.637393">
        <ele>1550.264616</ele>
        <time>2011-07-30T07:31:26Z</time>
      </trkpt>
      <trkpt lat="46.322562" lon="14.637378">
        <ele>1550.264616</ele>
        <time>2011-07-30T07:31:34Z</time>
      </trkpt>
      <trkpt lat="46.322558" lon="14.637367">
        <ele>1551.70632</ele>
        <time>2011-07-30T07:31:46Z</time>
      </trkpt>
      <trkpt lat="46.322562" lon="14.637351">
        <ele>1551.70632</ele>
        <time>2011-07-30T07:32:05Z</time>
      </trkpt>
      <trkpt lat="46.322591" lon="14.637380">
        <ele>1551.224736</ele>
        <time>2011-07-30T07:32:15Z</time>
      </trkpt>
      <trkpt lat="46.322633" lon="14.637390">
        <ele>1552.184856</ele>
        <time>2011-07-30T07:32:31Z</time>
      </trkpt>
      <trkpt lat="46.322650" lon="14.637408">
        <ele>1551.70632</ele>
        <time>2011-07-30T07:32:36Z</time>
      </trkpt>
      <trkpt lat="46.322670" lon="14.637422">
        <ele>1552.184856</ele>
        <time>2011-07-30T07:32:46Z</time>
      </trkpt>
      <trkpt lat="46.322673" lon="14.637442">
        <ele>1552.184856</ele>
        <time>2011-07-30T07:32:52Z</time>
      </trkpt>
      <trkpt lat="46.322688" lon="14.637460">
        <ele>1552.184856</ele>
        <time>2011-07-30T07:32:59Z</time>
      </trkpt>
      <trkpt lat="46.322705" lon="14.637468">
        <ele>1552.66644</ele>
        <time>2011-07-30T07:33:10Z</time>
      </trkpt>
      <trkpt lat="46.322735" lon="14.637452">
        <ele>1553.62656</ele>
        <time>2011-07-30T07:33:22Z</time>
      </trkpt>
      <trkpt lat="46.322758" lon="14.637463">
        <ele>1553.148024</ele>
        <time>2011-07-30T07:33:27Z</time>
      </trkpt>
      <trkpt lat="46.322771" lon="14.637468">
        <ele>1553.62656</ele>
        <time>2011-07-30T07:33:32Z</time>
      </trkpt>
      <trkpt lat="46.322788" lon="14.637429">
        <ele>1555.549848</ele>
        <time>2011-07-30T07:33:41Z</time>
      </trkpt>
      <trkpt lat="46.322808" lon="14.637440">
        <ele>1556.031432</ele>
        <time>2011-07-30T07:33:48Z</time>
      </trkpt>
      <trkpt lat="46.322823" lon="14.637450">
        <ele>1556.991552</ele>
        <time>2011-07-30T07:33:53Z</time>
      </trkpt>
      <trkpt lat="46.322844" lon="14.637449">
        <ele>1558.433256</ele>
        <time>2011-07-30T07:34:01Z</time>
      </trkpt>
      <trkpt lat="46.322859" lon="14.637437">
        <ele>1558.91484</ele>
        <time>2011-07-30T07:34:07Z</time>
      </trkpt>
      <trkpt lat="46.322887" lon="14.637431">
        <ele>1560.356544</ele>
        <time>2011-07-30T07:34:16Z</time>
      </trkpt>
      <trkpt lat="46.322909" lon="14.637452">
        <ele>1560.838128</ele>
        <time>2011-07-30T07:34:24Z</time>
      </trkpt>
      <trkpt lat="46.322922" lon="14.637487">
        <ele>1562.279832</ele>
        <time>2011-07-30T07:34:32Z</time>
      </trkpt>
      <trkpt lat="46.322939" lon="14.637498">
        <ele>1563.239952</ele>
        <time>2011-07-30T07:34:38Z</time>
      </trkpt>
      <trkpt lat="46.322951" lon="14.637475">
        <ele>1564.681656</ele>
        <time>2011-07-30T07:34:43Z</time>
      </trkpt>
      <trkpt lat="46.322970" lon="14.637493">
        <ele>1566.604944</ele>
        <time>2011-07-30T07:34:51Z</time>
      </trkpt>
      <trkpt lat="46.322986" lon="14.637520">
        <ele>1567.086528</ele>
        <time>2011-07-30T07:34:58Z</time>
      </trkpt>
      <trkpt lat="46.323003" lon="14.637532">
        <ele>1567.086528</ele>
        <time>2011-07-30T07:35:05Z</time>
      </trkpt>
      <trkpt lat="46.323022" lon="14.637546">
        <ele>1567.086528</ele>
        <time>2011-07-30T07:35:10Z</time>
      </trkpt>
      <trkpt lat="46.323038" lon="14.637561">
        <ele>1567.086528</ele>
        <time>2011-07-30T07:35:14Z</time>
      </trkpt>
      <trkpt lat="46.323051" lon="14.637573">
        <ele>1568.528232</ele>
        <time>2011-07-30T07:35:22Z</time>
      </trkpt>
      <trkpt lat="46.323072" lon="14.637589">
        <ele>1569.488352</ele>
        <time>2011-07-30T07:35:29Z</time>
      </trkpt>
      <trkpt lat="46.323100" lon="14.637586">
        <ele>1569.488352</ele>
        <time>2011-07-30T07:35:34Z</time>
      </trkpt>
      <trkpt lat="46.323117" lon="14.637602">
        <ele>1569.969936</ele>
        <time>2011-07-30T07:35:40Z</time>
      </trkpt>
      <trkpt lat="46.323133" lon="14.637592">
        <ele>1570.933104</ele>
        <time>2011-07-30T07:35:45Z</time>
      </trkpt>
      <trkpt lat="46.323155" lon="14.637608">
        <ele>1571.893224</ele>
        <time>2011-07-30T07:35:53Z</time>
      </trkpt>
      <trkpt lat="46.323185" lon="14.637616">
        <ele>1572.374808</ele>
        <time>2011-07-30T07:36:04Z</time>
      </trkpt>
      <trkpt lat="46.323172" lon="14.637611">
        <ele>1573.816512</ele>
        <time>2011-07-30T07:36:27Z</time>
      </trkpt>
      <trkpt lat="46.323166" lon="14.637571">
        <ele>1575.258216</ele>
        <time>2011-07-30T07:36:39Z</time>
      </trkpt>
      <trkpt lat="46.323170" lon="14.637543">
        <ele>1575.736752</ele>
        <time>2011-07-30T07:36:42Z</time>
      </trkpt>
      <trkpt lat="46.323171" lon="14.637558">
        <ele>1575.736752</ele>
        <time>2011-07-30T07:36:46Z</time>
      </trkpt>
      <trkpt lat="46.323174" lon="14.637550">
        <ele>1577.181504</ele>
        <time>2011-07-30T07:36:50Z</time>
      </trkpt>
      <trkpt lat="46.323176" lon="14.637622">
        <ele>1577.181504</ele>
        <time>2011-07-30T07:37:10Z</time>
      </trkpt>
      <trkpt lat="46.323178" lon="14.637633">
        <ele>1577.181504</ele>
        <time>2011-07-30T07:37:13Z</time>
      </trkpt>
      <trkpt lat="46.323180" lon="14.637645">
        <ele>1578.623208</ele>
        <time>2011-07-30T07:37:25Z</time>
      </trkpt>
      <trkpt lat="46.323193" lon="14.637632">
        <ele>1580.543448</ele>
        <time>2011-07-30T07:37:33Z</time>
      </trkpt>
      <trkpt lat="46.323210" lon="14.637630">
        <ele>1580.064912</ele>
        <time>2011-07-30T07:37:37Z</time>
      </trkpt>
      <trkpt lat="46.323221" lon="14.637639">
        <ele>1581.025032</ele>
        <time>2011-07-30T07:37:44Z</time>
      </trkpt>
      <trkpt lat="46.323237" lon="14.637645">
        <ele>1581.506616</ele>
        <time>2011-07-30T07:37:51Z</time>
      </trkpt>
      <trkpt lat="46.323253" lon="14.637637">
        <ele>1582.466736</ele>
        <time>2011-07-30T07:37:56Z</time>
      </trkpt>
      <trkpt lat="46.323274" lon="14.637637">
        <ele>1583.429904</ele>
        <time>2011-07-30T07:38:03Z</time>
      </trkpt>
      <trkpt lat="46.323286" lon="14.637642">
        <ele>1583.90844</ele>
        <time>2011-07-30T07:38:07Z</time>
      </trkpt>
      <trkpt lat="46.323291" lon="14.637645">
        <ele>1584.390024</ele>
        <time>2011-07-30T07:38:10Z</time>
      </trkpt>
      <trkpt lat="46.323300" lon="14.637657">
        <ele>1585.350144</ele>
        <time>2011-07-30T07:38:15Z</time>
      </trkpt>
      <trkpt lat="46.323308" lon="14.637655">
        <ele>1586.791848</ele>
        <time>2011-07-30T07:38:22Z</time>
      </trkpt>
      <trkpt lat="46.323315" lon="14.637676">
        <ele>1587.755016</ele>
        <time>2011-07-30T07:38:30Z</time>
      </trkpt>
      <trkpt lat="46.323335" lon="14.637673">
        <ele>1587.755016</ele>
        <time>2011-07-30T07:38:35Z</time>
      </trkpt>
      <trkpt lat="46.323350" lon="14.637690">
        <ele>1587.755016</ele>
        <time>2011-07-30T07:38:42Z</time>
      </trkpt>
      <trkpt lat="46.323397" lon="14.637721">
        <ele>1589.19672</ele>
        <time>2011-07-30T07:39:02Z</time>
      </trkpt>
      <trkpt lat="46.323415" lon="14.637739">
        <ele>1589.678304</ele>
        <time>2011-07-30T07:39:09Z</time>
      </trkpt>
      <trkpt lat="46.323429" lon="14.637773">
        <ele>1590.15684</ele>
        <time>2011-07-30T07:39:17Z</time>
      </trkpt>
      <trkpt lat="46.323440" lon="14.637780">
        <ele>1589.678304</ele>
        <time>2011-07-30T07:39:24Z</time>
      </trkpt>
      <trkpt lat="46.323463" lon="14.637774">
        <ele>1589.19672</ele>
        <time>2011-07-30T07:39:31Z</time>
      </trkpt>
      <trkpt lat="46.323485" lon="14.637779">
        <ele>1589.19672</ele>
        <time>2011-07-30T07:39:39Z</time>
      </trkpt>
      <trkpt lat="46.323510" lon="14.637774">
        <ele>1591.120008</ele>
        <time>2011-07-30T07:39:48Z</time>
      </trkpt>
      <trkpt lat="46.323530" lon="14.637765">
        <ele>1591.120008</ele>
        <time>2011-07-30T07:39:52Z</time>
      </trkpt>
      <trkpt lat="46.323585" lon="14.637776">
        <ele>1591.598544</ele>
        <time>2011-07-30T07:40:15Z</time>
      </trkpt>
      <trkpt lat="46.323603" lon="14.637750">
        <ele>1592.561712</ele>
        <time>2011-07-30T07:40:22Z</time>
      </trkpt>
      <trkpt lat="46.323626" lon="14.637734">
        <ele>1593.040248</ele>
        <time>2011-07-30T07:40:27Z</time>
      </trkpt>
      <trkpt lat="46.323661" lon="14.637732">
        <ele>1592.561712</ele>
        <time>2011-07-30T07:40:38Z</time>
      </trkpt>
      <trkpt lat="46.323665" lon="14.637749">
        <ele>1592.561712</ele>
        <time>2011-07-30T07:40:46Z</time>
      </trkpt>
      <trkpt lat="46.323666" lon="14.637798">
        <ele>1593.040248</ele>
        <time>2011-07-30T07:40:58Z</time>
      </trkpt>
      <trkpt lat="46.323668" lon="14.637813">
        <ele>1592.561712</ele>
        <time>2011-07-30T07:41:04Z</time>
      </trkpt>
      <trkpt lat="46.323671" lon="14.637843">
        <ele>1593.521832</ele>
        <time>2011-07-30T07:41:16Z</time>
      </trkpt>
      <trkpt lat="46.323672" lon="14.637875">
        <ele>1594.963536</ele>
        <time>2011-07-30T07:41:20Z</time>
      </trkpt>
      <trkpt lat="46.323670" lon="14.637909">
        <ele>1594.963536</ele>
        <time>2011-07-30T07:41:27Z</time>
      </trkpt>
      <trkpt lat="46.323670" lon="14.637952">
        <ele>1594.003416</ele>
        <time>2011-07-30T07:41:32Z</time>
      </trkpt>
      <trkpt lat="46.323683" lon="14.638001">
        <ele>1595.44512</ele>
        <time>2011-07-30T07:41:43Z</time>
      </trkpt>
      <trkpt lat="46.323702" lon="14.638011">
        <ele>1596.886824</ele>
        <time>2011-07-30T07:41:50Z</time>
      </trkpt>
      <trkpt lat="46.323777" lon="14.638083">
        <ele>1598.328528</ele>
        <time>2011-07-30T07:42:26Z</time>
      </trkpt>
      <trkpt lat="46.323751" lon="14.638156">
        <ele>1601.69352</ele>
        <time>2011-07-30T07:43:08Z</time>
      </trkpt>
      <trkpt lat="46.323765" lon="14.638171">
        <ele>1602.175104</ele>
        <time>2011-07-30T07:43:13Z</time>
      </trkpt>
      <trkpt lat="46.323783" lon="14.638211">
        <ele>1603.135224</ele>
        <time>2011-07-30T07:43:20Z</time>
      </trkpt>
      <trkpt lat="46.323811" lon="14.638229">
        <ele>1605.058512</ele>
        <time>2011-07-30T07:43:28Z</time>
      </trkpt>
      <trkpt lat="46.323835" lon="14.638268">
        <ele>1607.460336</ele>
        <time>2011-07-30T07:43:39Z</time>
      </trkpt>
      <trkpt lat="46.323846" lon="14.638291">
        <ele>1608.905088</ele>
        <time>2011-07-30T07:43:47Z</time>
      </trkpt>
      <trkpt lat="46.323858" lon="14.638332">
        <ele>1610.346792</ele>
        <time>2011-07-30T07:43:58Z</time>
      </trkpt>
      <trkpt lat="46.323869" lon="14.638339">
        <ele>1613.708736</ele>
        <time>2011-07-30T07:44:18Z</time>
      </trkpt>
      <trkpt lat="46.323875" lon="14.638357">
        <ele>1614.19032</ele>
        <time>2011-07-30T07:44:25Z</time>
      </trkpt>
      <trkpt lat="46.323888" lon="14.638384">
        <ele>1614.19032</ele>
        <time>2011-07-30T07:44:30Z</time>
      </trkpt>
      <trkpt lat="46.323903" lon="14.638382">
        <ele>1615.632024</ele>
        <time>2011-07-30T07:44:37Z</time>
      </trkpt>
      <trkpt lat="46.323941" lon="14.638382">
        <ele>1618.515432</ele>
        <time>2011-07-30T07:45:03Z</time>
      </trkpt>
      <trkpt lat="46.323959" lon="14.638377">
        <ele>1618.997016</ele>
        <time>2011-07-30T07:45:08Z</time>
      </trkpt>
      <trkpt lat="46.323982" lon="14.638369">
        <ele>1619.4786</ele>
        <time>2011-07-30T07:45:16Z</time>
      </trkpt>
      <trkpt lat="46.324050" lon="14.638416">
        <ele>1620.920304</ele>
        <time>2011-07-30T07:45:39Z</time>
      </trkpt>
      <trkpt lat="46.324064" lon="14.638433">
        <ele>1621.880424</ele>
        <time>2011-07-30T07:45:43Z</time>
      </trkpt>
      <trkpt lat="46.324081" lon="14.638453">
        <ele>1622.843592</ele>
        <time>2011-07-30T07:45:51Z</time>
      </trkpt>
      <trkpt lat="46.324092" lon="14.638463">
        <ele>1623.322128</ele>
        <time>2011-07-30T07:45:55Z</time>
      </trkpt>
      <trkpt lat="46.324106" lon="14.638453">
        <ele>1624.285296</ele>
        <time>2011-07-30T07:46:02Z</time>
      </trkpt>
      <trkpt lat="46.324116" lon="14.638441">
        <ele>1625.245416</ele>
        <time>2011-07-30T07:46:05Z</time>
      </trkpt>
      <trkpt lat="46.324142" lon="14.638439">
        <ele>1626.68712</ele>
        <time>2011-07-30T07:46:14Z</time>
      </trkpt>
      <trkpt lat="46.324153" lon="14.638436">
        <ele>1628.610408</ele>
        <time>2011-07-30T07:46:25Z</time>
      </trkpt>
      <trkpt lat="46.324167" lon="14.638412">
        <ele>1629.091992</ele>
        <time>2011-07-30T07:46:37Z</time>
      </trkpt>
      <trkpt lat="46.324185" lon="14.638401">
        <ele>1629.091992</ele>
        <time>2011-07-30T07:46:44Z</time>
      </trkpt>
      <trkpt lat="46.324205" lon="14.638399">
        <ele>1629.091992</ele>
        <time>2011-07-30T07:46:48Z</time>
      </trkpt>
      <trkpt lat="46.324224" lon="14.638408">
        <ele>1630.052112</ele>
        <time>2011-07-30T07:46:56Z</time>
      </trkpt>
      <trkpt lat="46.324227" lon="14.638438">
        <ele>1630.052112</ele>
        <time>2011-07-30T07:47:04Z</time>
      </trkpt>
      <trkpt lat="46.324211" lon="14.638491">
        <ele>1629.570528</ele>
        <time>2011-07-30T07:47:11Z</time>
      </trkpt>
      <trkpt lat="46.324216" lon="14.638530">
        <ele>1629.570528</ele>
        <time>2011-07-30T07:47:16Z</time>
      </trkpt>
      <trkpt lat="46.324238" lon="14.638547">
        <ele>1629.091992</ele>
        <time>2011-07-30T07:47:23Z</time>
      </trkpt>
      <trkpt lat="46.324268" lon="14.638581">
        <ele>1629.570528</ele>
        <time>2011-07-30T07:47:34Z</time>
      </trkpt>
      <trkpt lat="46.324286" lon="14.638601">
        <ele>1629.570528</ele>
        <time>2011-07-30T07:47:38Z</time>
      </trkpt>
      <trkpt lat="46.324308" lon="14.638641">
        <ele>1630.533696</ele>
        <time>2011-07-30T07:47:51Z</time>
      </trkpt>
      <trkpt lat="46.324309" lon="14.638651">
        <ele>1631.9754</ele>
        <time>2011-07-30T07:48:14Z</time>
      </trkpt>
      <trkpt lat="46.324311" lon="14.638649">
        <ele>1632.93552</ele>
        <time>2011-07-30T07:48:24Z</time>
      </trkpt>
      <trkpt lat="46.324309" lon="14.638655">
        <ele>1633.417104</ele>
        <time>2011-07-30T07:48:40Z</time>
      </trkpt>
      <trkpt lat="46.324309" lon="14.638656">
        <ele>1633.417104</ele>
        <time>2011-07-30T07:48:44Z</time>
      </trkpt>
      <trkpt lat="46.324307" lon="14.638658">
        <ele>1633.898688</ele>
        <time>2011-07-30T07:48:47Z</time>
      </trkpt>
      <trkpt lat="46.324308" lon="14.638655">
        <ele>1633.898688</ele>
        <time>2011-07-30T07:48:52Z</time>
      </trkpt>
      <trkpt lat="46.324289" lon="14.638670">
        <ele>1637.26368</ele>
        <time>2011-07-30T07:49:42Z</time>
      </trkpt>
      <trkpt lat="46.324286" lon="14.638675">
        <ele>1637.26368</ele>
        <time>2011-07-30T07:49:56Z</time>
      </trkpt>
      <trkpt lat="46.324311" lon="14.638672">
        <ele>1637.26368</ele>
        <time>2011-07-30T07:50:09Z</time>
      </trkpt>
      <trkpt lat="46.324339" lon="14.638677">
        <ele>1636.782096</ele>
        <time>2011-07-30T07:50:16Z</time>
      </trkpt>
      <trkpt lat="46.324362" lon="14.638685">
        <ele>1636.300512</ele>
        <time>2011-07-30T07:50:23Z</time>
      </trkpt>
      <trkpt lat="46.324372" lon="14.638710">
        <ele>1636.782096</ele>
        <time>2011-07-30T07:50:31Z</time>
      </trkpt>
      <trkpt lat="46.324392" lon="14.638735">
        <ele>1636.782096</ele>
        <time>2011-07-30T07:50:36Z</time>
      </trkpt>
      <trkpt lat="46.324402" lon="14.638755">
        <ele>1636.782096</ele>
        <time>2011-07-30T07:50:40Z</time>
      </trkpt>
      <trkpt lat="46.324409" lon="14.638783">
        <ele>1636.782096</ele>
        <time>2011-07-30T07:50:46Z</time>
      </trkpt>
      <trkpt lat="46.324421" lon="14.638800">
        <ele>1637.26368</ele>
        <time>2011-07-30T07:50:50Z</time>
      </trkpt>
      <trkpt lat="46.324442" lon="14.638846">
        <ele>1636.782096</ele>
        <time>2011-07-30T07:50:58Z</time>
      </trkpt>
      <trkpt lat="46.324457" lon="14.638847">
        <ele>1637.742216</ele>
        <time>2011-07-30T07:51:03Z</time>
      </trkpt>
      <trkpt lat="46.324471" lon="14.638861">
        <ele>1638.2238</ele>
        <time>2011-07-30T07:51:09Z</time>
      </trkpt>
      <trkpt lat="46.324483" lon="14.638882">
        <ele>1639.18392</ele>
        <time>2011-07-30T07:51:18Z</time>
      </trkpt>
      <trkpt lat="46.324501" lon="14.638870">
        <ele>1639.665504</ele>
        <time>2011-07-30T07:51:22Z</time>
      </trkpt>
      <trkpt lat="46.324525" lon="14.638874">
        <ele>1640.625624</ele>
        <time>2011-07-30T07:51:32Z</time>
      </trkpt>
      <trkpt lat="46.324552" lon="14.638868">
        <ele>1639.665504</ele>
        <time>2011-07-30T07:51:42Z</time>
      </trkpt>
      <trkpt lat="46.324567" lon="14.638870">
        <ele>1641.107208</ele>
        <time>2011-07-30T07:51:48Z</time>
      </trkpt>
      <trkpt lat="46.324576" lon="14.638863">
        <ele>1643.51208</ele>
        <time>2011-07-30T07:51:57Z</time>
      </trkpt>
      <trkpt lat="46.324593" lon="14.638852">
        <ele>1644.953784</ele>
        <time>2011-07-30T07:52:08Z</time>
      </trkpt>
      <trkpt lat="46.324610" lon="14.638803">
        <ele>1645.43232</ele>
        <time>2011-07-30T07:52:26Z</time>
      </trkpt>
      <trkpt lat="46.324598" lon="14.638759">
        <ele>1646.395488</ele>
        <time>2011-07-30T07:52:35Z</time>
      </trkpt>
      <trkpt lat="46.324603" lon="14.638722">
        <ele>1646.395488</ele>
        <time>2011-07-30T07:52:42Z</time>
      </trkpt>
      <trkpt lat="46.324616" lon="14.638703">
        <ele>1645.913904</ele>
        <time>2011-07-30T07:52:47Z</time>
      </trkpt>
      <trkpt lat="46.324633" lon="14.638674">
        <ele>1647.355608</ele>
        <time>2011-07-30T07:52:58Z</time>
      </trkpt>
      <trkpt lat="46.324631" lon="14.638654">
        <ele>1648.318776</ele>
        <time>2011-07-30T07:53:05Z</time>
      </trkpt>
      <trkpt lat="46.324633" lon="14.638623">
        <ele>1648.318776</ele>
        <time>2011-07-30T07:53:10Z</time>
      </trkpt>
      <trkpt lat="46.324628" lon="14.638597">
        <ele>1647.837192</ele>
        <time>2011-07-30T07:53:14Z</time>
      </trkpt>
      <trkpt lat="46.324626" lon="14.638565">
        <ele>1647.837192</ele>
        <time>2011-07-30T07:53:20Z</time>
      </trkpt>
      <trkpt lat="46.324637" lon="14.638536">
        <ele>1647.355608</ele>
        <time>2011-07-30T07:53:25Z</time>
      </trkpt>
      <trkpt lat="46.324659" lon="14.638519">
        <ele>1647.355608</ele>
        <time>2011-07-30T07:53:32Z</time>
      </trkpt>
      <trkpt lat="46.324684" lon="14.638492">
        <ele>1647.837192</ele>
        <time>2011-07-30T07:53:40Z</time>
      </trkpt>
      <trkpt lat="46.324687" lon="14.638467">
        <ele>1648.318776</ele>
        <time>2011-07-30T07:53:45Z</time>
      </trkpt>
      <trkpt lat="46.324699" lon="14.638443">
        <ele>1648.797312</ele>
        <time>2011-07-30T07:53:49Z</time>
      </trkpt>
      <trkpt lat="46.324711" lon="14.638427">
        <ele>1649.278896</ele>
        <time>2011-07-30T07:53:53Z</time>
      </trkpt>
      <trkpt lat="46.324723" lon="14.638404">
        <ele>1649.278896</ele>
        <time>2011-07-30T07:54:00Z</time>
      </trkpt>
      <trkpt lat="46.324741" lon="14.638383">
        <ele>1650.239016</ele>
        <time>2011-07-30T07:54:08Z</time>
      </trkpt>
      <trkpt lat="46.324757" lon="14.638392">
        <ele>1650.7206</ele>
        <time>2011-07-30T07:54:12Z</time>
      </trkpt>
      <trkpt lat="46.324772" lon="14.638380">
        <ele>1651.683768</ele>
        <time>2011-07-30T07:54:19Z</time>
      </trkpt>
      <trkpt lat="46.324797" lon="14.638374">
        <ele>1652.643888</ele>
        <time>2011-07-30T07:54:27Z</time>
      </trkpt>
      <trkpt lat="46.324812" lon="14.638389">
        <ele>1653.604008</ele>
        <time>2011-07-30T07:54:42Z</time>
      </trkpt>
      <trkpt lat="46.324820" lon="14.638365">
        <ele>1653.125472</ele>
        <time>2011-07-30T07:54:55Z</time>
      </trkpt>
      <trkpt lat="46.324833" lon="14.638324">
        <ele>1654.085592</ele>
        <time>2011-07-30T07:55:08Z</time>
      </trkpt>
      <trkpt lat="46.324847" lon="14.638313">
        <ele>1655.045712</ele>
        <time>2011-07-30T07:55:14Z</time>
      </trkpt>
      <trkpt lat="46.324863" lon="14.638308">
        <ele>1655.045712</ele>
        <time>2011-07-30T07:55:20Z</time>
      </trkpt>
      <trkpt lat="46.324879" lon="14.638310">
        <ele>1655.527296</ele>
        <time>2011-07-30T07:55:24Z</time>
      </trkpt>
      <trkpt lat="46.324902" lon="14.638331">
        <ele>1656.00888</ele>
        <time>2011-07-30T07:55:30Z</time>
      </trkpt>
      <trkpt lat="46.324925" lon="14.638342">
        <ele>1656.969</ele>
        <time>2011-07-30T07:55:39Z</time>
      </trkpt>
      <trkpt lat="46.324945" lon="14.638341">
        <ele>1657.932168</ele>
        <time>2011-07-30T07:55:44Z</time>
      </trkpt>
      <trkpt lat="46.324970" lon="14.638353">
        <ele>1658.892288</ele>
        <time>2011-07-30T07:55:51Z</time>
      </trkpt>
      <trkpt lat="46.324988" lon="14.638375">
        <ele>1659.852408</ele>
        <time>2011-07-30T07:55:56Z</time>
      </trkpt>
      <trkpt lat="46.325007" lon="14.638373">
        <ele>1661.29716</ele>
        <time>2011-07-30T07:56:02Z</time>
      </trkpt>
      <trkpt lat="46.325024" lon="14.638335">
        <ele>1663.698984</ele>
        <time>2011-07-30T07:56:12Z</time>
      </trkpt>
      <trkpt lat="46.325039" lon="14.638311">
        <ele>1664.180568</ele>
        <time>2011-07-30T07:56:18Z</time>
      </trkpt>
      <trkpt lat="46.325049" lon="14.638269">
        <ele>1665.622272</ele>
        <time>2011-07-30T07:56:27Z</time>
      </trkpt>
      <trkpt lat="46.325060" lon="14.638241">
        <ele>1666.100808</ele>
        <time>2011-07-30T07:56:37Z</time>
      </trkpt>
      <trkpt lat="46.325066" lon="14.638209">
        <ele>1665.140688</ele>
        <time>2011-07-30T07:56:45Z</time>
      </trkpt>
      <trkpt lat="46.325088" lon="14.638126">
        <ele>1663.698984</ele>
        <time>2011-07-30T07:56:54Z</time>
      </trkpt>
      <trkpt lat="46.325105" lon="14.638077">
        <ele>1662.738864</ele>
        <time>2011-07-30T07:57:01Z</time>
      </trkpt>
      <trkpt lat="46.325142" lon="14.638042">
        <ele>1662.25728</ele>
        <time>2011-07-30T07:57:08Z</time>
      </trkpt>
      <trkpt lat="46.325176" lon="14.638023">
        <ele>1662.738864</ele>
        <time>2011-07-30T07:57:13Z</time>
      </trkpt>
      <trkpt lat="46.325195" lon="14.638004">
        <ele>1663.2174</ele>
        <time>2011-07-30T07:57:20Z</time>
      </trkpt>
      <trkpt lat="46.325232" lon="14.637973">
        <ele>1664.180568</ele>
        <time>2011-07-30T07:57:28Z</time>
      </trkpt>
      <trkpt lat="46.325265" lon="14.637916">
        <ele>1664.659104</ele>
        <time>2011-07-30T07:57:36Z</time>
      </trkpt>
      <trkpt lat="46.325296" lon="14.637876">
        <ele>1665.140688</ele>
        <time>2011-07-30T07:57:44Z</time>
      </trkpt>
      <trkpt lat="46.325344" lon="14.637823">
        <ele>1665.622272</ele>
        <time>2011-07-30T07:58:14Z</time>
      </trkpt>
      <trkpt lat="46.325370" lon="14.637804">
        <ele>1666.100808</ele>
        <time>2011-07-30T07:58:19Z</time>
      </trkpt>
      <trkpt lat="46.325402" lon="14.637778">
        <ele>1666.100808</ele>
        <time>2011-07-30T07:58:25Z</time>
      </trkpt>
      <trkpt lat="46.325423" lon="14.637760">
        <ele>1666.100808</ele>
        <time>2011-07-30T07:58:29Z</time>
      </trkpt>
      <trkpt lat="46.325440" lon="14.637768">
        <ele>1666.582392</ele>
        <time>2011-07-30T07:58:33Z</time>
      </trkpt>
      <trkpt lat="46.325439" lon="14.637765">
        <ele>1667.063976</ele>
        <time>2011-07-30T07:58:42Z</time>
      </trkpt>
      <trkpt lat="46.325442" lon="14.637777">
        <ele>1666.100808</ele>
        <time>2011-07-30T07:59:15Z</time>
      </trkpt>
      <trkpt lat="46.325444" lon="14.637783">
        <ele>1666.582392</ele>
        <time>2011-07-30T07:59:27Z</time>
      </trkpt>
      <trkpt lat="46.325444" lon="14.637784">
        <ele>1666.582392</ele>
        <time>2011-07-30T07:59:28Z</time>
      </trkpt>
      <trkpt lat="46.325466" lon="14.637792">
        <ele>1667.063976</ele>
        <time>2011-07-30T08:00:09Z</time>
      </trkpt>
      <trkpt lat="46.325525" lon="14.637786">
        <ele>1667.063976</ele>
        <time>2011-07-30T08:00:18Z</time>
      </trkpt>
      <trkpt lat="46.325556" lon="14.637774">
        <ele>1667.063976</ele>
        <time>2011-07-30T08:00:23Z</time>
      </trkpt>
      <trkpt lat="46.325583" lon="14.637763">
        <ele>1667.063976</ele>
        <time>2011-07-30T08:00:27Z</time>
      </trkpt>
      <trkpt lat="46.325608" lon="14.637743">
        <ele>1667.063976</ele>
        <time>2011-07-30T08:00:33Z</time>
      </trkpt>
      <trkpt lat="46.325643" lon="14.637718">
        <ele>1667.063976</ele>
        <time>2011-07-30T08:00:41Z</time>
      </trkpt>
      <trkpt lat="46.325662" lon="14.637686">
        <ele>1667.063976</ele>
        <time>2011-07-30T08:00:45Z</time>
      </trkpt>
      <trkpt lat="46.325679" lon="14.637653">
        <ele>1667.063976</ele>
        <time>2011-07-30T08:00:49Z</time>
      </trkpt>
      <trkpt lat="46.325707" lon="14.637617">
        <ele>1667.542512</ele>
        <time>2011-07-30T08:00:56Z</time>
      </trkpt>
      <trkpt lat="46.325735" lon="14.637609">
        <ele>1667.542512</ele>
        <time>2011-07-30T08:01:01Z</time>
      </trkpt>
      <trkpt lat="46.325765" lon="14.637593">
        <ele>1667.542512</ele>
        <time>2011-07-30T08:01:07Z</time>
      </trkpt>
      <trkpt lat="46.325795" lon="14.637572">
        <ele>1668.024096</ele>
        <time>2011-07-30T08:01:13Z</time>
      </trkpt>
      <trkpt lat="46.325816" lon="14.637558">
        <ele>1668.024096</ele>
        <time>2011-07-30T08:01:19Z</time>
      </trkpt>
      <trkpt lat="46.325836" lon="14.637534">
        <ele>1668.987264</ele>
        <time>2011-07-30T08:01:26Z</time>
      </trkpt>
      <trkpt lat="46.325853" lon="14.637529">
        <ele>1669.4658</ele>
        <time>2011-07-30T08:01:31Z</time>
      </trkpt>
      <trkpt lat="46.325875" lon="14.637525">
        <ele>1669.947384</ele>
        <time>2011-07-30T08:01:38Z</time>
      </trkpt>
      <trkpt lat="46.325899" lon="14.637520">
        <ele>1670.428968</ele>
        <time>2011-07-30T08:01:43Z</time>
      </trkpt>
      <trkpt lat="46.325924" lon="14.637517">
        <ele>1670.907504</ele>
        <time>2011-07-30T08:01:48Z</time>
      </trkpt>
      <trkpt lat="46.325945" lon="14.637525">
        <ele>1671.389088</ele>
        <time>2011-07-30T08:01:53Z</time>
      </trkpt>
      <trkpt lat="46.325965" lon="14.637533">
        <ele>1671.870672</ele>
        <time>2011-07-30T08:01:58Z</time>
      </trkpt>
      <trkpt lat="46.325991" lon="14.637526">
        <ele>1672.349208</ele>
        <time>2011-07-30T08:02:02Z</time>
      </trkpt>
      <trkpt lat="46.326016" lon="14.637516">
        <ele>1672.349208</ele>
        <time>2011-07-30T08:02:09Z</time>
      </trkpt>
      <trkpt lat="46.326038" lon="14.637523">
        <ele>1672.349208</ele>
        <time>2011-07-30T08:02:14Z</time>
      </trkpt>
      <trkpt lat="46.326061" lon="14.637529">
        <ele>1672.349208</ele>
        <time>2011-07-30T08:02:20Z</time>
      </trkpt>
      <trkpt lat="46.326088" lon="14.637533">
        <ele>1673.312376</ele>
        <time>2011-07-30T08:02:26Z</time>
      </trkpt>
      <trkpt lat="46.326110" lon="14.637515">
        <ele>1673.79396</ele>
        <time>2011-07-30T08:02:34Z</time>
      </trkpt>
      <trkpt lat="46.326119" lon="14.637499">
        <ele>1674.75408</ele>
        <time>2011-07-30T08:02:40Z</time>
      </trkpt>
      <trkpt lat="46.326131" lon="14.637477">
        <ele>1675.235664</ele>
        <time>2011-07-30T08:02:45Z</time>
      </trkpt>
      <trkpt lat="46.326154" lon="14.637460">
        <ele>1675.7142</ele>
        <time>2011-07-30T08:02:52Z</time>
      </trkpt>
      <trkpt lat="46.326168" lon="14.637427">
        <ele>1676.677368</ele>
        <time>2011-07-30T08:02:59Z</time>
      </trkpt>
      <trkpt lat="46.326171" lon="14.637393">
        <ele>1677.158952</ele>
        <time>2011-07-30T08:03:04Z</time>
      </trkpt>
      <trkpt lat="46.326186" lon="14.637372">
        <ele>1677.158952</ele>
        <time>2011-07-30T08:03:08Z</time>
      </trkpt>
      <trkpt lat="46.326203" lon="14.637358">
        <ele>1677.637488</ele>
        <time>2011-07-30T08:03:15Z</time>
      </trkpt>
      <trkpt lat="46.326211" lon="14.637325">
        <ele>1678.600656</ele>
        <time>2011-07-30T08:03:23Z</time>
      </trkpt>
      <trkpt lat="46.326214" lon="14.637293">
        <ele>1679.079192</ele>
        <time>2011-07-30T08:03:31Z</time>
      </trkpt>
      <trkpt lat="46.326221" lon="14.637265">
        <ele>1679.079192</ele>
        <time>2011-07-30T08:03:39Z</time>
      </trkpt>
      <trkpt lat="46.326232" lon="14.637229">
        <ele>1679.079192</ele>
        <time>2011-07-30T08:03:46Z</time>
      </trkpt>
      <trkpt lat="46.326238" lon="14.637201">
        <ele>1679.560776</ele>
        <time>2011-07-30T08:03:54Z</time>
      </trkpt>
      <trkpt lat="46.326242" lon="14.637168">
        <ele>1679.560776</ele>
        <time>2011-07-30T08:04:01Z</time>
      </trkpt>
      <trkpt lat="46.326253" lon="14.637144">
        <ele>1680.04236</ele>
        <time>2011-07-30T08:04:06Z</time>
      </trkpt>
      <trkpt lat="46.326262" lon="14.637128">
        <ele>1680.520896</ele>
        <time>2011-07-30T08:04:10Z</time>
      </trkpt>
      <trkpt lat="46.326275" lon="14.637111">
        <ele>1681.484064</ele>
        <time>2011-07-30T08:04:17Z</time>
      </trkpt>
      <trkpt lat="46.326281" lon="14.637090">
        <ele>1681.9626</ele>
        <time>2011-07-30T08:04:21Z</time>
      </trkpt>
      <trkpt lat="46.326294" lon="14.637075">
        <ele>1681.9626</ele>
        <time>2011-07-30T08:04:25Z</time>
      </trkpt>
      <trkpt lat="46.326309" lon="14.637076">
        <ele>1682.444184</ele>
        <time>2011-07-30T08:04:30Z</time>
      </trkpt>
      <trkpt lat="46.326331" lon="14.637073">
        <ele>1682.925768</ele>
        <time>2011-07-30T08:04:37Z</time>
      </trkpt>
      <trkpt lat="46.326348" lon="14.637062">
        <ele>1683.885888</ele>
        <time>2011-07-30T08:04:43Z</time>
      </trkpt>
      <trkpt lat="46.326367" lon="14.637043">
        <ele>1685.327592</ele>
        <time>2011-07-30T08:04:52Z</time>
      </trkpt>
      <trkpt lat="46.326381" lon="14.637020">
        <ele>1686.29076</ele>
        <time>2011-07-30T08:05:00Z</time>
      </trkpt>
      <trkpt lat="46.326395" lon="14.637004">
        <ele>1687.25088</ele>
        <time>2011-07-30T08:05:04Z</time>
      </trkpt>
      <trkpt lat="46.326408" lon="14.636991">
        <ele>1688.211</ele>
        <time>2011-07-30T08:05:11Z</time>
      </trkpt>
      <trkpt lat="46.326428" lon="14.636986">
        <ele>1689.174168</ele>
        <time>2011-07-30T08:05:15Z</time>
      </trkpt>
      <trkpt lat="46.326443" lon="14.636979">
        <ele>1689.655752</ele>
        <time>2011-07-30T08:05:20Z</time>
      </trkpt>
      <trkpt lat="46.326460" lon="14.636973">
        <ele>1690.615872</ele>
        <time>2011-07-30T08:05:26Z</time>
      </trkpt>
      <trkpt lat="46.326461" lon="14.636970">
        <ele>1691.575992</ele>
        <time>2011-07-30T08:05:42Z</time>
      </trkpt>
      <trkpt lat="46.326459" lon="14.636966">
        <ele>1692.53916</ele>
        <time>2011-07-30T08:05:50Z</time>
      </trkpt>
      <trkpt lat="46.326458" lon="14.636966">
        <ele>1693.017696</ele>
        <time>2011-07-30T08:05:53Z</time>
      </trkpt>
      <trkpt lat="46.326458" lon="14.636965">
        <ele>1693.017696</ele>
        <time>2011-07-30T08:05:54Z</time>
      </trkpt>
      <trkpt lat="46.326458" lon="14.636959">
        <ele>1694.462448</ele>
        <time>2011-07-30T08:06:14Z</time>
      </trkpt>
      <trkpt lat="46.326453" lon="14.636957">
        <ele>1694.940984</ele>
        <time>2011-07-30T08:06:24Z</time>
      </trkpt>
      <trkpt lat="46.326458" lon="14.636949">
        <ele>1694.462448</ele>
        <time>2011-07-30T08:06:50Z</time>
      </trkpt>
      <trkpt lat="46.326472" lon="14.636942">
        <ele>1694.940984</ele>
        <time>2011-07-30T08:06:55Z</time>
      </trkpt>
      <trkpt lat="46.326480" lon="14.636924">
        <ele>1694.940984</ele>
        <time>2011-07-30T08:07:03Z</time>
      </trkpt>
      <trkpt lat="46.326488" lon="14.636901">
        <ele>1694.940984</ele>
        <time>2011-07-30T08:07:10Z</time>
      </trkpt>
      <trkpt lat="46.326505" lon="14.636897">
        <ele>1694.462448</ele>
        <time>2011-07-30T08:07:15Z</time>
      </trkpt>
      <trkpt lat="46.326535" lon="14.636882">
        <ele>1694.940984</ele>
        <time>2011-07-30T08:07:26Z</time>
      </trkpt>
      <trkpt lat="46.326567" lon="14.636872">
        <ele>1694.940984</ele>
        <time>2011-07-30T08:07:31Z</time>
      </trkpt>
      <trkpt lat="46.326587" lon="14.636870">
        <ele>1694.940984</ele>
        <time>2011-07-30T08:07:38Z</time>
      </trkpt>
      <trkpt lat="46.326605" lon="14.636869">
        <ele>1695.422568</ele>
        <time>2011-07-30T08:07:42Z</time>
      </trkpt>
      <trkpt lat="46.326639" lon="14.636875">
        <ele>1694.940984</ele>
        <time>2011-07-30T08:07:54Z</time>
      </trkpt>
      <trkpt lat="46.326662" lon="14.636877">
        <ele>1695.422568</ele>
        <time>2011-07-30T08:08:00Z</time>
      </trkpt>
      <trkpt lat="46.326688" lon="14.636884">
        <ele>1696.382688</ele>
        <time>2011-07-30T08:08:06Z</time>
      </trkpt>
      <trkpt lat="46.326715" lon="14.636889">
        <ele>1696.864272</ele>
        <time>2011-07-30T08:08:13Z</time>
      </trkpt>
      <trkpt lat="46.326737" lon="14.636895">
        <ele>1697.345856</ele>
        <time>2011-07-30T08:08:19Z</time>
      </trkpt>
      <trkpt lat="46.326761" lon="14.636905">
        <ele>1697.824392</ele>
        <time>2011-07-30T08:08:24Z</time>
      </trkpt>
      <trkpt lat="46.326787" lon="14.636917">
        <ele>1698.305976</ele>
        <time>2011-07-30T08:08:32Z</time>
      </trkpt>
      <trkpt lat="46.326810" lon="14.636924">
        <ele>1698.78756</ele>
        <time>2011-07-30T08:08:38Z</time>
      </trkpt>
      <trkpt lat="46.326834" lon="14.636953">
        <ele>1699.74768</ele>
        <time>2011-07-30T08:08:43Z</time>
      </trkpt>
      <trkpt lat="46.326860" lon="14.636970">
        <ele>1699.74768</ele>
        <time>2011-07-30T08:08:48Z</time>
      </trkpt>
      <trkpt lat="46.326886" lon="14.636955">
        <ele>1700.229264</ele>
        <time>2011-07-30T08:08:55Z</time>
      </trkpt>
      <trkpt lat="46.326906" lon="14.636958">
        <ele>1700.710848</ele>
        <time>2011-07-30T08:08:59Z</time>
      </trkpt>
      <trkpt lat="46.326923" lon="14.636960">
        <ele>1701.189384</ele>
        <time>2011-07-30T08:09:05Z</time>
      </trkpt>
      <trkpt lat="46.326942" lon="14.636967">
        <ele>1701.670968</ele>
        <time>2011-07-30T08:09:11Z</time>
      </trkpt>
      <trkpt lat="46.326983" lon="14.636983">
        <ele>1704.072792</ele>
        <time>2011-07-30T08:09:32Z</time>
      </trkpt>
      <trkpt lat="46.327003" lon="14.636994">
        <ele>1704.072792</ele>
        <time>2011-07-30T08:09:37Z</time>
      </trkpt>
      <trkpt lat="46.327026" lon="14.637004">
        <ele>1704.554376</ele>
        <time>2011-07-30T08:09:44Z</time>
      </trkpt>
      <trkpt lat="46.327063" lon="14.636987">
        <ele>1705.99608</ele>
        <time>2011-07-30T08:09:57Z</time>
      </trkpt>
      <trkpt lat="46.327081" lon="14.636987">
        <ele>1706.477664</ele>
        <time>2011-07-30T08:10:04Z</time>
      </trkpt>
      <trkpt lat="46.327104" lon="14.636988">
        <ele>1707.919368</ele>
        <time>2011-07-30T08:10:12Z</time>
      </trkpt>
      <trkpt lat="46.327124" lon="14.636991">
        <ele>1708.879488</ele>
        <time>2011-07-30T08:10:19Z</time>
      </trkpt>
      <trkpt lat="46.327146" lon="14.636988">
        <ele>1709.842656</ele>
        <time>2011-07-30T08:10:27Z</time>
      </trkpt>
      <trkpt lat="46.327176" lon="14.636970">
        <ele>1711.765944</ele>
        <time>2011-07-30T08:10:39Z</time>
      </trkpt>
      <trkpt lat="46.327201" lon="14.636960">
        <ele>1713.207648</ele>
        <time>2011-07-30T08:10:47Z</time>
      </trkpt>
      <trkpt lat="46.327236" lon="14.636954">
        <ele>1714.167768</ele>
        <time>2011-07-30T08:10:58Z</time>
      </trkpt>
      <trkpt lat="46.327258" lon="14.636955">
        <ele>1714.167768</ele>
        <time>2011-07-30T08:11:05Z</time>
      </trkpt>
      <trkpt lat="46.327282" lon="14.636953">
        <ele>1714.649352</ele>
        <time>2011-07-30T08:11:10Z</time>
      </trkpt>
      <trkpt lat="46.327310" lon="14.636956">
        <ele>1715.127888</ele>
        <time>2011-07-30T08:11:15Z</time>
      </trkpt>
      <trkpt lat="46.327342" lon="14.636956">
        <ele>1715.609472</ele>
        <time>2011-07-30T08:11:25Z</time>
      </trkpt>
      <trkpt lat="46.327366" lon="14.636951">
        <ele>1716.091056</ele>
        <time>2011-07-30T08:11:29Z</time>
      </trkpt>
      <trkpt lat="46.327399" lon="14.636937">
        <ele>1716.091056</ele>
        <time>2011-07-30T08:11:37Z</time>
      </trkpt>
      <trkpt lat="46.327424" lon="14.636925">
        <ele>1716.57264</ele>
        <time>2011-07-30T08:11:42Z</time>
      </trkpt>
      <trkpt lat="46.327454" lon="14.636914">
        <ele>1716.57264</ele>
        <time>2011-07-30T08:11:49Z</time>
      </trkpt>
      <trkpt lat="46.327483" lon="14.636896">
        <ele>1717.051176</ele>
        <time>2011-07-30T08:11:55Z</time>
      </trkpt>
      <trkpt lat="46.327518" lon="14.636875">
        <ele>1718.014344</ele>
        <time>2011-07-30T08:12:03Z</time>
      </trkpt>
      <trkpt lat="46.327532" lon="14.636855">
        <ele>1718.49288</ele>
        <time>2011-07-30T08:12:08Z</time>
      </trkpt>
      <trkpt lat="46.327551" lon="14.636841">
        <ele>1718.014344</ele>
        <time>2011-07-30T08:12:14Z</time>
      </trkpt>
      <trkpt lat="46.327569" lon="14.636831">
        <ele>1718.014344</ele>
        <time>2011-07-30T08:12:19Z</time>
      </trkpt>
      <trkpt lat="46.327599" lon="14.636834">
        <ele>1718.014344</ele>
        <time>2011-07-30T08:12:27Z</time>
      </trkpt>
      <trkpt lat="46.327622" lon="14.636824">
        <ele>1718.974464</ele>
        <time>2011-07-30T08:12:35Z</time>
      </trkpt>
      <trkpt lat="46.327635" lon="14.636830">
        <ele>1719.456048</ele>
        <time>2011-07-30T08:12:41Z</time>
      </trkpt>
      <trkpt lat="46.327642" lon="14.636835">
        <ele>1720.416168</ele>
        <time>2011-07-30T08:12:46Z</time>
      </trkpt>
      <trkpt lat="46.327665" lon="14.636811">
        <ele>1722.339456</ele>
        <time>2011-07-30T08:13:01Z</time>
      </trkpt>
      <trkpt lat="46.327684" lon="14.636795">
        <ele>1722.82104</ele>
        <time>2011-07-30T08:13:05Z</time>
      </trkpt>
      <trkpt lat="46.327698" lon="14.636782">
        <ele>1723.299576</ele>
        <time>2011-07-30T08:13:10Z</time>
      </trkpt>
      <trkpt lat="46.327714" lon="14.636772">
        <ele>1724.262744</ele>
        <time>2011-07-30T08:13:16Z</time>
      </trkpt>
      <trkpt lat="46.327729" lon="14.636768">
        <ele>1724.74128</ele>
        <time>2011-07-30T08:13:18Z</time>
      </trkpt>
      <trkpt lat="46.327748" lon="14.636780">
        <ele>1725.704448</ele>
        <time>2011-07-30T08:13:25Z</time>
      </trkpt>
      <trkpt lat="46.327771" lon="14.636794">
        <ele>1725.704448</ele>
        <time>2011-07-30T08:13:32Z</time>
      </trkpt>
      <trkpt lat="46.327789" lon="14.636809">
        <ele>1726.186032</ele>
        <time>2011-07-30T08:13:37Z</time>
      </trkpt>
      <trkpt lat="46.327816" lon="14.636828">
        <ele>1726.664568</ele>
        <time>2011-07-30T08:13:43Z</time>
      </trkpt>
      <trkpt lat="46.327851" lon="14.636831">
        <ele>1727.627736</ele>
        <time>2011-07-30T08:13:51Z</time>
      </trkpt>
      <trkpt lat="46.327873" lon="14.636831">
        <ele>1728.587856</ele>
        <time>2011-07-30T08:13:57Z</time>
      </trkpt>
      <trkpt lat="46.327895" lon="14.636802">
        <ele>1729.06944</ele>
        <time>2011-07-30T08:14:04Z</time>
      </trkpt>
      <trkpt lat="46.327916" lon="14.636798">
        <ele>1730.02956</ele>
        <time>2011-07-30T08:14:11Z</time>
      </trkpt>
      <trkpt lat="46.327948" lon="14.636794">
        <ele>1730.511144</ele>
        <time>2011-07-30T08:14:19Z</time>
      </trkpt>
      <trkpt lat="46.327978" lon="14.636796">
        <ele>1731.471264</ele>
        <time>2011-07-30T08:14:27Z</time>
      </trkpt>
      <trkpt lat="46.327996" lon="14.636805">
        <ele>1731.952848</ele>
        <time>2011-07-30T08:14:31Z</time>
      </trkpt>
      <trkpt lat="46.328020" lon="14.636806">
        <ele>1731.952848</ele>
        <time>2011-07-30T08:14:38Z</time>
      </trkpt>
      <trkpt lat="46.328032" lon="14.636809">
        <ele>1731.952848</ele>
        <time>2011-07-30T08:14:43Z</time>
      </trkpt>
      <trkpt lat="46.328027" lon="14.636801">
        <ele>1732.434432</ele>
        <time>2011-07-30T08:14:58Z</time>
      </trkpt>
      <trkpt lat="46.328029" lon="14.636801">
        <ele>1732.912968</ele>
        <time>2011-07-30T08:15:20Z</time>
      </trkpt>
      <trkpt lat="46.328028" lon="14.636801">
        <ele>1733.394552</ele>
        <time>2011-07-30T08:15:24Z</time>
      </trkpt>
      <trkpt lat="46.328028" lon="14.636801">
        <ele>1733.394552</ele>
        <time>2011-07-30T08:15:27Z</time>
      </trkpt>
      <trkpt lat="46.328029" lon="14.636806">
        <ele>1733.394552</ele>
        <time>2011-07-30T08:15:32Z</time>
      </trkpt>
      <trkpt lat="46.328034" lon="14.636801">
        <ele>1732.912968</ele>
        <time>2011-07-30T08:15:48Z</time>
      </trkpt>
      <trkpt lat="46.328032" lon="14.636805">
        <ele>1733.394552</ele>
        <time>2011-07-30T08:16:07Z</time>
      </trkpt>
      <trkpt lat="46.328031" lon="14.636803">
        <ele>1733.394552</ele>
        <time>2011-07-30T08:16:11Z</time>
      </trkpt>
      <trkpt lat="46.328025" lon="14.636806">
        <ele>1733.876136</ele>
        <time>2011-07-30T08:16:21Z</time>
      </trkpt>
      <trkpt lat="46.328025" lon="14.636805">
        <ele>1733.876136</ele>
        <time>2011-07-30T08:16:23Z</time>
      </trkpt>
      <trkpt lat="46.328025" lon="14.636800">
        <ele>1734.354672</ele>
        <time>2011-07-30T08:16:35Z</time>
      </trkpt>
      <trkpt lat="46.328025" lon="14.636796">
        <ele>1734.836256</ele>
        <time>2011-07-30T08:17:11Z</time>
      </trkpt>
      <trkpt lat="46.328047" lon="14.636788">
        <ele>1735.31784</ele>
        <time>2011-07-30T08:17:36Z</time>
      </trkpt>
      <trkpt lat="46.328101" lon="14.636787">
        <ele>1734.836256</ele>
        <time>2011-07-30T08:17:43Z</time>
      </trkpt>
      <trkpt lat="46.328139" lon="14.636777">
        <ele>1734.836256</ele>
        <time>2011-07-30T08:17:51Z</time>
      </trkpt>
      <trkpt lat="46.328141" lon="14.636775">
        <ele>1734.836256</ele>
        <time>2011-07-30T08:17:55Z</time>
      </trkpt>
      <trkpt lat="46.328148" lon="14.636765">
        <ele>1734.354672</ele>
        <time>2011-07-30T08:18:06Z</time>
      </trkpt>
      <trkpt lat="46.328178" lon="14.636762">
        <ele>1734.354672</ele>
        <time>2011-07-30T08:18:11Z</time>
      </trkpt>
      <trkpt lat="46.328201" lon="14.636758">
        <ele>1734.354672</ele>
        <time>2011-07-30T08:18:15Z</time>
      </trkpt>
      <trkpt lat="46.328220" lon="14.636742">
        <ele>1734.836256</ele>
        <time>2011-07-30T08:18:21Z</time>
      </trkpt>
      <trkpt lat="46.328245" lon="14.636726">
        <ele>1735.31784</ele>
        <time>2011-07-30T08:18:26Z</time>
      </trkpt>
      <trkpt lat="46.328266" lon="14.636714">
        <ele>1735.31784</ele>
        <time>2011-07-30T08:18:33Z</time>
      </trkpt>
      <trkpt lat="46.328299" lon="14.636711">
        <ele>1735.796376</ele>
        <time>2011-07-30T08:18:38Z</time>
      </trkpt>
      <trkpt lat="46.328325" lon="14.636710">
        <ele>1736.27796</ele>
        <time>2011-07-30T08:18:45Z</time>
      </trkpt>
      <trkpt lat="46.328341" lon="14.636698">
        <ele>1737.23808</ele>
        <time>2011-07-30T08:18:50Z</time>
      </trkpt>
      <trkpt lat="46.328365" lon="14.636680">
        <ele>1737.719664</ele>
        <time>2011-07-30T08:18:57Z</time>
      </trkpt>
      <trkpt lat="46.328392" lon="14.636674">
        <ele>1738.682832</ele>
        <time>2011-07-30T08:19:04Z</time>
      </trkpt>
      <trkpt lat="46.328398" lon="14.636670">
        <ele>1738.682832</ele>
        <time>2011-07-30T08:19:05Z</time>
      </trkpt>
      <trkpt lat="46.328423" lon="14.636649">
        <ele>1739.161368</ele>
        <time>2011-07-30T08:19:11Z</time>
      </trkpt>
      <trkpt lat="46.328441" lon="14.636637">
        <ele>1739.642952</ele>
        <time>2011-07-30T08:19:16Z</time>
      </trkpt>
      <trkpt lat="46.328465" lon="14.636632">
        <ele>1740.603072</ele>
        <time>2011-07-30T08:19:21Z</time>
      </trkpt>
      <trkpt lat="46.328484" lon="14.636626">
        <ele>1741.56624</ele>
        <time>2011-07-30T08:19:27Z</time>
      </trkpt>
      <trkpt lat="46.328524" lon="14.636615">
        <ele>1743.007944</ele>
        <time>2011-07-30T08:19:38Z</time>
      </trkpt>
      <trkpt lat="46.328543" lon="14.636613">
        <ele>1744.449648</ele>
        <time>2011-07-30T08:19:43Z</time>
      </trkpt>
      <trkpt lat="46.328566" lon="14.636625">
        <ele>1744.449648</ele>
        <time>2011-07-30T08:19:47Z</time>
      </trkpt>
      <trkpt lat="46.328583" lon="14.636639">
        <ele>1744.931232</ele>
        <time>2011-07-30T08:19:54Z</time>
      </trkpt>
      <trkpt lat="46.328605" lon="14.636644">
        <ele>1745.409768</ele>
        <time>2011-07-30T08:19:59Z</time>
      </trkpt>
      <trkpt lat="46.328622" lon="14.636656">
        <ele>1746.372936</ele>
        <time>2011-07-30T08:20:05Z</time>
      </trkpt>
      <trkpt lat="46.328638" lon="14.636673">
        <ele>1746.851472</ele>
        <time>2011-07-30T08:20:10Z</time>
      </trkpt>
      <trkpt lat="46.328657" lon="14.636680">
        <ele>1747.333056</ele>
        <time>2011-07-30T08:20:14Z</time>
      </trkpt>
      <trkpt lat="46.328670" lon="14.636680">
        <ele>1747.81464</ele>
        <time>2011-07-30T08:20:18Z</time>
      </trkpt>
      <trkpt lat="46.328689" lon="14.636683">
        <ele>1749.256344</ele>
        <time>2011-07-30T08:20:25Z</time>
      </trkpt>
      <trkpt lat="46.328707" lon="14.636703">
        <ele>1750.698048</ele>
        <time>2011-07-30T08:20:37Z</time>
      </trkpt>
      <trkpt lat="46.328728" lon="14.636720">
        <ele>1750.698048</ele>
        <time>2011-07-30T08:20:41Z</time>
      </trkpt>
      <trkpt lat="46.328748" lon="14.636740">
        <ele>1751.658168</ele>
        <time>2011-07-30T08:20:48Z</time>
      </trkpt>
      <trkpt lat="46.328769" lon="14.636766">
        <ele>1752.139752</ele>
        <time>2011-07-30T08:20:52Z</time>
      </trkpt>
      <trkpt lat="46.328782" lon="14.636796">
        <ele>1753.099872</ele>
        <time>2011-07-30T08:20:57Z</time>
      </trkpt>
      <trkpt lat="46.328801" lon="14.636830">
        <ele>1753.581456</ele>
        <time>2011-07-30T08:21:04Z</time>
      </trkpt>
      <trkpt lat="46.328824" lon="14.636845">
        <ele>1754.06304</ele>
        <time>2011-07-30T08:21:11Z</time>
      </trkpt>
      <trkpt lat="46.328840" lon="14.636859">
        <ele>1754.544624</ele>
        <time>2011-07-30T08:21:15Z</time>
      </trkpt>
      <trkpt lat="46.328853" lon="14.636865">
        <ele>1755.02316</ele>
        <time>2011-07-30T08:21:19Z</time>
      </trkpt>
      <trkpt lat="46.328871" lon="14.636868">
        <ele>1755.986328</ele>
        <time>2011-07-30T08:21:24Z</time>
      </trkpt>
      <trkpt lat="46.328895" lon="14.636878">
        <ele>1756.464864</ele>
        <time>2011-07-30T08:21:31Z</time>
      </trkpt>
      <trkpt lat="46.328915" lon="14.636895">
        <ele>1756.946448</ele>
        <time>2011-07-30T08:21:38Z</time>
      </trkpt>
      <trkpt lat="46.328935" lon="14.636904">
        <ele>1756.946448</ele>
        <time>2011-07-30T08:21:42Z</time>
      </trkpt>
      <trkpt lat="46.328945" lon="14.636916">
        <ele>1757.909616</ele>
        <time>2011-07-30T08:21:46Z</time>
      </trkpt>
      <trkpt lat="46.328974" lon="14.636962">
        <ele>1757.909616</ele>
        <time>2011-07-30T08:21:51Z</time>
      </trkpt>
      <trkpt lat="46.329004" lon="14.636989">
        <ele>1757.909616</ele>
        <time>2011-07-30T08:21:58Z</time>
      </trkpt>
      <trkpt lat="46.329017" lon="14.636997">
        <ele>1758.388152</ele>
        <time>2011-07-30T08:22:02Z</time>
      </trkpt>
      <trkpt lat="46.329037" lon="14.637006">
        <ele>1759.35132</ele>
        <time>2011-07-30T08:22:06Z</time>
      </trkpt>
      <trkpt lat="46.329059" lon="14.637011">
        <ele>1759.829856</ele>
        <time>2011-07-30T08:22:13Z</time>
      </trkpt>
      <trkpt lat="46.329074" lon="14.637019">
        <ele>1760.31144</ele>
        <time>2011-07-30T08:22:18Z</time>
      </trkpt>
      <trkpt lat="46.329095" lon="14.637011">
        <ele>1761.27156</ele>
        <time>2011-07-30T08:22:25Z</time>
      </trkpt>
      <trkpt lat="46.329126" lon="14.637006">
        <ele>1762.713264</ele>
        <time>2011-07-30T08:22:33Z</time>
      </trkpt>
      <trkpt lat="46.329144" lon="14.637021">
        <ele>1763.676432</ele>
        <time>2011-07-30T08:22:40Z</time>
      </trkpt>
      <trkpt lat="46.329169" lon="14.637033">
        <ele>1765.118136</ele>
        <time>2011-07-30T08:22:48Z</time>
      </trkpt>
      <trkpt lat="46.329185" lon="14.637031">
        <ele>1766.078256</ele>
        <time>2011-07-30T08:22:55Z</time>
      </trkpt>
      <trkpt lat="46.329201" lon="14.637034">
        <ele>1767.041424</ele>
        <time>2011-07-30T08:23:00Z</time>
      </trkpt>
      <trkpt lat="46.329223" lon="14.637019">
        <ele>1769.443248</ele>
        <time>2011-07-30T08:23:10Z</time>
      </trkpt>
      <trkpt lat="46.329241" lon="14.637007">
        <ele>1770.406416</ele>
        <time>2011-07-30T08:23:20Z</time>
      </trkpt>
      <trkpt lat="46.329260" lon="14.637015">
        <ele>1771.366536</ele>
        <time>2011-07-30T08:23:29Z</time>
      </trkpt>
      <trkpt lat="46.329276" lon="14.637021">
        <ele>1771.84812</ele>
        <time>2011-07-30T08:23:34Z</time>
      </trkpt>
      <trkpt lat="46.329300" lon="14.637035">
        <ele>1773.289824</ele>
        <time>2011-07-30T08:23:41Z</time>
      </trkpt>
      <trkpt lat="46.329320" lon="14.637043">
        <ele>1773.76836</ele>
        <time>2011-07-30T08:23:46Z</time>
      </trkpt>
      <trkpt lat="46.329332" lon="14.637069">
        <ele>1774.731528</ele>
        <time>2011-07-30T08:23:54Z</time>
      </trkpt>
      <trkpt lat="46.329370" lon="14.637073">
        <ele>1774.249944</ele>
        <time>2011-07-30T08:24:44Z</time>
      </trkpt>
      <trkpt lat="46.329388" lon="14.637098">
        <ele>1773.76836</ele>
        <time>2011-07-30T08:24:52Z</time>
      </trkpt>
      <trkpt lat="46.329400" lon="14.637109">
        <ele>1773.76836</ele>
        <time>2011-07-30T08:24:55Z</time>
      </trkpt>
      <trkpt lat="46.329425" lon="14.637117">
        <ele>1773.76836</ele>
        <time>2011-07-30T08:24:59Z</time>
      </trkpt>
      <trkpt lat="46.329445" lon="14.637128">
        <ele>1774.249944</ele>
        <time>2011-07-30T08:25:04Z</time>
      </trkpt>
      <trkpt lat="46.329454" lon="14.637131">
        <ele>1774.249944</ele>
        <time>2011-07-30T08:25:11Z</time>
      </trkpt>
      <trkpt lat="46.329482" lon="14.637150">
        <ele>1773.289824</ele>
        <time>2011-07-30T08:25:29Z</time>
      </trkpt>
      <trkpt lat="46.329501" lon="14.637163">
        <ele>1773.76836</ele>
        <time>2011-07-30T08:25:33Z</time>
      </trkpt>
      <trkpt lat="46.329522" lon="14.637177">
        <ele>1773.76836</ele>
        <time>2011-07-30T08:25:38Z</time>
      </trkpt>
      <trkpt lat="46.329541" lon="14.637195">
        <ele>1773.76836</ele>
        <time>2011-07-30T08:25:44Z</time>
      </trkpt>
      <trkpt lat="46.329567" lon="14.637223">
        <ele>1775.691648</ele>
        <time>2011-07-30T08:26:13Z</time>
      </trkpt>
      <trkpt lat="46.329582" lon="14.637260">
        <ele>1776.654816</ele>
        <time>2011-07-30T08:26:19Z</time>
      </trkpt>
      <trkpt lat="46.329595" lon="14.637282">
        <ele>1778.09652</ele>
        <time>2011-07-30T08:26:24Z</time>
      </trkpt>
      <trkpt lat="46.329616" lon="14.637298">
        <ele>1779.538224</ele>
        <time>2011-07-30T08:26:28Z</time>
      </trkpt>
      <trkpt lat="46.329634" lon="14.637307">
        <ele>1780.979928</ele>
        <time>2011-07-30T08:26:33Z</time>
      </trkpt>
      <trkpt lat="46.329654" lon="14.637316">
        <ele>1781.940048</ele>
        <time>2011-07-30T08:26:39Z</time>
      </trkpt>
      <trkpt lat="46.329668" lon="14.637321">
        <ele>1782.903216</ele>
        <time>2011-07-30T08:26:43Z</time>
      </trkpt>
      <trkpt lat="46.329701" lon="14.637324">
        <ele>1784.34492</ele>
        <time>2011-07-30T08:26:51Z</time>
      </trkpt>
      <trkpt lat="46.329723" lon="14.637340">
        <ele>1784.823456</ele>
        <time>2011-07-30T08:26:56Z</time>
      </trkpt>
      <trkpt lat="46.329736" lon="14.637347">
        <ele>1785.30504</ele>
        <time>2011-07-30T08:27:02Z</time>
      </trkpt>
      <trkpt lat="46.329755" lon="14.637354">
        <ele>1786.268208</ele>
        <time>2011-07-30T08:27:06Z</time>
      </trkpt>
      <trkpt lat="46.329776" lon="14.637362">
        <ele>1787.228328</ele>
        <time>2011-07-30T08:27:11Z</time>
      </trkpt>
      <trkpt lat="46.329794" lon="14.637360">
        <ele>1788.188448</ele>
        <time>2011-07-30T08:27:18Z</time>
      </trkpt>
      <trkpt lat="46.329811" lon="14.637370">
        <ele>1789.151616</ele>
        <time>2011-07-30T08:27:23Z</time>
      </trkpt>
      <trkpt lat="46.329833" lon="14.637389">
        <ele>1790.111736</ele>
        <time>2011-07-30T08:27:30Z</time>
      </trkpt>
      <trkpt lat="46.329850" lon="14.637412">
        <ele>1791.074904</ele>
        <time>2011-07-30T08:27:36Z</time>
      </trkpt>
      <trkpt lat="46.329853" lon="14.637448">
        <ele>1792.516608</ele>
        <time>2011-07-30T08:27:41Z</time>
      </trkpt>
      <trkpt lat="46.329869" lon="14.637480">
        <ele>1792.995144</ele>
        <time>2011-07-30T08:27:48Z</time>
      </trkpt>
      <trkpt lat="46.329895" lon="14.637488">
        <ele>1794.436848</ele>
        <time>2011-07-30T08:27:53Z</time>
      </trkpt>
      <trkpt lat="46.329916" lon="14.637503">
        <ele>1795.400016</ele>
        <time>2011-07-30T08:28:00Z</time>
      </trkpt>
      <trkpt lat="46.329940" lon="14.637519">
        <ele>1796.360136</ele>
        <time>2011-07-30T08:28:05Z</time>
      </trkpt>
      <trkpt lat="46.329963" lon="14.637525">
        <ele>1797.323304</ele>
        <time>2011-07-30T08:28:12Z</time>
      </trkpt>
      <trkpt lat="46.329986" lon="14.637559">
        <ele>1797.80184</ele>
        <time>2011-07-30T08:28:19Z</time>
      </trkpt>
      <trkpt lat="46.330007" lon="14.637570">
        <ele>1798.765008</ele>
        <time>2011-07-30T08:28:26Z</time>
      </trkpt>
      <trkpt lat="46.330031" lon="14.637577">
        <ele>1799.243544</ele>
        <time>2011-07-30T08:28:30Z</time>
      </trkpt>
      <trkpt lat="46.330050" lon="14.637586">
        <ele>1799.243544</ele>
        <time>2011-07-30T08:28:34Z</time>
      </trkpt>
      <trkpt lat="46.330092" lon="14.637605">
        <ele>1800.206712</ele>
        <time>2011-07-30T08:28:40Z</time>
      </trkpt>
      <trkpt lat="46.330117" lon="14.637608">
        <ele>1800.685248</ele>
        <time>2011-07-30T08:28:46Z</time>
      </trkpt>
      <trkpt lat="46.330157" lon="14.637607">
        <ele>1801.166832</ele>
        <time>2011-07-30T08:28:53Z</time>
      </trkpt>
      <trkpt lat="46.330182" lon="14.637611">
        <ele>1801.648416</ele>
        <time>2011-07-30T08:28:57Z</time>
      </trkpt>
      <trkpt lat="46.330207" lon="14.637616">
        <ele>1802.126952</ele>
        <time>2011-07-30T08:29:02Z</time>
      </trkpt>
      <trkpt lat="46.330245" lon="14.637612">
        <ele>1802.126952</ele>
        <time>2011-07-30T08:29:07Z</time>
      </trkpt>
      <trkpt lat="46.330276" lon="14.637600">
        <ele>1802.126952</ele>
        <time>2011-07-30T08:29:14Z</time>
      </trkpt>
      <trkpt lat="46.330299" lon="14.637584">
        <ele>1802.608536</ele>
        <time>2011-07-30T08:29:20Z</time>
      </trkpt>
      <trkpt lat="46.330325" lon="14.637570">
        <ele>1803.571704</ele>
        <time>2011-07-30T08:29:25Z</time>
      </trkpt>
      <trkpt lat="46.330345" lon="14.637565">
        <ele>1804.531824</ele>
        <time>2011-07-30T08:29:29Z</time>
      </trkpt>
      <trkpt lat="46.330369" lon="14.637568">
        <ele>1806.936696</ele>
        <time>2011-07-30T08:29:40Z</time>
      </trkpt>
      <trkpt lat="46.330390" lon="14.637522">
        <ele>1808.856936</ele>
        <time>2011-07-30T08:29:51Z</time>
      </trkpt>
      <trkpt lat="46.330390" lon="14.637520">
        <ele>1810.780224</ele>
        <time>2011-07-30T08:30:00Z</time>
      </trkpt>
      <trkpt lat="46.330376" lon="14.637549">
        <ele>1810.780224</ele>
        <time>2011-07-30T08:30:04Z</time>
      </trkpt>
      <trkpt lat="46.330371" lon="14.637568">
        <ele>1811.261808</ele>
        <time>2011-07-30T08:30:11Z</time>
      </trkpt>
      <trkpt lat="46.330360" lon="14.637569">
        <ele>1811.743392</ele>
        <time>2011-07-30T08:30:16Z</time>
      </trkpt>
      <trkpt lat="46.330343" lon="14.637569">
        <ele>1811.261808</ele>
        <time>2011-07-30T08:30:19Z</time>
      </trkpt>
      <trkpt lat="46.330328" lon="14.637580">
        <ele>1811.261808</ele>
        <time>2011-07-30T08:30:24Z</time>
      </trkpt>
      <trkpt lat="46.330285" lon="14.637609">
        <ele>1809.820104</ele>
        <time>2011-07-30T08:30:31Z</time>
      </trkpt>
      <trkpt lat="46.330261" lon="14.637613">
        <ele>1809.33852</ele>
        <time>2011-07-30T08:30:39Z</time>
      </trkpt>
      <trkpt lat="46.330253" lon="14.637606">
        <ele>1808.856936</ele>
        <time>2011-07-30T08:30:47Z</time>
      </trkpt>
      <trkpt lat="46.330261" lon="14.637606">
        <ele>1808.856936</ele>
        <time>2011-07-30T08:30:54Z</time>
      </trkpt>
      <trkpt lat="46.330263" lon="14.637608">
        <ele>1808.856936</ele>
        <time>2011-07-30T08:30:55Z</time>
      </trkpt>
      <trkpt lat="46.330266" lon="14.637609">
        <ele>1809.33852</ele>
        <time>2011-07-30T08:30:58Z</time>
      </trkpt>
      <trkpt lat="46.330269" lon="14.637611">
        <ele>1809.33852</ele>
        <time>2011-07-30T08:31:02Z</time>
      </trkpt>
      <trkpt lat="46.330268" lon="14.637606">
        <ele>1808.856936</ele>
        <time>2011-07-30T08:31:10Z</time>
      </trkpt>
      <trkpt lat="46.330266" lon="14.637605">
        <ele>1808.3784</ele>
        <time>2011-07-30T08:31:20Z</time>
      </trkpt>
      <trkpt lat="46.330271" lon="14.637601">
        <ele>1808.856936</ele>
        <time>2011-07-30T08:31:25Z</time>
      </trkpt>
      <trkpt lat="46.330281" lon="14.637599">
        <ele>1808.856936</ele>
        <time>2011-07-30T08:31:28Z</time>
      </trkpt>
      <trkpt lat="46.330300" lon="14.637589">
        <ele>1809.33852</ele>
        <time>2011-07-30T08:31:33Z</time>
      </trkpt>
      <trkpt lat="46.330323" lon="14.637569">
        <ele>1809.820104</ele>
        <time>2011-07-30T08:31:40Z</time>
      </trkpt>
      <trkpt lat="46.330344" lon="14.637555">
        <ele>1810.29864</ele>
        <time>2011-07-30T08:31:44Z</time>
      </trkpt>
      <trkpt lat="46.330372" lon="14.637543">
        <ele>1810.29864</ele>
        <time>2011-07-30T08:31:51Z</time>
      </trkpt>
      <trkpt lat="46.330389" lon="14.637553">
        <ele>1811.261808</ele>
        <time>2011-07-30T08:31:59Z</time>
      </trkpt>
      <trkpt lat="46.330403" lon="14.637562">
        <ele>1812.221928</ele>
        <time>2011-07-30T08:32:04Z</time>
      </trkpt>
      <trkpt lat="46.330425" lon="14.637580">
        <ele>1813.663632</ele>
        <time>2011-07-30T08:32:11Z</time>
      </trkpt>
      <trkpt lat="46.330449" lon="14.637581">
        <ele>1814.6268</ele>
        <time>2011-07-30T08:32:16Z</time>
      </trkpt>
      <trkpt lat="46.330470" lon="14.637601">
        <ele>1815.105336</ele>
        <time>2011-07-30T08:32:22Z</time>
      </trkpt>
      <trkpt lat="46.330485" lon="14.637633">
        <ele>1815.105336</ele>
        <time>2011-07-30T08:32:27Z</time>
      </trkpt>
      <trkpt lat="46.330492" lon="14.637650">
        <ele>1816.068504</ele>
        <time>2011-07-30T08:32:35Z</time>
      </trkpt>
      <trkpt lat="46.330504" lon="14.637659">
        <ele>1817.988744</ele>
        <time>2011-07-30T08:33:17Z</time>
      </trkpt>
      <trkpt lat="46.330555" lon="14.637669">
        <ele>1817.988744</ele>
        <time>2011-07-30T08:33:24Z</time>
      </trkpt>
      <trkpt lat="46.330590" lon="14.637689">
        <ele>1817.028624</ele>
        <time>2011-07-30T08:33:28Z</time>
      </trkpt>
      <trkpt lat="46.330643" lon="14.637708">
        <ele>1816.54704</ele>
        <time>2011-07-30T08:33:35Z</time>
      </trkpt>
      <trkpt lat="46.330665" lon="14.637719">
        <ele>1816.54704</ele>
        <time>2011-07-30T08:33:39Z</time>
      </trkpt>
      <trkpt lat="46.330712" lon="14.637705">
        <ele>1816.54704</ele>
        <time>2011-07-30T08:33:44Z</time>
      </trkpt>
      <trkpt lat="46.330746" lon="14.637691">
        <ele>1816.068504</ele>
        <time>2011-07-30T08:33:48Z</time>
      </trkpt>
      <trkpt lat="46.330793" lon="14.637681">
        <ele>1817.028624</ele>
        <time>2011-07-30T08:33:55Z</time>
      </trkpt>
      <trkpt lat="46.330827" lon="14.637662">
        <ele>1817.510208</ele>
        <time>2011-07-30T08:34:02Z</time>
      </trkpt>
      <trkpt lat="46.330847" lon="14.637652">
        <ele>1817.510208</ele>
        <time>2011-07-30T08:34:07Z</time>
      </trkpt>
      <trkpt lat="46.330857" lon="14.637635">
        <ele>1817.988744</ele>
        <time>2011-07-30T08:34:17Z</time>
      </trkpt>
      <trkpt lat="46.330875" lon="14.637617">
        <ele>1818.470328</ele>
        <time>2011-07-30T08:34:22Z</time>
      </trkpt>
      <trkpt lat="46.330889" lon="14.637600">
        <ele>1818.951912</ele>
        <time>2011-07-30T08:34:26Z</time>
      </trkpt>
      <trkpt lat="46.330907" lon="14.637577">
        <ele>1819.433496</ele>
        <time>2011-07-30T08:34:31Z</time>
      </trkpt>
      <trkpt lat="46.330928" lon="14.637589">
        <ele>1818.470328</ele>
        <time>2011-07-30T08:34:38Z</time>
      </trkpt>
      <trkpt lat="46.330924" lon="14.637588">
        <ele>1818.951912</ele>
        <time>2011-07-30T08:34:46Z</time>
      </trkpt>
      <trkpt lat="46.330924" lon="14.637592">
        <ele>1819.433496</ele>
        <time>2011-07-30T08:34:57Z</time>
      </trkpt>
      <trkpt lat="46.330927" lon="14.637593">
        <ele>1819.433496</ele>
        <time>2011-07-30T08:35:02Z</time>
      </trkpt>
      <trkpt lat="46.330929" lon="14.637591">
        <ele>1819.433496</ele>
        <time>2011-07-30T08:35:09Z</time>
      </trkpt>
      <trkpt lat="46.330934" lon="14.637590">
        <ele>1818.951912</ele>
        <time>2011-07-30T08:35:39Z</time>
      </trkpt>
      <trkpt lat="46.330939" lon="14.637583">
        <ele>1818.951912</ele>
        <time>2011-07-30T08:36:41Z</time>
      </trkpt>
      <trkpt lat="46.330956" lon="14.637589">
        <ele>1818.951912</ele>
        <time>2011-07-30T08:37:16Z</time>
      </trkpt>
      <trkpt lat="46.330953" lon="14.637599">
        <ele>1818.951912</ele>
        <time>2011-07-30T08:37:23Z</time>
      </trkpt>
      <trkpt lat="46.330948" lon="14.637598">
        <ele>1817.988744</ele>
        <time>2011-07-30T08:37:46Z</time>
      </trkpt>
      <trkpt lat="46.330945" lon="14.637594">
        <ele>1818.470328</ele>
        <time>2011-07-30T08:37:54Z</time>
      </trkpt>
      <trkpt lat="46.330935" lon="14.637593">
        <ele>1819.433496</ele>
        <time>2011-07-30T08:38:09Z</time>
      </trkpt>
      <trkpt lat="46.330941" lon="14.637594">
        <ele>1818.951912</ele>
        <time>2011-07-30T08:38:18Z</time>
      </trkpt>
      <trkpt lat="46.330938" lon="14.637585">
        <ele>1818.470328</ele>
        <time>2011-07-30T08:38:29Z</time>
      </trkpt>
      <trkpt lat="46.330934" lon="14.637583">
        <ele>1818.951912</ele>
        <time>2011-07-30T08:38:42Z</time>
      </trkpt>
      <trkpt lat="46.330929" lon="14.637584">
        <ele>1818.470328</ele>
        <time>2011-07-30T08:39:11Z</time>
      </trkpt>
      <trkpt lat="46.330929" lon="14.637583">
        <ele>1818.951912</ele>
        <time>2011-07-30T08:39:12Z</time>
      </trkpt>
      <trkpt lat="46.330931" lon="14.637584">
        <ele>1818.470328</ele>
        <time>2011-07-30T08:39:18Z</time>
      </trkpt>
      <trkpt lat="46.330922" lon="14.637579">
        <ele>1818.951912</ele>
        <time>2011-07-30T08:39:27Z</time>
      </trkpt>
      <trkpt lat="46.330921" lon="14.637577">
        <ele>1818.951912</ele>
        <time>2011-07-30T08:39:31Z</time>
      </trkpt>
      <trkpt lat="46.330931" lon="14.637585">
        <ele>1819.912032</ele>
        <time>2011-07-30T08:40:01Z</time>
      </trkpt>
      <trkpt lat="46.330931" lon="14.637587">
        <ele>1819.433496</ele>
        <time>2011-07-30T08:40:14Z</time>
      </trkpt>
      <trkpt lat="46.330931" lon="14.637587">
        <ele>1819.433496</ele>
        <time>2011-07-30T08:40:17Z</time>
      </trkpt>
      <trkpt lat="46.330933" lon="14.637583">
        <ele>1819.433496</ele>
        <time>2011-07-30T08:40:36Z</time>
      </trkpt>
      <trkpt lat="46.330933" lon="14.637581">
        <ele>1818.951912</ele>
        <time>2011-07-30T08:40:44Z</time>
      </trkpt>
      <trkpt lat="46.330938" lon="14.637584">
        <ele>1818.470328</ele>
        <time>2011-07-30T08:40:59Z</time>
      </trkpt>
      <trkpt lat="46.330937" lon="14.637585">
        <ele>1818.470328</ele>
        <time>2011-07-30T08:41:10Z</time>
      </trkpt>
      <trkpt lat="46.330937" lon="14.637580">
        <ele>1818.951912</ele>
        <time>2011-07-30T08:41:26Z</time>
      </trkpt>
      <trkpt lat="46.330932" lon="14.637596">
        <ele>1819.433496</ele>
        <time>2011-07-30T08:41:34Z</time>
      </trkpt>
      <trkpt lat="46.330925" lon="14.637595">
        <ele>1819.433496</ele>
        <time>2011-07-30T08:41:42Z</time>
      </trkpt>
      <trkpt lat="46.330929" lon="14.637594">
        <ele>1818.951912</ele>
        <time>2011-07-30T08:41:56Z</time>
      </trkpt>
      <trkpt lat="46.330929" lon="14.637589">
        <ele>1818.951912</ele>
        <time>2011-07-30T08:41:58Z</time>
      </trkpt>
      <trkpt lat="46.330929" lon="14.637588">
        <ele>1818.951912</ele>
        <time>2011-07-30T08:41:58Z</time>
      </trkpt>
      <trkpt lat="46.330914" lon="14.637584">
        <ele>1819.433496</ele>
        <time>2011-07-30T08:42:02Z</time>
      </trkpt>
      <trkpt lat="46.330903" lon="14.637594">
        <ele>1818.951912</ele>
        <time>2011-07-30T08:42:09Z</time>
      </trkpt>
      <trkpt lat="46.330899" lon="14.637596">
        <ele>1817.988744</ele>
        <time>2011-07-30T08:42:16Z</time>
      </trkpt>
      <trkpt lat="46.330899" lon="14.637599">
        <ele>1818.470328</ele>
        <time>2011-07-30T08:42:23Z</time>
      </trkpt>
      <trkpt lat="46.330900" lon="14.637598">
        <ele>1818.470328</ele>
        <time>2011-07-30T08:42:27Z</time>
      </trkpt>
      <trkpt lat="46.330900" lon="14.637597">
        <ele>1817.988744</ele>
        <time>2011-07-30T08:42:33Z</time>
      </trkpt>
      <trkpt lat="46.330904" lon="14.637589">
        <ele>1817.988744</ele>
        <time>2011-07-30T08:42:39Z</time>
      </trkpt>
      <trkpt lat="46.330914" lon="14.637576">
        <ele>1817.988744</ele>
        <time>2011-07-30T08:42:43Z</time>
      </trkpt>
      <trkpt lat="46.330924" lon="14.637580">
        <ele>1817.988744</ele>
        <time>2011-07-30T08:42:47Z</time>
      </trkpt>
      <trkpt lat="46.330930" lon="14.637591">
        <ele>1817.988744</ele>
        <time>2011-07-30T08:42:52Z</time>
      </trkpt>
      <trkpt lat="46.330942" lon="14.637600">
        <ele>1818.470328</ele>
        <time>2011-07-30T08:42:59Z</time>
      </trkpt>
      <trkpt lat="46.330935" lon="14.637596">
        <ele>1818.470328</ele>
        <time>2011-07-30T08:43:07Z</time>
      </trkpt>
      <trkpt lat="46.330925" lon="14.637589">
        <ele>1817.988744</ele>
        <time>2011-07-30T08:43:22Z</time>
      </trkpt>
      <trkpt lat="46.330931" lon="14.637590">
        <ele>1817.988744</ele>
        <time>2011-07-30T08:43:38Z</time>
      </trkpt>
      <trkpt lat="46.330940" lon="14.637593">
        <ele>1817.988744</ele>
        <time>2011-07-30T08:44:00Z</time>
      </trkpt>
      <trkpt lat="46.330937" lon="14.637603">
        <ele>1817.988744</ele>
        <time>2011-07-30T08:44:15Z</time>
      </trkpt>
      <trkpt lat="46.330938" lon="14.637602">
        <ele>1817.988744</ele>
        <time>2011-07-30T08:44:28Z</time>
      </trkpt>
      <trkpt lat="46.330936" lon="14.637600">
        <ele>1817.510208</ele>
        <time>2011-07-30T08:44:36Z</time>
      </trkpt>
      <trkpt lat="46.330938" lon="14.637602">
        <ele>1817.988744</ele>
        <time>2011-07-30T08:44:47Z</time>
      </trkpt>
      <trkpt lat="46.330939" lon="14.637602">
        <ele>1817.988744</ele>
        <time>2011-07-30T08:45:02Z</time>
      </trkpt>
      <trkpt lat="46.330931" lon="14.637597">
        <ele>1817.988744</ele>
        <time>2011-07-30T08:45:25Z</time>
      </trkpt>
      <trkpt lat="46.330912" lon="14.637605">
        <ele>1818.470328</ele>
        <time>2011-07-30T08:45:33Z</time>
      </trkpt>
      <trkpt lat="46.330908" lon="14.637607">
        <ele>1818.470328</ele>
        <time>2011-07-30T08:45:42Z</time>
      </trkpt>
      <trkpt lat="46.330916" lon="14.637596">
        <ele>1818.470328</ele>
        <time>2011-07-30T08:45:50Z</time>
      </trkpt>
      <trkpt lat="46.330930" lon="14.637578">
        <ele>1818.470328</ele>
        <time>2011-07-30T08:45:57Z</time>
      </trkpt>
      <trkpt lat="46.330949" lon="14.637589">
        <ele>1818.470328</ele>
        <time>2011-07-30T08:46:01Z</time>
      </trkpt>
      <trkpt lat="46.330938" lon="14.637592">
        <ele>1817.988744</ele>
        <time>2011-07-30T08:46:11Z</time>
      </trkpt>
      <trkpt lat="46.330925" lon="14.637593">
        <ele>1817.988744</ele>
        <time>2011-07-30T08:46:17Z</time>
      </trkpt>
      <trkpt lat="46.330922" lon="14.637585">
        <ele>1817.510208</ele>
        <time>2011-07-30T08:46:47Z</time>
      </trkpt>
      <trkpt lat="46.330918" lon="14.637588">
        <ele>1817.988744</ele>
        <time>2011-07-30T08:46:55Z</time>
      </trkpt>
      <trkpt lat="46.330917" lon="14.637589">
        <ele>1817.988744</ele>
        <time>2011-07-30T08:47:02Z</time>
      </trkpt>
      <trkpt lat="46.330919" lon="14.637588">
        <ele>1817.510208</ele>
        <time>2011-07-30T08:47:10Z</time>
      </trkpt>
      <trkpt lat="46.330921" lon="14.637590">
        <ele>1817.510208</ele>
        <time>2011-07-30T08:47:28Z</time>
      </trkpt>
      <trkpt lat="46.330920" lon="14.637589">
        <ele>1817.988744</ele>
        <time>2011-07-30T08:48:05Z</time>
      </trkpt>
      <trkpt lat="46.330914" lon="14.637583">
        <ele>1817.510208</ele>
        <time>2011-07-30T08:48:19Z</time>
      </trkpt>
      <trkpt lat="46.330911" lon="14.637582">
        <ele>1817.510208</ele>
        <time>2011-07-30T08:48:19Z</time>
      </trkpt>
      <trkpt lat="46.330912" lon="14.637582">
        <ele>1817.028624</ele>
        <time>2011-07-30T08:49:17Z</time>
      </trkpt>
      <trkpt lat="46.330911" lon="14.637584">
        <ele>1817.028624</ele>
        <time>2011-07-30T08:49:30Z</time>
      </trkpt>
      <trkpt lat="46.330911" lon="14.637587">
        <ele>1817.028624</ele>
        <time>2011-07-30T08:49:51Z</time>
      </trkpt>
      <trkpt lat="46.330911" lon="14.637588">
        <ele>1817.028624</ele>
        <time>2011-07-30T08:50:04Z</time>
      </trkpt>
      <trkpt lat="46.330910" lon="14.637591">
        <ele>1817.510208</ele>
        <time>2011-07-30T08:50:43Z</time>
      </trkpt>
      <trkpt lat="46.330910" lon="14.637592">
        <ele>1817.510208</ele>
        <time>2011-07-30T08:51:06Z</time>
      </trkpt>
      <trkpt lat="46.330910" lon="14.637593">
        <ele>1817.510208</ele>
        <time>2011-07-30T08:51:28Z</time>
      </trkpt>
      <trkpt lat="46.330909" lon="14.637597">
        <ele>1816.54704</ele>
        <time>2011-07-30T08:51:58Z</time>
      </trkpt>
      <trkpt lat="46.330908" lon="14.637598">
        <ele>1816.54704</ele>
        <time>2011-07-30T08:52:03Z</time>
      </trkpt>
      <trkpt lat="46.330911" lon="14.637601">
        <ele>1816.068504</ele>
        <time>2011-07-30T08:52:27Z</time>
      </trkpt>
      <trkpt lat="46.330915" lon="14.637595">
        <ele>1816.068504</ele>
        <time>2011-07-30T08:52:54Z</time>
      </trkpt>
      <trkpt lat="46.330918" lon="14.637591">
        <ele>1816.068504</ele>
        <time>2011-07-30T08:53:31Z</time>
      </trkpt>
      <trkpt lat="46.330920" lon="14.637591">
        <ele>1816.068504</ele>
        <time>2011-07-30T08:53:36Z</time>
      </trkpt>
      <trkpt lat="46.330924" lon="14.637585">
        <ele>1816.54704</ele>
        <time>2011-07-30T08:54:29Z</time>
      </trkpt>
      <trkpt lat="46.330928" lon="14.637583">
        <ele>1817.028624</ele>
        <time>2011-07-30T08:55:19Z</time>
      </trkpt>
      <trkpt lat="46.330924" lon="14.637583">
        <ele>1817.028624</ele>
        <time>2011-07-30T08:55:42Z</time>
      </trkpt>
      <trkpt lat="46.330929" lon="14.637564">
        <ele>1816.54704</ele>
        <time>2011-07-30T08:55:47Z</time>
      </trkpt>
      <trkpt lat="46.330923" lon="14.637566">
        <ele>1815.58692</ele>
        <time>2011-07-30T08:56:18Z</time>
      </trkpt>
      <trkpt lat="46.330922" lon="14.637570">
        <ele>1815.58692</ele>
        <time>2011-07-30T08:56:22Z</time>
      </trkpt>
      <trkpt lat="46.330921" lon="14.637570">
        <ele>1815.58692</ele>
        <time>2011-07-30T08:56:28Z</time>
      </trkpt>
      <trkpt lat="46.330921" lon="14.637570">
        <ele>1815.58692</ele>
        <time>2011-07-30T08:56:29Z</time>
      </trkpt>
      <trkpt lat="46.330917" lon="14.637574">
        <ele>1815.58692</ele>
        <time>2011-07-30T08:56:45Z</time>
      </trkpt>
      <trkpt lat="46.330921" lon="14.637573">
        <ele>1815.58692</ele>
        <time>2011-07-30T08:56:52Z</time>
      </trkpt>
      <trkpt lat="46.330920" lon="14.637580">
        <ele>1816.068504</ele>
        <time>2011-07-30T08:57:19Z</time>
      </trkpt>
      <trkpt lat="46.330919" lon="14.637580">
        <ele>1815.58692</ele>
        <time>2011-07-30T08:57:26Z</time>
      </trkpt>
      <trkpt lat="46.330919" lon="14.637577">
        <ele>1816.068504</ele>
        <time>2011-07-30T08:57:31Z</time>
      </trkpt>
      <trkpt lat="46.330916" lon="14.637575">
        <ele>1817.028624</ele>
        <time>2011-07-30T08:57:50Z</time>
      </trkpt>
      <trkpt lat="46.330915" lon="14.637570">
        <ele>1816.54704</ele>
        <time>2011-07-30T08:57:57Z</time>
      </trkpt>
      <trkpt lat="46.330907" lon="14.637578">
        <ele>1816.54704</ele>
        <time>2011-07-30T08:58:21Z</time>
      </trkpt>
      <trkpt lat="46.330911" lon="14.637578">
        <ele>1817.028624</ele>
        <time>2011-07-30T08:58:25Z</time>
      </trkpt>
      <trkpt lat="46.330910" lon="14.637579">
        <ele>1816.54704</ele>
        <time>2011-07-30T08:58:32Z</time>
      </trkpt>
      <trkpt lat="46.330918" lon="14.637586">
        <ele>1816.068504</ele>
        <time>2011-07-30T08:58:40Z</time>
      </trkpt>
      <trkpt lat="46.330920" lon="14.637593">
        <ele>1816.068504</ele>
        <time>2011-07-30T08:58:52Z</time>
      </trkpt>
      <trkpt lat="46.330913" lon="14.637584">
        <ele>1815.58692</ele>
        <time>2011-07-30T08:59:16Z</time>
      </trkpt>
      <trkpt lat="46.330910" lon="14.637591">
        <ele>1816.068504</ele>
        <time>2011-07-30T08:59:31Z</time>
      </trkpt>
      <trkpt lat="46.330914" lon="14.637587">
        <ele>1815.58692</ele>
        <time>2011-07-30T08:59:42Z</time>
      </trkpt>
      <trkpt lat="46.330917" lon="14.637587">
        <ele>1815.58692</ele>
        <time>2011-07-30T08:59:53Z</time>
      </trkpt>
      <trkpt lat="46.330908" lon="14.637590">
        <ele>1815.58692</ele>
        <time>2011-07-30T09:00:29Z</time>
      </trkpt>
      <trkpt lat="46.330900" lon="14.637582">
        <ele>1815.58692</ele>
        <time>2011-07-30T09:01:07Z</time>
      </trkpt>
      <trkpt lat="46.330892" lon="14.637600">
        <ele>1815.105336</ele>
        <time>2011-07-30T09:01:19Z</time>
      </trkpt>
      <trkpt lat="46.330889" lon="14.637600">
        <ele>1815.105336</ele>
        <time>2011-07-30T09:01:30Z</time>
      </trkpt>
      <trkpt lat="46.330887" lon="14.637601">
        <ele>1814.6268</ele>
        <time>2011-07-30T09:01:38Z</time>
      </trkpt>
      <trkpt lat="46.330888" lon="14.637593">
        <ele>1814.145216</ele>
        <time>2011-07-30T09:02:06Z</time>
      </trkpt>
      <trkpt lat="46.330890" lon="14.637593">
        <ele>1813.663632</ele>
        <time>2011-07-30T09:02:15Z</time>
      </trkpt>
      <trkpt lat="46.330894" lon="14.637594">
        <ele>1813.663632</ele>
        <time>2011-07-30T09:02:32Z</time>
      </trkpt>
      <trkpt lat="46.330899" lon="14.637597">
        <ele>1814.6268</ele>
        <time>2011-07-30T09:03:03Z</time>
      </trkpt>
      <trkpt lat="46.330905" lon="14.637593">
        <ele>1815.105336</ele>
        <time>2011-07-30T09:03:38Z</time>
      </trkpt>
      <trkpt lat="46.330913" lon="14.637593">
        <ele>1815.105336</ele>
        <time>2011-07-30T09:03:46Z</time>
      </trkpt>
      <trkpt lat="46.330916" lon="14.637580">
        <ele>1815.58692</ele>
        <time>2011-07-30T09:03:56Z</time>
      </trkpt>
      <trkpt lat="46.330916" lon="14.637581">
        <ele>1815.58692</ele>
        <time>2011-07-30T09:04:03Z</time>
      </trkpt>
      <trkpt lat="46.330917" lon="14.637582">
        <ele>1816.068504</ele>
        <time>2011-07-30T09:04:35Z</time>
      </trkpt>
      <trkpt lat="46.330920" lon="14.637579">
        <ele>1815.58692</ele>
        <time>2011-07-30T09:04:55Z</time>
      </trkpt>
      <trkpt lat="46.330923" lon="14.637580">
        <ele>1816.068504</ele>
        <time>2011-07-30T09:05:36Z</time>
      </trkpt>
      <trkpt lat="46.330914" lon="14.637584">
        <ele>1816.068504</ele>
        <time>2011-07-30T09:05:52Z</time>
      </trkpt>
      <trkpt lat="46.330922" lon="14.637587">
        <ele>1816.068504</ele>
        <time>2011-07-30T09:06:46Z</time>
      </trkpt>
      <trkpt lat="46.330925" lon="14.637587">
        <ele>1816.068504</ele>
        <time>2011-07-30T09:07:12Z</time>
      </trkpt>
      <trkpt lat="46.330925" lon="14.637588">
        <ele>1816.54704</ele>
        <time>2011-07-30T09:07:26Z</time>
      </trkpt>
      <trkpt lat="46.330923" lon="14.637601">
        <ele>1817.028624</ele>
        <time>2011-07-30T09:07:30Z</time>
      </trkpt>
      <trkpt lat="46.330922" lon="14.637605">
        <ele>1817.028624</ele>
        <time>2011-07-30T09:07:33Z</time>
      </trkpt>
      <trkpt lat="46.330916" lon="14.637608">
        <ele>1817.028624</ele>
        <time>2011-07-30T09:07:37Z</time>
      </trkpt>
      <trkpt lat="46.330907" lon="14.637577">
        <ele>1817.510208</ele>
        <time>2011-07-30T09:08:12Z</time>
      </trkpt>
      <trkpt lat="46.330910" lon="14.637580">
        <ele>1817.510208</ele>
        <time>2011-07-30T09:08:38Z</time>
      </trkpt>
      <trkpt lat="46.330915" lon="14.637604">
        <ele>1818.951912</ele>
        <time>2011-07-30T09:09:33Z</time>
      </trkpt>
      <trkpt lat="46.330909" lon="14.637598">
        <ele>1818.951912</ele>
        <time>2011-07-30T09:09:48Z</time>
      </trkpt>
      <trkpt lat="46.330909" lon="14.637599">
        <ele>1818.951912</ele>
        <time>2011-07-30T09:09:50Z</time>
      </trkpt>
      <trkpt lat="46.330909" lon="14.637601">
        <ele>1818.951912</ele>
        <time>2011-07-30T09:09:52Z</time>
      </trkpt>
      <trkpt lat="46.330910" lon="14.637603">
        <ele>1818.951912</ele>
        <time>2011-07-30T09:09:52Z</time>
      </trkpt>
      <trkpt lat="46.330911" lon="14.637603">
        <ele>1819.433496</ele>
        <time>2011-07-30T09:09:55Z</time>
      </trkpt>
      <trkpt lat="46.330911" lon="14.637603">
        <ele>1819.433496</ele>
        <time>2011-07-30T09:09:55Z</time>
      </trkpt>
      <trkpt lat="46.330908" lon="14.637622">
        <ele>1819.433496</ele>
        <time>2011-07-30T09:10:07Z</time>
      </trkpt>
      <trkpt lat="46.330885" lon="14.637654">
        <ele>1819.433496</ele>
        <time>2011-07-30T09:10:12Z</time>
      </trkpt>
      <trkpt lat="46.330837" lon="14.637677">
        <ele>1818.470328</ele>
        <time>2011-07-30T09:10:21Z</time>
      </trkpt>
      <trkpt lat="46.330811" lon="14.637684">
        <ele>1817.510208</ele>
        <time>2011-07-30T09:10:26Z</time>
      </trkpt>
      <trkpt lat="46.330802" lon="14.637692">
        <ele>1817.028624</ele>
        <time>2011-07-30T09:10:33Z</time>
      </trkpt>
      <trkpt lat="46.330760" lon="14.637710">
        <ele>1815.105336</ele>
        <time>2011-07-30T09:10:48Z</time>
      </trkpt>
      <trkpt lat="46.330726" lon="14.637716">
        <ele>1814.6268</ele>
        <time>2011-07-30T09:10:56Z</time>
      </trkpt>
      <trkpt lat="46.330727" lon="14.637715">
        <ele>1814.145216</ele>
        <time>2011-07-30T09:11:04Z</time>
      </trkpt>
      <trkpt lat="46.330733" lon="14.637715">
        <ele>1813.663632</ele>
        <time>2011-07-30T09:11:09Z</time>
      </trkpt>
      <trkpt lat="46.330737" lon="14.637716">
        <ele>1812.703512</ele>
        <time>2011-07-30T09:11:38Z</time>
      </trkpt>
      <trkpt lat="46.330727" lon="14.637727">
        <ele>1812.221928</ele>
        <time>2011-07-30T09:12:25Z</time>
      </trkpt>
      <trkpt lat="46.330688" lon="14.637731">
        <ele>1812.221928</ele>
        <time>2011-07-30T09:12:30Z</time>
      </trkpt>
      <trkpt lat="46.330635" lon="14.637711">
        <ele>1811.261808</ele>
        <time>2011-07-30T09:12:37Z</time>
      </trkpt>
      <trkpt lat="46.330600" lon="14.637685">
        <ele>1811.743392</ele>
        <time>2011-07-30T09:12:44Z</time>
      </trkpt>
      <trkpt lat="46.330548" lon="14.637673">
        <ele>1811.743392</ele>
        <time>2011-07-30T09:12:50Z</time>
      </trkpt>
      <trkpt lat="46.330520" lon="14.637627">
        <ele>1811.261808</ele>
        <time>2011-07-30T09:12:57Z</time>
      </trkpt>
      <trkpt lat="46.330497" lon="14.637608">
        <ele>1811.261808</ele>
        <time>2011-07-30T09:13:03Z</time>
      </trkpt>
      <trkpt lat="46.330465" lon="14.637600">
        <ele>1810.29864</ele>
        <time>2011-07-30T09:13:09Z</time>
      </trkpt>
      <trkpt lat="46.330445" lon="14.637589">
        <ele>1809.820104</ele>
        <time>2011-07-30T09:13:19Z</time>
      </trkpt>
      <trkpt lat="46.330426" lon="14.637574">
        <ele>1809.33852</ele>
        <time>2011-07-30T09:13:24Z</time>
      </trkpt>
      <trkpt lat="46.330404" lon="14.637573">
        <ele>1808.3784</ele>
        <time>2011-07-30T09:13:28Z</time>
      </trkpt>
      <trkpt lat="46.330384" lon="14.637589">
        <ele>1807.896816</ele>
        <time>2011-07-30T09:13:32Z</time>
      </trkpt>
      <trkpt lat="46.330362" lon="14.637598">
        <ele>1807.896816</ele>
        <time>2011-07-30T09:13:36Z</time>
      </trkpt>
      <trkpt lat="46.330333" lon="14.637627">
        <ele>1806.936696</ele>
        <time>2011-07-30T09:13:43Z</time>
      </trkpt>
      <trkpt lat="46.330298" lon="14.637641">
        <ele>1807.415232</ele>
        <time>2011-07-30T09:13:50Z</time>
      </trkpt>
      <trkpt lat="46.330282" lon="14.637650">
        <ele>1807.896816</ele>
        <time>2011-07-30T09:14:01Z</time>
      </trkpt>
      <trkpt lat="46.330261" lon="14.637657">
        <ele>1808.3784</ele>
        <time>2011-07-30T09:14:06Z</time>
      </trkpt>
      <trkpt lat="46.330243" lon="14.637649">
        <ele>1807.415232</ele>
        <time>2011-07-30T09:14:14Z</time>
      </trkpt>
      <trkpt lat="46.330237" lon="14.637639">
        <ele>1806.936696</ele>
        <time>2011-07-30T09:14:18Z</time>
      </trkpt>
      <trkpt lat="46.330232" lon="14.637638">
        <ele>1806.455112</ele>
        <time>2011-07-30T09:14:29Z</time>
      </trkpt>
      <trkpt lat="46.330211" lon="14.637633">
        <ele>1806.455112</ele>
        <time>2011-07-30T09:14:34Z</time>
      </trkpt>
      <trkpt lat="46.330186" lon="14.637646">
        <ele>1806.936696</ele>
        <time>2011-07-30T09:14:42Z</time>
      </trkpt>
      <trkpt lat="46.330155" lon="14.637637">
        <ele>1805.973528</ele>
        <time>2011-07-30T09:14:49Z</time>
      </trkpt>
      <trkpt lat="46.330122" lon="14.637638">
        <ele>1805.973528</ele>
        <time>2011-07-30T09:14:55Z</time>
      </trkpt>
      <trkpt lat="46.330099" lon="14.637621">
        <ele>1805.491944</ele>
        <time>2011-07-30T09:15:00Z</time>
      </trkpt>
      <trkpt lat="46.330068" lon="14.637616">
        <ele>1804.531824</ele>
        <time>2011-07-30T09:15:05Z</time>
      </trkpt>
      <trkpt lat="46.330043" lon="14.637610">
        <ele>1804.05024</ele>
        <time>2011-07-30T09:15:12Z</time>
      </trkpt>
      <trkpt lat="46.330014" lon="14.637598">
        <ele>1802.608536</ele>
        <time>2011-07-30T09:15:16Z</time>
      </trkpt>
      <trkpt lat="46.329993" lon="14.637567">
        <ele>1800.685248</ele>
        <time>2011-07-30T09:15:23Z</time>
      </trkpt>
      <trkpt lat="46.329976" lon="14.637541">
        <ele>1799.725128</ele>
        <time>2011-07-30T09:15:31Z</time>
      </trkpt>
      <trkpt lat="46.329955" lon="14.637548">
        <ele>1799.243544</ele>
        <time>2011-07-30T09:15:36Z</time>
      </trkpt>
      <trkpt lat="46.329933" lon="14.637527">
        <ele>1798.283424</ele>
        <time>2011-07-30T09:15:45Z</time>
      </trkpt>
      <trkpt lat="46.329922" lon="14.637508">
        <ele>1797.80184</ele>
        <time>2011-07-30T09:15:51Z</time>
      </trkpt>
      <trkpt lat="46.329910" lon="14.637507">
        <ele>1798.283424</ele>
        <time>2011-07-30T09:16:02Z</time>
      </trkpt>
      <trkpt lat="46.329886" lon="14.637494">
        <ele>1797.323304</ele>
        <time>2011-07-30T09:16:12Z</time>
      </trkpt>
      <trkpt lat="46.329869" lon="14.637476">
        <ele>1796.84172</ele>
        <time>2011-07-30T09:16:17Z</time>
      </trkpt>
      <trkpt lat="46.329860" lon="14.637460">
        <ele>1796.360136</ele>
        <time>2011-07-30T09:16:22Z</time>
      </trkpt>
      <trkpt lat="46.329858" lon="14.637421">
        <ele>1795.8816</ele>
        <time>2011-07-30T09:16:29Z</time>
      </trkpt>
      <trkpt lat="46.329834" lon="14.637396">
        <ele>1794.436848</ele>
        <time>2011-07-30T09:16:36Z</time>
      </trkpt>
      <trkpt lat="46.329816" lon="14.637380">
        <ele>1793.958312</ele>
        <time>2011-07-30T09:16:41Z</time>
      </trkpt>
      <trkpt lat="46.329796" lon="14.637379">
        <ele>1793.476728</ele>
        <time>2011-07-30T09:16:47Z</time>
      </trkpt>
      <trkpt lat="46.329779" lon="14.637387">
        <ele>1793.476728</ele>
        <time>2011-07-30T09:16:51Z</time>
      </trkpt>
      <trkpt lat="46.329758" lon="14.637393">
        <ele>1792.516608</ele>
        <time>2011-07-30T09:16:56Z</time>
      </trkpt>
      <trkpt lat="46.329743" lon="14.637388">
        <ele>1791.55344</ele>
        <time>2011-07-30T09:17:00Z</time>
      </trkpt>
      <trkpt lat="46.329714" lon="14.637370">
        <ele>1791.074904</ele>
        <time>2011-07-30T09:17:06Z</time>
      </trkpt>
      <trkpt lat="46.329691" lon="14.637365">
        <ele>1790.59332</ele>
        <time>2011-07-30T09:17:11Z</time>
      </trkpt>
      <trkpt lat="46.329656" lon="14.637366">
        <ele>1789.630152</ele>
        <time>2011-07-30T09:17:19Z</time>
      </trkpt>
      <trkpt lat="46.329638" lon="14.637363">
        <ele>1788.670032</ele>
        <time>2011-07-30T09:17:23Z</time>
      </trkpt>
      <trkpt lat="46.329615" lon="14.637364">
        <ele>1787.709912</ele>
        <time>2011-07-30T09:17:29Z</time>
      </trkpt>
      <trkpt lat="46.329587" lon="14.637349">
        <ele>1786.268208</ele>
        <time>2011-07-30T09:17:34Z</time>
      </trkpt>
      <trkpt lat="46.329563" lon="14.637313">
        <ele>1785.786624</ele>
        <time>2011-07-30T09:17:39Z</time>
      </trkpt>
      <trkpt lat="46.329539" lon="14.637280">
        <ele>1784.823456</ele>
        <time>2011-07-30T09:17:46Z</time>
      </trkpt>
      <trkpt lat="46.329503" lon="14.637242">
        <ele>1783.863336</ele>
        <time>2011-07-30T09:17:51Z</time>
      </trkpt>
      <trkpt lat="46.329477" lon="14.637221">
        <ele>1782.421632</ele>
        <time>2011-07-30T09:17:57Z</time>
      </trkpt>
      <trkpt lat="46.329452" lon="14.637194">
        <ele>1782.421632</ele>
        <time>2011-07-30T09:18:01Z</time>
      </trkpt>
      <trkpt lat="46.329423" lon="14.637169">
        <ele>1780.979928</ele>
        <time>2011-07-30T09:18:09Z</time>
      </trkpt>
      <trkpt lat="46.329398" lon="14.637157">
        <ele>1780.498344</ele>
        <time>2011-07-30T09:18:13Z</time>
      </trkpt>
      <trkpt lat="46.329371" lon="14.637123">
        <ele>1779.538224</ele>
        <time>2011-07-30T09:18:20Z</time>
      </trkpt>
      <trkpt lat="46.329340" lon="14.637078">
        <ele>1777.614936</ele>
        <time>2011-07-30T09:18:27Z</time>
      </trkpt>
      <trkpt lat="46.329302" lon="14.637047">
        <ele>1776.654816</ele>
        <time>2011-07-30T09:18:35Z</time>
      </trkpt>
      <trkpt lat="46.329276" lon="14.637035">
        <ele>1775.691648</ele>
        <time>2011-07-30T09:18:40Z</time>
      </trkpt>
      <trkpt lat="46.329257" lon="14.637018">
        <ele>1774.731528</ele>
        <time>2011-07-30T09:18:47Z</time>
      </trkpt>
      <trkpt lat="46.329238" lon="14.637025">
        <ele>1773.76836</ele>
        <time>2011-07-30T09:18:54Z</time>
      </trkpt>
      <trkpt lat="46.329226" lon="14.637034">
        <ele>1773.289824</ele>
        <time>2011-07-30T09:18:58Z</time>
      </trkpt>
      <trkpt lat="46.329196" lon="14.637040">
        <ele>1772.80824</ele>
        <time>2011-07-30T09:19:06Z</time>
      </trkpt>
      <trkpt lat="46.329176" lon="14.637039">
        <ele>1771.366536</ele>
        <time>2011-07-30T09:19:15Z</time>
      </trkpt>
      <trkpt lat="46.329149" lon="14.637028">
        <ele>1770.406416</ele>
        <time>2011-07-30T09:19:21Z</time>
      </trkpt>
      <trkpt lat="46.329125" lon="14.637013">
        <ele>1769.443248</ele>
        <time>2011-07-30T09:19:26Z</time>
      </trkpt>
      <trkpt lat="46.329103" lon="14.637024">
        <ele>1768.961664</ele>
        <time>2011-07-30T09:19:33Z</time>
      </trkpt>
      <trkpt lat="46.329081" lon="14.637033">
        <ele>1768.001544</ele>
        <time>2011-07-30T09:19:38Z</time>
      </trkpt>
      <trkpt lat="46.329037" lon="14.637018">
        <ele>1766.078256</ele>
        <time>2011-07-30T09:19:49Z</time>
      </trkpt>
      <trkpt lat="46.328996" lon="14.636996">
        <ele>1764.636552</ele>
        <time>2011-07-30T09:19:54Z</time>
      </trkpt>
      <trkpt lat="46.328959" lon="14.636943">
        <ele>1763.194848</ele>
        <time>2011-07-30T09:20:01Z</time>
      </trkpt>
      <trkpt lat="46.328932" lon="14.636918">
        <ele>1761.753144</ele>
        <time>2011-07-30T09:20:08Z</time>
      </trkpt>
      <trkpt lat="46.328914" lon="14.636904">
        <ele>1761.27156</ele>
        <time>2011-07-30T09:20:12Z</time>
      </trkpt>
      <trkpt lat="46.328885" lon="14.636895">
        <ele>1760.31144</ele>
        <time>2011-07-30T09:20:17Z</time>
      </trkpt>
      <trkpt lat="46.328853" lon="14.636883">
        <ele>1758.869736</ele>
        <time>2011-07-30T09:20:24Z</time>
      </trkpt>
      <trkpt lat="46.328833" lon="14.636871">
        <ele>1758.388152</ele>
        <time>2011-07-30T09:20:28Z</time>
      </trkpt>
      <trkpt lat="46.328796" lon="14.636835">
        <ele>1755.986328</ele>
        <time>2011-07-30T09:20:40Z</time>
      </trkpt>
      <trkpt lat="46.328788" lon="14.636819">
        <ele>1755.986328</ele>
        <time>2011-07-30T09:20:43Z</time>
      </trkpt>
      <trkpt lat="46.328770" lon="14.636772">
        <ele>1755.504744</ele>
        <time>2011-07-30T09:20:47Z</time>
      </trkpt>
      <trkpt lat="46.328749" lon="14.636748">
        <ele>1754.544624</ele>
        <time>2011-07-30T09:20:52Z</time>
      </trkpt>
      <trkpt lat="46.328724" lon="14.636725">
        <ele>1754.06304</ele>
        <time>2011-07-30T09:20:59Z</time>
      </trkpt>
      <trkpt lat="46.328700" lon="14.636704">
        <ele>1753.581456</ele>
        <time>2011-07-30T09:21:06Z</time>
      </trkpt>
      <trkpt lat="46.328679" lon="14.636696">
        <ele>1753.099872</ele>
        <time>2011-07-30T09:21:13Z</time>
      </trkpt>
      <trkpt lat="46.328654" lon="14.636691">
        <ele>1752.139752</ele>
        <time>2011-07-30T09:21:18Z</time>
      </trkpt>
      <trkpt lat="46.328627" lon="14.636671">
        <ele>1751.658168</ele>
        <time>2011-07-30T09:21:26Z</time>
      </trkpt>
      <trkpt lat="46.328586" lon="14.636656">
        <ele>1750.698048</ele>
        <time>2011-07-30T09:21:34Z</time>
      </trkpt>
      <trkpt lat="46.328569" lon="14.636650">
        <ele>1749.737928</ele>
        <time>2011-07-30T09:21:41Z</time>
      </trkpt>
      <trkpt lat="46.328546" lon="14.636656">
        <ele>1749.256344</ele>
        <time>2011-07-30T09:21:45Z</time>
      </trkpt>
      <trkpt lat="46.328520" lon="14.636664">
        <ele>1748.77476</ele>
        <time>2011-07-30T09:21:52Z</time>
      </trkpt>
      <trkpt lat="46.328496" lon="14.636669">
        <ele>1747.81464</ele>
        <time>2011-07-30T09:21:57Z</time>
      </trkpt>
      <trkpt lat="46.328449" lon="14.636681">
        <ele>1746.372936</ele>
        <time>2011-07-30T09:22:04Z</time>
      </trkpt>
      <trkpt lat="46.328413" lon="14.636707">
        <ele>1745.409768</ele>
        <time>2011-07-30T09:22:08Z</time>
      </trkpt>
      <trkpt lat="46.328376" lon="14.636722">
        <ele>1744.449648</ele>
        <time>2011-07-30T09:22:16Z</time>
      </trkpt>
      <trkpt lat="46.328355" lon="14.636738">
        <ele>1743.489528</ele>
        <time>2011-07-30T09:22:20Z</time>
      </trkpt>
      <trkpt lat="46.328338" lon="14.636748">
        <ele>1743.007944</ele>
        <time>2011-07-30T09:22:24Z</time>
      </trkpt>
      <trkpt lat="46.328292" lon="14.636742">
        <ele>1742.047824</ele>
        <time>2011-07-30T09:22:31Z</time>
      </trkpt>
      <trkpt lat="46.328263" lon="14.636769">
        <ele>1742.52636</ele>
        <time>2011-07-30T09:22:38Z</time>
      </trkpt>
      <trkpt lat="46.328232" lon="14.636793">
        <ele>1741.084656</ele>
        <time>2011-07-30T09:22:43Z</time>
      </trkpt>
      <trkpt lat="46.328206" lon="14.636806">
        <ele>1740.603072</ele>
        <time>2011-07-30T09:22:50Z</time>
      </trkpt>
      <trkpt lat="46.328177" lon="14.636826">
        <ele>1739.642952</ele>
        <time>2011-07-30T09:22:55Z</time>
      </trkpt>
      <trkpt lat="46.328140" lon="14.636837">
        <ele>1739.161368</ele>
        <time>2011-07-30T09:22:58Z</time>
      </trkpt>
      <trkpt lat="46.328102" lon="14.636833">
        <ele>1738.682832</ele>
        <time>2011-07-30T09:23:02Z</time>
      </trkpt>
      <trkpt lat="46.328051" lon="14.636846">
        <ele>1739.161368</ele>
        <time>2011-07-30T09:23:09Z</time>
      </trkpt>
      <trkpt lat="46.328036" lon="14.636843">
        <ele>1739.161368</ele>
        <time>2011-07-30T09:23:10Z</time>
      </trkpt>
      <trkpt lat="46.328002" lon="14.636849">
        <ele>1739.161368</ele>
        <time>2011-07-30T09:23:18Z</time>
      </trkpt>
      <trkpt lat="46.327969" lon="14.636861">
        <ele>1739.161368</ele>
        <time>2011-07-30T09:23:25Z</time>
      </trkpt>
      <trkpt lat="46.327936" lon="14.636884">
        <ele>1738.201248</ele>
        <time>2011-07-30T09:23:30Z</time>
      </trkpt>
      <trkpt lat="46.327906" lon="14.636883">
        <ele>1736.27796</ele>
        <time>2011-07-30T09:23:36Z</time>
      </trkpt>
      <trkpt lat="46.327857" lon="14.636874">
        <ele>1735.31784</ele>
        <time>2011-07-30T09:23:41Z</time>
      </trkpt>
      <trkpt lat="46.327809" lon="14.636836">
        <ele>1734.354672</ele>
        <time>2011-07-30T09:23:49Z</time>
      </trkpt>
      <trkpt lat="46.327771" lon="14.636825">
        <ele>1733.394552</ele>
        <time>2011-07-30T09:23:55Z</time>
      </trkpt>
      <trkpt lat="46.327749" lon="14.636847">
        <ele>1732.434432</ele>
        <time>2011-07-30T09:24:00Z</time>
      </trkpt>
      <trkpt lat="46.327743" lon="14.636853">
        <ele>1732.434432</ele>
        <time>2011-07-30T09:24:01Z</time>
      </trkpt>
      <trkpt lat="46.327709" lon="14.636878">
        <ele>1731.471264</ele>
        <time>2011-07-30T09:24:08Z</time>
      </trkpt>
      <trkpt lat="46.327684" lon="14.636895">
        <ele>1730.992728</ele>
        <time>2011-07-30T09:24:12Z</time>
      </trkpt>
      <trkpt lat="46.327658" lon="14.636886">
        <ele>1730.02956</ele>
        <time>2011-07-30T09:24:18Z</time>
      </trkpt>
      <trkpt lat="46.327613" lon="14.636880">
        <ele>1728.106272</ele>
        <time>2011-07-30T09:24:23Z</time>
      </trkpt>
      <trkpt lat="46.327586" lon="14.636896">
        <ele>1726.664568</ele>
        <time>2011-07-30T09:24:30Z</time>
      </trkpt>
      <trkpt lat="46.327558" lon="14.636920">
        <ele>1725.704448</ele>
        <time>2011-07-30T09:24:35Z</time>
      </trkpt>
      <trkpt lat="46.327530" lon="14.636933">
        <ele>1725.704448</ele>
        <time>2011-07-30T09:24:42Z</time>
      </trkpt>
      <trkpt lat="46.327486" lon="14.636957">
        <ele>1725.222864</ele>
        <time>2011-07-30T09:24:47Z</time>
      </trkpt>
      <trkpt lat="46.327450" lon="14.636973">
        <ele>1724.262744</ele>
        <time>2011-07-30T09:24:54Z</time>
      </trkpt>
      <trkpt lat="46.327431" lon="14.636983">
        <ele>1723.78116</ele>
        <time>2011-07-30T09:24:58Z</time>
      </trkpt>
      <trkpt lat="46.327353" lon="14.636989">
        <ele>1720.897752</ele>
        <time>2011-07-30T09:25:09Z</time>
      </trkpt>
      <trkpt lat="46.327313" lon="14.636990">
        <ele>1720.416168</ele>
        <time>2011-07-30T09:25:14Z</time>
      </trkpt>
      <trkpt lat="46.327274" lon="14.636984">
        <ele>1719.456048</ele>
        <time>2011-07-30T09:25:21Z</time>
      </trkpt>
      <trkpt lat="46.327244" lon="14.636990">
        <ele>1717.53276</ele>
        <time>2011-07-30T09:25:25Z</time>
      </trkpt>
      <trkpt lat="46.327212" lon="14.636997">
        <ele>1716.57264</ele>
        <time>2011-07-30T09:25:32Z</time>
      </trkpt>
      <trkpt lat="46.327195" lon="14.637015">
        <ele>1716.091056</ele>
        <time>2011-07-30T09:25:37Z</time>
      </trkpt>
      <trkpt lat="46.327158" lon="14.637022">
        <ele>1713.686184</ele>
        <time>2011-07-30T09:25:43Z</time>
      </trkpt>
      <trkpt lat="46.327133" lon="14.637019">
        <ele>1713.207648</ele>
        <time>2011-07-30T09:25:48Z</time>
      </trkpt>
      <trkpt lat="46.327111" lon="14.637013">
        <ele>1712.24448</ele>
        <time>2011-07-30T09:25:53Z</time>
      </trkpt>
      <trkpt lat="46.327074" lon="14.637039">
        <ele>1711.28436</ele>
        <time>2011-07-30T09:26:03Z</time>
      </trkpt>
      <trkpt lat="46.327049" lon="14.637030">
        <ele>1710.32424</ele>
        <time>2011-07-30T09:26:07Z</time>
      </trkpt>
      <trkpt lat="46.327014" lon="14.637013">
        <ele>1708.879488</ele>
        <time>2011-07-30T09:26:15Z</time>
      </trkpt>
      <trkpt lat="46.326982" lon="14.636995">
        <ele>1706.959248</ele>
        <time>2011-07-30T09:26:20Z</time>
      </trkpt>
      <trkpt lat="46.326963" lon="14.636995">
        <ele>1706.477664</ele>
        <time>2011-07-30T09:26:26Z</time>
      </trkpt>
      <trkpt lat="46.326929" lon="14.636993">
        <ele>1705.517544</ele>
        <time>2011-07-30T09:26:31Z</time>
      </trkpt>
      <trkpt lat="46.326911" lon="14.636986">
        <ele>1704.554376</ele>
        <time>2011-07-30T09:26:38Z</time>
      </trkpt>
      <trkpt lat="46.326874" lon="14.636954">
        <ele>1703.594256</ele>
        <time>2011-07-30T09:26:43Z</time>
      </trkpt>
      <trkpt lat="46.326844" lon="14.636946">
        <ele>1703.112672</ele>
        <time>2011-07-30T09:26:50Z</time>
      </trkpt>
      <trkpt lat="46.326812" lon="14.636926">
        <ele>1701.189384</ele>
        <time>2011-07-30T09:26:54Z</time>
      </trkpt>
      <trkpt lat="46.326777" lon="14.636914">
        <ele>1699.74768</ele>
        <time>2011-07-30T09:27:01Z</time>
      </trkpt>
      <trkpt lat="46.326738" lon="14.636905">
        <ele>1698.78756</ele>
        <time>2011-07-30T09:27:08Z</time>
      </trkpt>
      <trkpt lat="46.326714" lon="14.636895">
        <ele>1697.824392</ele>
        <time>2011-07-30T09:27:13Z</time>
      </trkpt>
      <trkpt lat="46.326685" lon="14.636894">
        <ele>1698.305976</ele>
        <time>2011-07-30T09:27:17Z</time>
      </trkpt>
      <trkpt lat="46.326648" lon="14.636876">
        <ele>1697.824392</ele>
        <time>2011-07-30T09:27:24Z</time>
      </trkpt>
      <trkpt lat="46.326595" lon="14.636880">
        <ele>1697.824392</ele>
        <time>2011-07-30T09:27:31Z</time>
      </trkpt>
      <trkpt lat="46.326566" lon="14.636885">
        <ele>1697.345856</ele>
        <time>2011-07-30T09:27:36Z</time>
      </trkpt>
      <trkpt lat="46.326532" lon="14.636883">
        <ele>1696.864272</ele>
        <time>2011-07-30T09:27:41Z</time>
      </trkpt>
      <trkpt lat="46.326521" lon="14.636904">
        <ele>1695.422568</ele>
        <time>2011-07-30T09:27:47Z</time>
      </trkpt>
      <trkpt lat="46.326516" lon="14.636944">
        <ele>1694.462448</ele>
        <time>2011-07-30T09:27:51Z</time>
      </trkpt>
      <trkpt lat="46.326495" lon="14.636962">
        <ele>1693.980864</ele>
        <time>2011-07-30T09:27:55Z</time>
      </trkpt>
      <trkpt lat="46.326449" lon="14.636972">
        <ele>1693.017696</ele>
        <time>2011-07-30T09:28:03Z</time>
      </trkpt>
      <trkpt lat="46.326432" lon="14.636985">
        <ele>1692.53916</ele>
        <time>2011-07-30T09:28:07Z</time>
      </trkpt>
      <trkpt lat="46.326413" lon="14.637003">
        <ele>1691.097456</ele>
        <time>2011-07-30T09:28:14Z</time>
      </trkpt>
      <trkpt lat="46.326402" lon="14.637012">
        <ele>1690.615872</ele>
        <time>2011-07-30T09:28:17Z</time>
      </trkpt>
      <trkpt lat="46.326374" lon="14.637051">
        <ele>1690.615872</ele>
        <time>2011-07-30T09:28:22Z</time>
      </trkpt>
      <trkpt lat="46.326341" lon="14.637061">
        <ele>1689.174168</ele>
        <time>2011-07-30T09:28:27Z</time>
      </trkpt>
      <trkpt lat="46.326315" lon="14.637060">
        <ele>1688.211</ele>
        <time>2011-07-30T09:28:33Z</time>
      </trkpt>
      <trkpt lat="46.326295" lon="14.637070">
        <ele>1687.25088</ele>
        <time>2011-07-30T09:28:38Z</time>
      </trkpt>
      <trkpt lat="46.326282" lon="14.637088">
        <ele>1686.769296</ele>
        <time>2011-07-30T09:28:44Z</time>
      </trkpt>
      <trkpt lat="46.326258" lon="14.637122">
        <ele>1685.809176</ele>
        <time>2011-07-30T09:28:50Z</time>
      </trkpt>
      <trkpt lat="46.326249" lon="14.637148">
        <ele>1685.327592</ele>
        <time>2011-07-30T09:28:58Z</time>
      </trkpt>
      <trkpt lat="46.326242" lon="14.637169">
        <ele>1683.885888</ele>
        <time>2011-07-30T09:29:05Z</time>
      </trkpt>
      <trkpt lat="46.326223" lon="14.637247">
        <ele>1683.404304</ele>
        <time>2011-07-30T09:29:15Z</time>
      </trkpt>
      <trkpt lat="46.326223" lon="14.637299">
        <ele>1682.444184</ele>
        <time>2011-07-30T09:29:20Z</time>
      </trkpt>
      <trkpt lat="46.326207" lon="14.637338">
        <ele>1682.925768</ele>
        <time>2011-07-30T09:29:25Z</time>
      </trkpt>
      <trkpt lat="46.326184" lon="14.637365">
        <ele>1683.404304</ele>
        <time>2011-07-30T09:29:31Z</time>
      </trkpt>
      <trkpt lat="46.326184" lon="14.637399">
        <ele>1683.404304</ele>
        <time>2011-07-30T09:29:35Z</time>
      </trkpt>
      <trkpt lat="46.326179" lon="14.637428">
        <ele>1683.885888</ele>
        <time>2011-07-30T09:29:40Z</time>
      </trkpt>
      <trkpt lat="46.326148" lon="14.637451">
        <ele>1682.444184</ele>
        <time>2011-07-30T09:29:46Z</time>
      </trkpt>
      <trkpt lat="46.326125" lon="14.637504">
        <ele>1681.00248</ele>
        <time>2011-07-30T09:29:52Z</time>
      </trkpt>
      <trkpt lat="46.326094" lon="14.637516">
        <ele>1680.04236</ele>
        <time>2011-07-30T09:29:58Z</time>
      </trkpt>
      <trkpt lat="46.326045" lon="14.637503">
        <ele>1678.119072</ele>
        <time>2011-07-30T09:30:03Z</time>
      </trkpt>
      <trkpt lat="46.326028" lon="14.637500">
        <ele>1677.637488</ele>
        <time>2011-07-30T09:30:06Z</time>
      </trkpt>
      <trkpt lat="46.325950" lon="14.637517">
        <ele>1676.677368</ele>
        <time>2011-07-30T09:30:15Z</time>
      </trkpt>
      <trkpt lat="46.325876" lon="14.637514">
        <ele>1674.272496</ele>
        <time>2011-07-30T09:30:22Z</time>
      </trkpt>
      <trkpt lat="46.325851" lon="14.637522">
        <ele>1674.272496</ele>
        <time>2011-07-30T09:30:26Z</time>
      </trkpt>
      <trkpt lat="46.325808" lon="14.637529">
        <ele>1672.349208</ele>
        <time>2011-07-30T09:30:32Z</time>
      </trkpt>
      <trkpt lat="46.325779" lon="14.637555">
        <ele>1670.907504</ele>
        <time>2011-07-30T09:30:36Z</time>
      </trkpt>
      <trkpt lat="46.325727" lon="14.637589">
        <ele>1670.428968</ele>
        <time>2011-07-30T09:30:41Z</time>
      </trkpt>
      <trkpt lat="46.325672" lon="14.637611">
        <ele>1670.428968</ele>
        <time>2011-07-30T09:30:49Z</time>
      </trkpt>
      <trkpt lat="46.325665" lon="14.637612">
        <ele>1670.428968</ele>
        <time>2011-07-30T09:30:49Z</time>
      </trkpt>
      <trkpt lat="46.325626" lon="14.637666">
        <ele>1669.4658</ele>
        <time>2011-07-30T09:30:56Z</time>
      </trkpt>
      <trkpt lat="46.325603" lon="14.637706">
        <ele>1668.987264</ele>
        <time>2011-07-30T09:31:00Z</time>
      </trkpt>
      <trkpt lat="46.325583" lon="14.637733">
        <ele>1668.024096</ele>
        <time>2011-07-30T09:31:04Z</time>
      </trkpt>
      <trkpt lat="46.325537" lon="14.637754">
        <ele>1667.542512</ele>
        <time>2011-07-30T09:31:11Z</time>
      </trkpt>
      <trkpt lat="46.325514" lon="14.637766">
        <ele>1667.542512</ele>
        <time>2011-07-30T09:31:15Z</time>
      </trkpt>
      <trkpt lat="46.325482" lon="14.637771">
        <ele>1667.063976</ele>
        <time>2011-07-30T09:31:20Z</time>
      </trkpt>
      <trkpt lat="46.325442" lon="14.637779">
        <ele>1666.582392</ele>
        <time>2011-07-30T09:31:26Z</time>
      </trkpt>
      <trkpt lat="46.325405" lon="14.637800">
        <ele>1665.622272</ele>
        <time>2011-07-30T09:31:30Z</time>
      </trkpt>
      <trkpt lat="46.325330" lon="14.637850">
        <ele>1665.622272</ele>
        <time>2011-07-30T09:31:39Z</time>
      </trkpt>
      <trkpt lat="46.325318" lon="14.637858">
        <ele>1665.140688</ele>
        <time>2011-07-30T09:31:40Z</time>
      </trkpt>
      <trkpt lat="46.325293" lon="14.637900">
        <ele>1664.659104</ele>
        <time>2011-07-30T09:31:44Z</time>
      </trkpt>
      <trkpt lat="46.325246" lon="14.637971">
        <ele>1663.2174</ele>
        <time>2011-07-30T09:31:51Z</time>
      </trkpt>
      <trkpt lat="46.325218" lon="14.637989">
        <ele>1662.738864</ele>
        <time>2011-07-30T09:31:58Z</time>
      </trkpt>
      <trkpt lat="46.325189" lon="14.638007">
        <ele>1662.25728</ele>
        <time>2011-07-30T09:32:02Z</time>
      </trkpt>
      <trkpt lat="46.325142" lon="14.638036">
        <ele>1662.25728</ele>
        <time>2011-07-30T09:32:07Z</time>
      </trkpt>
      <trkpt lat="46.325113" lon="14.638067">
        <ele>1661.775696</ele>
        <time>2011-07-30T09:32:13Z</time>
      </trkpt>
      <trkpt lat="46.325098" lon="14.638125">
        <ele>1661.29716</ele>
        <time>2011-07-30T09:32:18Z</time>
      </trkpt>
      <trkpt lat="46.325088" lon="14.638173">
        <ele>1660.815576</ele>
        <time>2011-07-30T09:32:22Z</time>
      </trkpt>
      <trkpt lat="46.325075" lon="14.638220">
        <ele>1660.333992</ele>
        <time>2011-07-30T09:32:29Z</time>
      </trkpt>
      <trkpt lat="46.325065" lon="14.638248">
        <ele>1660.333992</ele>
        <time>2011-07-30T09:32:33Z</time>
      </trkpt>
      <trkpt lat="46.325055" lon="14.638278">
        <ele>1660.333992</ele>
        <time>2011-07-30T09:32:40Z</time>
      </trkpt>
      <trkpt lat="46.325072" lon="14.638267">
        <ele>1661.29716</ele>
        <time>2011-07-30T09:32:48Z</time>
      </trkpt>
      <trkpt lat="46.325061" lon="14.638272">
        <ele>1662.25728</ele>
        <time>2011-07-30T09:33:07Z</time>
      </trkpt>
      <trkpt lat="46.325048" lon="14.638291">
        <ele>1661.29716</ele>
        <time>2011-07-30T09:33:12Z</time>
      </trkpt>
      <trkpt lat="46.325038" lon="14.638322">
        <ele>1660.333992</ele>
        <time>2011-07-30T09:33:18Z</time>
      </trkpt>
      <trkpt lat="46.325034" lon="14.638342">
        <ele>1659.373872</ele>
        <time>2011-07-30T09:33:23Z</time>
      </trkpt>
      <trkpt lat="46.325019" lon="14.638375">
        <ele>1658.410704</ele>
        <time>2011-07-30T09:33:30Z</time>
      </trkpt>
      <trkpt lat="46.325002" lon="14.638385">
        <ele>1658.410704</ele>
        <time>2011-07-30T09:33:35Z</time>
      </trkpt>
      <trkpt lat="46.324981" lon="14.638367">
        <ele>1658.410704</ele>
        <time>2011-07-30T09:33:42Z</time>
      </trkpt>
      <trkpt lat="46.324947" lon="14.638357">
        <ele>1656.487416</ele>
        <time>2011-07-30T09:33:49Z</time>
      </trkpt>
      <trkpt lat="46.324909" lon="14.638343">
        <ele>1656.00888</ele>
        <time>2011-07-30T09:33:54Z</time>
      </trkpt>
      <trkpt lat="46.324884" lon="14.638329">
        <ele>1656.00888</ele>
        <time>2011-07-30T09:33:59Z</time>
      </trkpt>
      <trkpt lat="46.324853" lon="14.638341">
        <ele>1656.00888</ele>
        <time>2011-07-30T09:34:06Z</time>
      </trkpt>
      <trkpt lat="46.324832" lon="14.638377">
        <ele>1654.567176</ele>
        <time>2011-07-30T09:34:13Z</time>
      </trkpt>
      <trkpt lat="46.324822" lon="14.638377">
        <ele>1655.045712</ele>
        <time>2011-07-30T09:34:21Z</time>
      </trkpt>
      <trkpt lat="46.324821" lon="14.638379">
        <ele>1655.045712</ele>
        <time>2011-07-30T09:34:30Z</time>
      </trkpt>
      <trkpt lat="46.324818" lon="14.638381">
        <ele>1655.045712</ele>
        <time>2011-07-30T09:34:39Z</time>
      </trkpt>
      <trkpt lat="46.324797" lon="14.638390">
        <ele>1654.567176</ele>
        <time>2011-07-30T09:34:44Z</time>
      </trkpt>
      <trkpt lat="46.324769" lon="14.638385">
        <ele>1654.085592</ele>
        <time>2011-07-30T09:34:48Z</time>
      </trkpt>
      <trkpt lat="46.324750" lon="14.638393">
        <ele>1654.085592</ele>
        <time>2011-07-30T09:34:53Z</time>
      </trkpt>
      <trkpt lat="46.324726" lon="14.638439">
        <ele>1653.125472</ele>
        <time>2011-07-30T09:35:02Z</time>
      </trkpt>
      <trkpt lat="46.324704" lon="14.638492">
        <ele>1651.683768</ele>
        <time>2011-07-30T09:35:07Z</time>
      </trkpt>
      <trkpt lat="46.324665" lon="14.638525">
        <ele>1650.7206</ele>
        <time>2011-07-30T09:35:12Z</time>
      </trkpt>
      <trkpt lat="46.324651" lon="14.638610">
        <ele>1649.76048</ele>
        <time>2011-07-30T09:35:19Z</time>
      </trkpt>
      <trkpt lat="46.324650" lon="14.638628">
        <ele>1648.797312</ele>
        <time>2011-07-30T09:35:22Z</time>
      </trkpt>
      <trkpt lat="46.324645" lon="14.638679">
        <ele>1647.355608</ele>
        <time>2011-07-30T09:35:27Z</time>
      </trkpt>
      <trkpt lat="46.324622" lon="14.638723">
        <ele>1646.877072</ele>
        <time>2011-07-30T09:35:34Z</time>
      </trkpt>
      <trkpt lat="46.324625" lon="14.638777">
        <ele>1645.913904</ele>
        <time>2011-07-30T09:35:41Z</time>
      </trkpt>
      <trkpt lat="46.324633" lon="14.638817">
        <ele>1644.953784</ele>
        <time>2011-07-30T09:35:46Z</time>
      </trkpt>
      <trkpt lat="46.324630" lon="14.638851">
        <ele>1644.4722</ele>
        <time>2011-07-30T09:35:53Z</time>
      </trkpt>
      <trkpt lat="46.324618" lon="14.638874">
        <ele>1643.51208</ele>
        <time>2011-07-30T09:35:58Z</time>
      </trkpt>
      <trkpt lat="46.324593" lon="14.638902">
        <ele>1643.030496</ele>
        <time>2011-07-30T09:36:09Z</time>
      </trkpt>
      <trkpt lat="46.324563" lon="14.638909">
        <ele>1642.548912</ele>
        <time>2011-07-30T09:36:16Z</time>
      </trkpt>
      <trkpt lat="46.324536" lon="14.638919">
        <ele>1642.548912</ele>
        <time>2011-07-30T09:36:21Z</time>
      </trkpt>
      <trkpt lat="46.324512" lon="14.638934">
        <ele>1642.070376</ele>
        <time>2011-07-30T09:36:27Z</time>
      </trkpt>
      <trkpt lat="46.324494" lon="14.638914">
        <ele>1641.588792</ele>
        <time>2011-07-30T09:36:32Z</time>
      </trkpt>
      <trkpt lat="46.324486" lon="14.638894">
        <ele>1641.107208</ele>
        <time>2011-07-30T09:36:37Z</time>
      </trkpt>
      <trkpt lat="46.324466" lon="14.638884">
        <ele>1641.107208</ele>
        <time>2011-07-30T09:36:44Z</time>
      </trkpt>
      <trkpt lat="46.324464" lon="14.638849">
        <ele>1640.625624</ele>
        <time>2011-07-30T09:36:48Z</time>
      </trkpt>
      <trkpt lat="46.324454" lon="14.638798">
        <ele>1640.625624</ele>
        <time>2011-07-30T09:36:55Z</time>
      </trkpt>
      <trkpt lat="46.324447" lon="14.638768">
        <ele>1640.147088</ele>
        <time>2011-07-30T09:37:00Z</time>
      </trkpt>
      <trkpt lat="46.324431" lon="14.638736">
        <ele>1640.147088</ele>
        <time>2011-07-30T09:37:12Z</time>
      </trkpt>
      <trkpt lat="46.324417" lon="14.638722">
        <ele>1640.147088</ele>
        <time>2011-07-30T09:37:21Z</time>
      </trkpt>
      <trkpt lat="46.324397" lon="14.638696">
        <ele>1640.147088</ele>
        <time>2011-07-30T09:37:26Z</time>
      </trkpt>
      <trkpt lat="46.324370" lon="14.638699">
        <ele>1641.107208</ele>
        <time>2011-07-30T09:37:33Z</time>
      </trkpt>
      <trkpt lat="46.324350" lon="14.638677">
        <ele>1640.625624</ele>
        <time>2011-07-30T09:37:37Z</time>
      </trkpt>
      <trkpt lat="46.324316" lon="14.638637">
        <ele>1639.665504</ele>
        <time>2011-07-30T09:37:45Z</time>
      </trkpt>
      <trkpt lat="46.324296" lon="14.638632">
        <ele>1638.705384</ele>
        <time>2011-07-30T09:37:50Z</time>
      </trkpt>
      <trkpt lat="46.324281" lon="14.638605">
        <ele>1638.705384</ele>
        <time>2011-07-30T09:37:56Z</time>
      </trkpt>
      <trkpt lat="46.324274" lon="14.638553">
        <ele>1638.705384</ele>
        <time>2011-07-30T09:38:00Z</time>
      </trkpt>
      <trkpt lat="46.324274" lon="14.638515">
        <ele>1638.2238</ele>
        <time>2011-07-30T09:38:05Z</time>
      </trkpt>
      <trkpt lat="46.324254" lon="14.638493">
        <ele>1637.742216</ele>
        <time>2011-07-30T09:38:13Z</time>
      </trkpt>
      <trkpt lat="46.324229" lon="14.638492">
        <ele>1636.782096</ele>
        <time>2011-07-30T09:38:20Z</time>
      </trkpt>
      <trkpt lat="46.324209" lon="14.638503">
        <ele>1636.300512</ele>
        <time>2011-07-30T09:38:25Z</time>
      </trkpt>
      <trkpt lat="46.324191" lon="14.638515">
        <ele>1635.821976</ele>
        <time>2011-07-30T09:38:32Z</time>
      </trkpt>
      <trkpt lat="46.324183" lon="14.638548">
        <ele>1635.340392</ele>
        <time>2011-07-30T09:38:39Z</time>
      </trkpt>
      <trkpt lat="46.324170" lon="14.638556">
        <ele>1634.377224</ele>
        <time>2011-07-30T09:38:43Z</time>
      </trkpt>
      <trkpt lat="46.324154" lon="14.638557">
        <ele>1633.417104</ele>
        <time>2011-07-30T09:38:51Z</time>
      </trkpt>
      <trkpt lat="46.324136" lon="14.638568">
        <ele>1632.456984</ele>
        <time>2011-07-30T09:38:55Z</time>
      </trkpt>
      <trkpt lat="46.324112" lon="14.638574">
        <ele>1631.9754</ele>
        <time>2011-07-30T09:39:02Z</time>
      </trkpt>
      <trkpt lat="46.324104" lon="14.638551">
        <ele>1631.493816</ele>
        <time>2011-07-30T09:39:07Z</time>
      </trkpt>
      <trkpt lat="46.324088" lon="14.638497">
        <ele>1630.052112</ele>
        <time>2011-07-30T09:39:18Z</time>
      </trkpt>
      <trkpt lat="46.324061" lon="14.638488">
        <ele>1629.570528</ele>
        <time>2011-07-30T09:39:22Z</time>
      </trkpt>
      <trkpt lat="46.324042" lon="14.638466">
        <ele>1629.091992</ele>
        <time>2011-07-30T09:39:27Z</time>
      </trkpt>
      <trkpt lat="46.324016" lon="14.638467">
        <ele>1628.610408</ele>
        <time>2011-07-30T09:39:34Z</time>
      </trkpt>
      <trkpt lat="46.324002" lon="14.638459">
        <ele>1628.610408</ele>
        <time>2011-07-30T09:39:37Z</time>
      </trkpt>
      <trkpt lat="46.323985" lon="14.638460">
        <ele>1628.128824</ele>
        <time>2011-07-30T09:39:42Z</time>
      </trkpt>
      <trkpt lat="46.323968" lon="14.638468">
        <ele>1627.168704</ele>
        <time>2011-07-30T09:39:48Z</time>
      </trkpt>
      <trkpt lat="46.323956" lon="14.638458">
        <ele>1624.76688</ele>
        <time>2011-07-30T09:39:56Z</time>
      </trkpt>
      <trkpt lat="46.323932" lon="14.638447">
        <ele>1623.803712</ele>
        <time>2011-07-30T09:40:03Z</time>
      </trkpt>
      <trkpt lat="46.323918" lon="14.638441">
        <ele>1622.843592</ele>
        <time>2011-07-30T09:40:08Z</time>
      </trkpt>
      <trkpt lat="46.323900" lon="14.638456">
        <ele>1621.401888</ele>
        <time>2011-07-30T09:40:12Z</time>
      </trkpt>
      <trkpt lat="46.323872" lon="14.638442">
        <ele>1619.4786</ele>
        <time>2011-07-30T09:40:17Z</time>
      </trkpt>
      <trkpt lat="46.323853" lon="14.638403">
        <ele>1618.997016</ele>
        <time>2011-07-30T09:40:26Z</time>
      </trkpt>
      <trkpt lat="46.323830" lon="14.638390">
        <ele>1618.515432</ele>
        <time>2011-07-30T09:40:31Z</time>
      </trkpt>
      <trkpt lat="46.323806" lon="14.638364">
        <ele>1618.515432</ele>
        <time>2011-07-30T09:40:36Z</time>
      </trkpt>
      <trkpt lat="46.323780" lon="14.638334">
        <ele>1617.073728</ele>
        <time>2011-07-30T09:40:42Z</time>
      </trkpt>
      <trkpt lat="46.323761" lon="14.638324">
        <ele>1616.595192</ele>
        <time>2011-07-30T09:40:47Z</time>
      </trkpt>
      <trkpt lat="46.323730" lon="14.638312">
        <ele>1615.632024</ele>
        <time>2011-07-30T09:40:53Z</time>
      </trkpt>
      <trkpt lat="46.323713" lon="14.638297">
        <ele>1615.632024</ele>
        <time>2011-07-30T09:40:58Z</time>
      </trkpt>
      <trkpt lat="46.323690" lon="14.638277">
        <ele>1614.19032</ele>
        <time>2011-07-30T09:41:06Z</time>
      </trkpt>
      <trkpt lat="46.323676" lon="14.638279">
        <ele>1612.748616</ele>
        <time>2011-07-30T09:41:14Z</time>
      </trkpt>
      <trkpt lat="46.323654" lon="14.638249">
        <ele>1611.306912</ele>
        <time>2011-07-30T09:41:24Z</time>
      </trkpt>
      <trkpt lat="46.323634" lon="14.638216">
        <ele>1610.825328</ele>
        <time>2011-07-30T09:41:29Z</time>
      </trkpt>
      <trkpt lat="46.323621" lon="14.638184">
        <ele>1610.346792</ele>
        <time>2011-07-30T09:41:36Z</time>
      </trkpt>
      <trkpt lat="46.323615" lon="14.638138">
        <ele>1610.346792</ele>
        <time>2011-07-30T09:41:41Z</time>
      </trkpt>
      <trkpt lat="46.323617" lon="14.638103">
        <ele>1609.865208</ele>
        <time>2011-07-30T09:41:45Z</time>
      </trkpt>
      <trkpt lat="46.323587" lon="14.638063">
        <ele>1610.346792</ele>
        <time>2011-07-30T09:41:56Z</time>
      </trkpt>
      <trkpt lat="46.323572" lon="14.638049">
        <ele>1608.423504</ele>
        <time>2011-07-30T09:42:04Z</time>
      </trkpt>
      <trkpt lat="46.323552" lon="14.638011">
        <ele>1606.9818</ele>
        <time>2011-07-30T09:42:14Z</time>
      </trkpt>
      <trkpt lat="46.323534" lon="14.637973">
        <ele>1606.9818</ele>
        <time>2011-07-30T09:42:19Z</time>
      </trkpt>
      <trkpt lat="46.323490" lon="14.637966">
        <ele>1606.018632</ele>
        <time>2011-07-30T09:42:27Z</time>
      </trkpt>
      <trkpt lat="46.323463" lon="14.637952">
        <ele>1606.018632</ele>
        <time>2011-07-30T09:42:32Z</time>
      </trkpt>
      <trkpt lat="46.323436" lon="14.637941">
        <ele>1605.058512</ele>
        <time>2011-07-30T09:42:41Z</time>
      </trkpt>
      <trkpt lat="46.323414" lon="14.637886">
        <ele>1605.058512</ele>
        <time>2011-07-30T09:42:51Z</time>
      </trkpt>
      <trkpt lat="46.323400" lon="14.637889">
        <ele>1604.098392</ele>
        <time>2011-07-30T09:43:02Z</time>
      </trkpt>
      <trkpt lat="46.323380" lon="14.637900">
        <ele>1604.098392</ele>
        <time>2011-07-30T09:43:08Z</time>
      </trkpt>
      <trkpt lat="46.323356" lon="14.637881">
        <ele>1604.098392</ele>
        <time>2011-07-30T09:43:16Z</time>
      </trkpt>
      <trkpt lat="46.323339" lon="14.637885">
        <ele>1604.098392</ele>
        <time>2011-07-30T09:43:21Z</time>
      </trkpt>
      <trkpt lat="46.323328" lon="14.637865">
        <ele>1604.098392</ele>
        <time>2011-07-30T09:43:26Z</time>
      </trkpt>
      <trkpt lat="46.323304" lon="14.637860">
        <ele>1604.576928</ele>
        <time>2011-07-30T09:43:33Z</time>
      </trkpt>
      <trkpt lat="46.323279" lon="14.637869">
        <ele>1606.018632</ele>
        <time>2011-07-30T09:43:40Z</time>
      </trkpt>
      <trkpt lat="46.323275" lon="14.637865">
        <ele>1606.018632</ele>
        <time>2011-07-30T09:43:41Z</time>
      </trkpt>
      <trkpt lat="46.323247" lon="14.637847">
        <ele>1606.500216</ele>
        <time>2011-07-30T09:43:47Z</time>
      </trkpt>
      <trkpt lat="46.323228" lon="14.637845">
        <ele>1606.018632</ele>
        <time>2011-07-30T09:43:52Z</time>
      </trkpt>
      <trkpt lat="46.323217" lon="14.637868">
        <ele>1604.576928</ele>
        <time>2011-07-30T09:44:00Z</time>
      </trkpt>
      <trkpt lat="46.323189" lon="14.637864">
        <ele>1603.135224</ele>
        <time>2011-07-30T09:44:06Z</time>
      </trkpt>
      <trkpt lat="46.323165" lon="14.637849">
        <ele>1602.175104</ele>
        <time>2011-07-30T09:44:11Z</time>
      </trkpt>
      <trkpt lat="46.323143" lon="14.637851">
        <ele>1601.69352</ele>
        <time>2011-07-30T09:44:15Z</time>
      </trkpt>
      <trkpt lat="46.323121" lon="14.637851">
        <ele>1600.7334</ele>
        <time>2011-07-30T09:44:19Z</time>
      </trkpt>
      <trkpt lat="46.323092" lon="14.637829">
        <ele>1598.810112</ele>
        <time>2011-07-30T09:44:27Z</time>
      </trkpt>
      <trkpt lat="46.323053" lon="14.637797">
        <ele>1595.44512</ele>
        <time>2011-07-30T09:44:39Z</time>
      </trkpt>
      <trkpt lat="46.323019" lon="14.637768">
        <ele>1593.521832</ele>
        <time>2011-07-30T09:44:43Z</time>
      </trkpt>
      <trkpt lat="46.322986" lon="14.637758">
        <ele>1592.561712</ele>
        <time>2011-07-30T09:44:49Z</time>
      </trkpt>
      <trkpt lat="46.322968" lon="14.637731">
        <ele>1591.120008</ele>
        <time>2011-07-30T09:44:58Z</time>
      </trkpt>
      <trkpt lat="46.322940" lon="14.637692">
        <ele>1589.19672</ele>
        <time>2011-07-30T09:45:13Z</time>
      </trkpt>
      <trkpt lat="46.322925" lon="14.637677">
        <ele>1588.2366</ele>
        <time>2011-07-30T09:45:20Z</time>
      </trkpt>
      <trkpt lat="46.322905" lon="14.637671">
        <ele>1587.273432</ele>
        <time>2011-07-30T09:45:27Z</time>
      </trkpt>
      <trkpt lat="46.322880" lon="14.637652">
        <ele>1585.350144</ele>
        <time>2011-07-30T09:45:33Z</time>
      </trkpt>
      <trkpt lat="46.322870" lon="14.637637">
        <ele>1584.390024</ele>
        <time>2011-07-30T09:45:40Z</time>
      </trkpt>
      <trkpt lat="46.322830" lon="14.637610">
        <ele>1580.064912</ele>
        <time>2011-07-30T09:45:56Z</time>
      </trkpt>
      <trkpt lat="46.322813" lon="14.637590">
        <ele>1577.181504</ele>
        <time>2011-07-30T09:46:07Z</time>
      </trkpt>
      <trkpt lat="46.322799" lon="14.637574">
        <ele>1576.218336</ele>
        <time>2011-07-30T09:46:11Z</time>
      </trkpt>
      <trkpt lat="46.322780" lon="14.637572">
        <ele>1575.736752</ele>
        <time>2011-07-30T09:46:18Z</time>
      </trkpt>
      <trkpt lat="46.322760" lon="14.637602">
        <ele>1573.816512</ele>
        <time>2011-07-30T09:46:23Z</time>
      </trkpt>
      <trkpt lat="46.322735" lon="14.637591">
        <ele>1571.893224</ele>
        <time>2011-07-30T09:46:30Z</time>
      </trkpt>
      <trkpt lat="46.322710" lon="14.637576">
        <ele>1570.45152</ele>
        <time>2011-07-30T09:46:38Z</time>
      </trkpt>
      <trkpt lat="46.322688" lon="14.637580">
        <ele>1569.488352</ele>
        <time>2011-07-30T09:46:42Z</time>
      </trkpt>
      <trkpt lat="46.322667" lon="14.637569">
        <ele>1566.126408</ele>
        <time>2011-07-30T09:46:57Z</time>
      </trkpt>
      <trkpt lat="46.322644" lon="14.637552">
        <ele>1565.16324</ele>
        <time>2011-07-30T09:47:02Z</time>
      </trkpt>
      <trkpt lat="46.322621" lon="14.637524">
        <ele>1564.681656</ele>
        <time>2011-07-30T09:47:11Z</time>
      </trkpt>
      <trkpt lat="46.322594" lon="14.637514">
        <ele>1563.239952</ele>
        <time>2011-07-30T09:47:16Z</time>
      </trkpt>
      <trkpt lat="46.322575" lon="14.637498">
        <ele>1561.798248</ele>
        <time>2011-07-30T09:47:21Z</time>
      </trkpt>
      <trkpt lat="46.322541" lon="14.637501">
        <ele>1560.838128</ele>
        <time>2011-07-30T09:47:27Z</time>
      </trkpt>
      <trkpt lat="46.322552" lon="14.637495">
        <ele>1559.396424</ele>
        <time>2011-07-30T09:47:33Z</time>
      </trkpt>
      <trkpt lat="46.322560" lon="14.637452">
        <ele>1559.87496</ele>
        <time>2011-07-30T09:47:47Z</time>
      </trkpt>
      <trkpt lat="46.322553" lon="14.637367">
        <ele>1558.91484</ele>
        <time>2011-07-30T09:47:59Z</time>
      </trkpt>
      <trkpt lat="46.322530" lon="14.637332">
        <ele>1557.95472</ele>
        <time>2011-07-30T09:48:07Z</time>
      </trkpt>
      <trkpt lat="46.322516" lon="14.637315">
        <ele>1557.473136</ele>
        <time>2011-07-30T09:48:13Z</time>
      </trkpt>
      <trkpt lat="46.322502" lon="14.637301">
        <ele>1556.991552</ele>
        <time>2011-07-30T09:48:18Z</time>
      </trkpt>
      <trkpt lat="46.322487" lon="14.637290">
        <ele>1557.473136</ele>
        <time>2011-07-30T09:48:22Z</time>
      </trkpt>
      <trkpt lat="46.322484" lon="14.637251">
        <ele>1556.031432</ele>
        <time>2011-07-30T09:48:30Z</time>
      </trkpt>
      <trkpt lat="46.322471" lon="14.637229">
        <ele>1552.184856</ele>
        <time>2011-07-30T09:48:44Z</time>
      </trkpt>
      <trkpt lat="46.322450" lon="14.637237">
        <ele>1551.70632</ele>
        <time>2011-07-30T09:48:49Z</time>
      </trkpt>
      <trkpt lat="46.322421" lon="14.637230">
        <ele>1551.70632</ele>
        <time>2011-07-30T09:48:54Z</time>
      </trkpt>
      <trkpt lat="46.322403" lon="14.637239">
        <ele>1551.70632</ele>
        <time>2011-07-30T09:49:00Z</time>
      </trkpt>
      <trkpt lat="46.322405" lon="14.637218">
        <ele>1551.224736</ele>
        <time>2011-07-30T09:49:05Z</time>
      </trkpt>
      <trkpt lat="46.322404" lon="14.637180">
        <ele>1551.70632</ele>
        <time>2011-07-30T09:49:13Z</time>
      </trkpt>
      <trkpt lat="46.322413" lon="14.637150">
        <ele>1550.743152</ele>
        <time>2011-07-30T09:49:20Z</time>
      </trkpt>
      <trkpt lat="46.322407" lon="14.637121">
        <ele>1547.859744</ele>
        <time>2011-07-30T09:49:31Z</time>
      </trkpt>
      <trkpt lat="46.322425" lon="14.637051">
        <ele>1544.013168</ele>
        <time>2011-07-30T09:49:48Z</time>
      </trkpt>
      <trkpt lat="46.322397" lon="14.636948">
        <ele>1544.013168</ele>
        <time>2011-07-30T09:50:14Z</time>
      </trkpt>
      <trkpt lat="46.322382" lon="14.636930">
        <ele>1544.013168</ele>
        <time>2011-07-30T09:50:20Z</time>
      </trkpt>
      <trkpt lat="46.322353" lon="14.636880">
        <ele>1543.053048</ele>
        <time>2011-07-30T09:50:29Z</time>
      </trkpt>
      <trkpt lat="46.322346" lon="14.636855">
        <ele>1542.092928</ele>
        <time>2011-07-30T09:50:37Z</time>
      </trkpt>
      <trkpt lat="46.322341" lon="14.636845">
        <ele>1541.12976</ele>
        <time>2011-07-30T09:50:41Z</time>
      </trkpt>
      <trkpt lat="46.322333" lon="14.636811">
        <ele>1540.651224</ele>
        <time>2011-07-30T09:50:49Z</time>
      </trkpt>
      <trkpt lat="46.322325" lon="14.636768">
        <ele>1539.688056</ele>
        <time>2011-07-30T09:50:53Z</time>
      </trkpt>
      <trkpt lat="46.322312" lon="14.636713">
        <ele>1537.764768</ele>
        <time>2011-07-30T09:51:03Z</time>
      </trkpt>
      <trkpt lat="46.322310" lon="14.636668">
        <ele>1536.323064</ele>
        <time>2011-07-30T09:51:08Z</time>
      </trkpt>
      <trkpt lat="46.322311" lon="14.636612">
        <ele>1535.844528</ele>
        <time>2011-07-30T09:51:15Z</time>
      </trkpt>
      <trkpt lat="46.322305" lon="14.636531">
        <ele>1536.323064</ele>
        <time>2011-07-30T09:51:27Z</time>
      </trkpt>
      <trkpt lat="46.322293" lon="14.636509">
        <ele>1535.362944</ele>
        <time>2011-07-30T09:51:41Z</time>
      </trkpt>
      <trkpt lat="46.322264" lon="14.636511">
        <ele>1534.88136</ele>
        <time>2011-07-30T09:51:46Z</time>
      </trkpt>
      <trkpt lat="46.322254" lon="14.636476">
        <ele>1534.88136</ele>
        <time>2011-07-30T09:51:53Z</time>
      </trkpt>
      <trkpt lat="46.322246" lon="14.636449">
        <ele>1533.92124</ele>
        <time>2011-07-30T09:51:58Z</time>
      </trkpt>
      <trkpt lat="46.322221" lon="14.636455">
        <ele>1531.997952</ele>
        <time>2011-07-30T09:52:16Z</time>
      </trkpt>
      <trkpt lat="46.322205" lon="14.636470">
        <ele>1531.037832</ele>
        <time>2011-07-30T09:52:20Z</time>
      </trkpt>
      <trkpt lat="46.322198" lon="14.636453">
        <ele>1530.074664</ele>
        <time>2011-07-30T09:52:25Z</time>
      </trkpt>
      <trkpt lat="46.322198" lon="14.636435">
        <ele>1529.114544</ele>
        <time>2011-07-30T09:52:33Z</time>
      </trkpt>
      <trkpt lat="46.322191" lon="14.636416">
        <ele>1528.63296</ele>
        <time>2011-07-30T09:52:39Z</time>
      </trkpt>
      <trkpt lat="46.322169" lon="14.636391">
        <ele>1527.67284</ele>
        <time>2011-07-30T09:52:45Z</time>
      </trkpt>
      <trkpt lat="46.322151" lon="14.636361">
        <ele>1526.231136</ele>
        <time>2011-07-30T09:52:53Z</time>
      </trkpt>
      <trkpt lat="46.322149" lon="14.636330">
        <ele>1525.267968</ele>
        <time>2011-07-30T09:53:00Z</time>
      </trkpt>
      <trkpt lat="46.322158" lon="14.636303">
        <ele>1523.826264</ele>
        <time>2011-07-30T09:53:07Z</time>
      </trkpt>
      <trkpt lat="46.322145" lon="14.636211">
        <ele>1522.38456</ele>
        <time>2011-07-30T09:53:26Z</time>
      </trkpt>
      <trkpt lat="46.322135" lon="14.636161">
        <ele>1520.942856</ele>
        <time>2011-07-30T09:53:33Z</time>
      </trkpt>
      <trkpt lat="46.322126" lon="14.636122">
        <ele>1518.541032</ele>
        <time>2011-07-30T09:53:45Z</time>
      </trkpt>
      <trkpt lat="46.322117" lon="14.636064">
        <ele>1516.13616</ele>
        <time>2011-07-30T09:53:54Z</time>
      </trkpt>
      <trkpt lat="46.322102" lon="14.636068">
        <ele>1515.17604</ele>
        <time>2011-07-30T09:54:04Z</time>
      </trkpt>
      <trkpt lat="46.322089" lon="14.636064">
        <ele>1514.212872</ele>
        <time>2011-07-30T09:54:10Z</time>
      </trkpt>
      <trkpt lat="46.322077" lon="14.636054">
        <ele>1512.289584</ele>
        <time>2011-07-30T09:54:17Z</time>
      </trkpt>
      <trkpt lat="46.322063" lon="14.636007">
        <ele>1510.84788</ele>
        <time>2011-07-30T09:54:25Z</time>
      </trkpt>
      <trkpt lat="46.322057" lon="14.635966">
        <ele>1509.406176</ele>
        <time>2011-07-30T09:54:32Z</time>
      </trkpt>
      <trkpt lat="46.322025" lon="14.635908">
        <ele>1507.485936</ele>
        <time>2011-07-30T09:54:41Z</time>
      </trkpt>
      <trkpt lat="46.321996" lon="14.635906">
        <ele>1506.522768</ele>
        <time>2011-07-30T09:54:51Z</time>
      </trkpt>
      <trkpt lat="46.321948" lon="14.635877">
        <ele>1503.63936</ele>
        <time>2011-07-30T09:55:08Z</time>
      </trkpt>
      <trkpt lat="46.321930" lon="14.635848">
        <ele>1502.197656</ele>
        <time>2011-07-30T09:55:14Z</time>
      </trkpt>
      <trkpt lat="46.321908" lon="14.635826">
        <ele>1500.274368</ele>
        <time>2011-07-30T09:55:19Z</time>
      </trkpt>
      <trkpt lat="46.321890" lon="14.635827">
        <ele>1500.274368</ele>
        <time>2011-07-30T09:55:25Z</time>
      </trkpt>
      <trkpt lat="46.321870" lon="14.635843">
        <ele>1498.832664</ele>
        <time>2011-07-30T09:55:30Z</time>
      </trkpt>
      <trkpt lat="46.321862" lon="14.635843">
        <ele>1497.872544</ele>
        <time>2011-07-30T09:55:38Z</time>
      </trkpt>
      <trkpt lat="46.321839" lon="14.635814">
        <ele>1495.949256</ele>
        <time>2011-07-30T09:55:49Z</time>
      </trkpt>
      <trkpt lat="46.321825" lon="14.635807">
        <ele>1494.507552</ele>
        <time>2011-07-30T09:56:01Z</time>
      </trkpt>
      <trkpt lat="46.321801" lon="14.635805">
        <ele>1494.025968</ele>
        <time>2011-07-30T09:56:13Z</time>
      </trkpt>
      <trkpt lat="46.321782" lon="14.635779">
        <ele>1494.507552</ele>
        <time>2011-07-30T09:56:20Z</time>
      </trkpt>
      <trkpt lat="46.321768" lon="14.635777">
        <ele>1494.986088</ele>
        <time>2011-07-30T09:56:24Z</time>
      </trkpt>
      <trkpt lat="46.321752" lon="14.635766">
        <ele>1494.025968</ele>
        <time>2011-07-30T09:56:32Z</time>
      </trkpt>
      <trkpt lat="46.321739" lon="14.635745">
        <ele>1493.544384</ele>
        <time>2011-07-30T09:56:39Z</time>
      </trkpt>
      <trkpt lat="46.321723" lon="14.635696">
        <ele>1491.14256</ele>
        <time>2011-07-30T09:56:54Z</time>
      </trkpt>
      <trkpt lat="46.321703" lon="14.635656">
        <ele>1487.777568</ele>
        <time>2011-07-30T09:57:05Z</time>
      </trkpt>
      <trkpt lat="46.321692" lon="14.635599">
        <ele>1486.335864</ele>
        <time>2011-07-30T09:57:10Z</time>
      </trkpt>
      <trkpt lat="46.321670" lon="14.635544">
        <ele>1485.85428</ele>
        <time>2011-07-30T09:57:18Z</time>
      </trkpt>
      <trkpt lat="46.321656" lon="14.635469">
        <ele>1482.010752</ele>
        <time>2011-07-30T09:57:34Z</time>
      </trkpt>
      <trkpt lat="46.321653" lon="14.635446">
        <ele>1482.010752</ele>
        <time>2011-07-30T09:57:38Z</time>
      </trkpt>
      <trkpt lat="46.321637" lon="14.635409">
        <ele>1480.569048</ele>
        <time>2011-07-30T09:57:49Z</time>
      </trkpt>
      <trkpt lat="46.321626" lon="14.635367">
        <ele>1479.60588</ele>
        <time>2011-07-30T09:58:04Z</time>
      </trkpt>
      <trkpt lat="46.321601" lon="14.635317">
        <ele>1477.682592</ele>
        <time>2011-07-30T09:58:16Z</time>
      </trkpt>
      <trkpt lat="46.321567" lon="14.635202">
        <ele>1472.39736</ele>
        <time>2011-07-30T09:58:38Z</time>
      </trkpt>
      <trkpt lat="46.321559" lon="14.635134">
        <ele>1469.992488</ele>
        <time>2011-07-30T09:58:44Z</time>
      </trkpt>
      <trkpt lat="46.321542" lon="14.635099">
        <ele>1469.992488</ele>
        <time>2011-07-30T09:58:51Z</time>
      </trkpt>
      <trkpt lat="46.321531" lon="14.635083">
        <ele>1469.992488</ele>
        <time>2011-07-30T09:58:54Z</time>
      </trkpt>
      <trkpt lat="46.321527" lon="14.635027">
        <ele>1469.513952</ele>
        <time>2011-07-30T09:58:59Z</time>
      </trkpt>
      <trkpt lat="46.321520" lon="14.634990">
        <ele>1469.032368</ele>
        <time>2011-07-30T09:59:06Z</time>
      </trkpt>
      <trkpt lat="46.321499" lon="14.634945">
        <ele>1467.590664</ele>
        <time>2011-07-30T09:59:14Z</time>
      </trkpt>
      <trkpt lat="46.321484" lon="14.634882">
        <ele>1466.627496</ele>
        <time>2011-07-30T09:59:24Z</time>
      </trkpt>
      <trkpt lat="46.321471" lon="14.634846">
        <ele>1466.14896</ele>
        <time>2011-07-30T09:59:30Z</time>
      </trkpt>
      <trkpt lat="46.321447" lon="14.634821">
        <ele>1465.667376</ele>
        <time>2011-07-30T09:59:37Z</time>
      </trkpt>
      <trkpt lat="46.321425" lon="14.634829">
        <ele>1465.185792</ele>
        <time>2011-07-30T09:59:52Z</time>
      </trkpt>
      <trkpt lat="46.321419" lon="14.634850">
        <ele>1465.185792</ele>
        <time>2011-07-30T09:59:56Z</time>
      </trkpt>
      <trkpt lat="46.321404" lon="14.634839">
        <ele>1464.225672</ele>
        <time>2011-07-30T10:00:01Z</time>
      </trkpt>
      <trkpt lat="46.321380" lon="14.634774">
        <ele>1463.262504</ele>
        <time>2011-07-30T10:00:19Z</time>
      </trkpt>
      <trkpt lat="46.321369" lon="14.634783">
        <ele>1462.302384</ele>
        <time>2011-07-30T10:00:23Z</time>
      </trkpt>
      <trkpt lat="46.321350" lon="14.634802">
        <ele>1461.8208</ele>
        <time>2011-07-30T10:00:30Z</time>
      </trkpt>
      <trkpt lat="46.321332" lon="14.634789">
        <ele>1460.86068</ele>
        <time>2011-07-30T10:00:35Z</time>
      </trkpt>
      <trkpt lat="46.321315" lon="14.634765">
        <ele>1458.937392</ele>
        <time>2011-07-30T10:00:41Z</time>
      </trkpt>
      <trkpt lat="46.321297" lon="14.634726">
        <ele>1457.977272</ele>
        <time>2011-07-30T10:00:51Z</time>
      </trkpt>
      <trkpt lat="46.321285" lon="14.634690">
        <ele>1457.014104</ele>
        <time>2011-07-30T10:00:58Z</time>
      </trkpt>
      <trkpt lat="46.321265" lon="14.634653">
        <ele>1455.5724</ele>
        <time>2011-07-30T10:01:08Z</time>
      </trkpt>
      <trkpt lat="46.321246" lon="14.634652">
        <ele>1450.765704</ele>
        <time>2011-07-30T10:01:30Z</time>
      </trkpt>
      <trkpt lat="46.321228" lon="14.634621">
        <ele>1450.765704</ele>
        <time>2011-07-30T10:01:40Z</time>
      </trkpt>
      <trkpt lat="46.321211" lon="14.634595">
        <ele>1449.324</ele>
        <time>2011-07-30T10:01:48Z</time>
      </trkpt>
      <trkpt lat="46.321195" lon="14.634564">
        <ele>1447.882296</ele>
        <time>2011-07-30T10:01:57Z</time>
      </trkpt>
      <trkpt lat="46.321167" lon="14.634584">
        <ele>1446.440592</ele>
        <time>2011-07-30T10:02:07Z</time>
      </trkpt>
      <trkpt lat="46.321159" lon="14.634582">
        <ele>1445.480472</ele>
        <time>2011-07-30T10:02:15Z</time>
      </trkpt>
      <trkpt lat="46.321132" lon="14.634599">
        <ele>1445.480472</ele>
        <time>2011-07-30T10:02:23Z</time>
      </trkpt>
      <trkpt lat="46.321120" lon="14.634625">
        <ele>1444.517304</ele>
        <time>2011-07-30T10:02:27Z</time>
      </trkpt>
      <trkpt lat="46.321111" lon="14.634660">
        <ele>1444.517304</ele>
        <time>2011-07-30T10:02:37Z</time>
      </trkpt>
      <trkpt lat="46.321095" lon="14.634668">
        <ele>1443.0756</ele>
        <time>2011-07-30T10:02:42Z</time>
      </trkpt>
      <trkpt lat="46.321084" lon="14.634693">
        <ele>1440.673776</ele>
        <time>2011-07-30T10:02:50Z</time>
      </trkpt>
      <trkpt lat="46.321057" lon="14.634707">
        <ele>1439.710608</ele>
        <time>2011-07-30T10:02:57Z</time>
      </trkpt>
      <trkpt lat="46.321044" lon="14.634664">
        <ele>1436.8272</ele>
        <time>2011-07-30T10:03:04Z</time>
      </trkpt>
      <trkpt lat="46.321042" lon="14.634626">
        <ele>1434.903912</ele>
        <time>2011-07-30T10:03:09Z</time>
      </trkpt>
      <trkpt lat="46.321033" lon="14.634575">
        <ele>1432.983672</ele>
        <time>2011-07-30T10:03:16Z</time>
      </trkpt>
      <trkpt lat="46.321013" lon="14.634547">
        <ele>1432.020504</ele>
        <time>2011-07-30T10:03:21Z</time>
      </trkpt>
      <trkpt lat="46.320991" lon="14.634496">
        <ele>1432.020504</ele>
        <time>2011-07-30T10:03:27Z</time>
      </trkpt>
      <trkpt lat="46.320963" lon="14.634439">
        <ele>1431.060384</ele>
        <time>2011-07-30T10:03:33Z</time>
      </trkpt>
      <trkpt lat="46.320944" lon="14.634392">
        <ele>1430.5788</ele>
        <time>2011-07-30T10:03:40Z</time>
      </trkpt>
      <trkpt lat="46.320927" lon="14.634367">
        <ele>1429.137096</ele>
        <time>2011-07-30T10:03:44Z</time>
      </trkpt>
      <trkpt lat="46.320897" lon="14.634339">
        <ele>1427.695392</ele>
        <time>2011-07-30T10:03:52Z</time>
      </trkpt>
      <trkpt lat="46.320883" lon="14.634306">
        <ele>1427.213808</ele>
        <time>2011-07-30T10:03:58Z</time>
      </trkpt>
      <trkpt lat="46.320869" lon="14.634277">
        <ele>1425.772104</ele>
        <time>2011-07-30T10:04:03Z</time>
      </trkpt>
      <trkpt lat="46.320860" lon="14.634233">
        <ele>1424.811984</ele>
        <time>2011-07-30T10:04:07Z</time>
      </trkpt>
      <trkpt lat="46.320840" lon="14.634245">
        <ele>1424.3304</ele>
        <time>2011-07-30T10:04:15Z</time>
      </trkpt>
      <trkpt lat="46.320817" lon="14.634239">
        <ele>1423.37028</ele>
        <time>2011-07-30T10:04:19Z</time>
      </trkpt>
      <trkpt lat="46.320792" lon="14.634211">
        <ele>1422.407112</ele>
        <time>2011-07-30T10:04:27Z</time>
      </trkpt>
      <trkpt lat="46.320772" lon="14.634214">
        <ele>1422.888696</ele>
        <time>2011-07-30T10:04:34Z</time>
      </trkpt>
      <trkpt lat="46.320757" lon="14.634214">
        <ele>1422.888696</ele>
        <time>2011-07-30T10:04:38Z</time>
      </trkpt>
      <trkpt lat="46.320725" lon="14.634174">
        <ele>1420.486872</ele>
        <time>2011-07-30T10:04:49Z</time>
      </trkpt>
      <trkpt lat="46.320699" lon="14.634142">
        <ele>1420.005288</ele>
        <time>2011-07-30T10:04:54Z</time>
      </trkpt>
      <trkpt lat="46.320692" lon="14.634117">
        <ele>1420.005288</ele>
        <time>2011-07-30T10:04:58Z</time>
      </trkpt>
      <trkpt lat="46.320662" lon="14.634103">
        <ele>1419.523704</ele>
        <time>2011-07-30T10:05:04Z</time>
      </trkpt>
      <trkpt lat="46.320631" lon="14.634091">
        <ele>1418.082</ele>
        <time>2011-07-30T10:05:11Z</time>
      </trkpt>
      <trkpt lat="46.320617" lon="14.634067">
        <ele>1417.12188</ele>
        <time>2011-07-30T10:05:15Z</time>
      </trkpt>
      <trkpt lat="46.320620" lon="14.634034">
        <ele>1415.680176</ele>
        <time>2011-07-30T10:05:20Z</time>
      </trkpt>
      <trkpt lat="46.320592" lon="14.634042">
        <ele>1414.717008</ele>
        <time>2011-07-30T10:05:25Z</time>
      </trkpt>
      <trkpt lat="46.320560" lon="14.633984">
        <ele>1413.275304</ele>
        <time>2011-07-30T10:05:32Z</time>
      </trkpt>
      <trkpt lat="46.320525" lon="14.633937">
        <ele>1412.315184</ele>
        <time>2011-07-30T10:05:40Z</time>
      </trkpt>
      <trkpt lat="46.320499" lon="14.633893">
        <ele>1412.315184</ele>
        <time>2011-07-30T10:05:46Z</time>
      </trkpt>
      <trkpt lat="46.320484" lon="14.633865">
        <ele>1410.87348</ele>
        <time>2011-07-30T10:05:52Z</time>
      </trkpt>
      <trkpt lat="46.320466" lon="14.633838">
        <ele>1409.428728</ele>
        <time>2011-07-30T10:05:59Z</time>
      </trkpt>
      <trkpt lat="46.320496" lon="14.633842">
        <ele>1402.701792</ele>
        <time>2011-07-30T10:06:27Z</time>
      </trkpt>
      <trkpt lat="46.320497" lon="14.633851">
        <ele>1400.778504</ele>
        <time>2011-07-30T10:07:00Z</time>
      </trkpt>
      <trkpt lat="46.320474" lon="14.633844">
        <ele>1401.260088</ele>
        <time>2011-07-30T10:07:16Z</time>
      </trkpt>
      <trkpt lat="46.320431" lon="14.633738">
        <ele>1393.566936</ele>
        <time>2011-07-30T10:07:48Z</time>
      </trkpt>
      <trkpt lat="46.320418" lon="14.633696">
        <ele>1392.606816</ele>
        <time>2011-07-30T10:07:57Z</time>
      </trkpt>
      <trkpt lat="46.320400" lon="14.633670">
        <ele>1391.646696</ele>
        <time>2011-07-30T10:08:05Z</time>
      </trkpt>
      <trkpt lat="46.320362" lon="14.633651">
        <ele>1392.125232</ele>
        <time>2011-07-30T10:08:25Z</time>
      </trkpt>
      <trkpt lat="46.320291" lon="14.633652">
        <ele>1392.125232</ele>
        <time>2011-07-30T10:08:45Z</time>
      </trkpt>
      <trkpt lat="46.320282" lon="14.633642">
        <ele>1392.125232</ele>
        <time>2011-07-30T10:08:48Z</time>
      </trkpt>
      <trkpt lat="46.320268" lon="14.633618">
        <ele>1391.165112</ele>
        <time>2011-07-30T10:08:52Z</time>
      </trkpt>
      <trkpt lat="46.320247" lon="14.633587">
        <ele>1390.204992</ele>
        <time>2011-07-30T10:08:59Z</time>
      </trkpt>
      <trkpt lat="46.320226" lon="14.633550">
        <ele>1387.318536</ele>
        <time>2011-07-30T10:09:08Z</time>
      </trkpt>
      <trkpt lat="46.320199" lon="14.633500">
        <ele>1386.358416</ele>
        <time>2011-07-30T10:09:18Z</time>
      </trkpt>
      <trkpt lat="46.320189" lon="14.633436">
        <ele>1384.435128</ele>
        <time>2011-07-30T10:09:24Z</time>
      </trkpt>
      <trkpt lat="46.320177" lon="14.633384">
        <ele>1382.51184</ele>
        <time>2011-07-30T10:09:31Z</time>
      </trkpt>
      <trkpt lat="46.320180" lon="14.633327">
        <ele>1378.668312</ele>
        <time>2011-07-30T10:09:38Z</time>
      </trkpt>
      <trkpt lat="46.320147" lon="14.633315">
        <ele>1377.226608</ele>
        <time>2011-07-30T10:09:46Z</time>
      </trkpt>
      <trkpt lat="46.320124" lon="14.633284">
        <ele>1377.226608</ele>
        <time>2011-07-30T10:09:50Z</time>
      </trkpt>
      <trkpt lat="46.320108" lon="14.633242">
        <ele>1377.226608</ele>
        <time>2011-07-30T10:09:54Z</time>
      </trkpt>
      <trkpt lat="46.320106" lon="14.633227">
        <ele>1377.705144</ele>
        <time>2011-07-30T10:09:55Z</time>
      </trkpt>
      <trkpt lat="46.320084" lon="14.633133">
        <ele>1377.705144</ele>
        <time>2011-07-30T10:10:02Z</time>
      </trkpt>
      <trkpt lat="46.320070" lon="14.633110">
        <ele>1377.226608</ele>
        <time>2011-07-30T10:10:05Z</time>
      </trkpt>
      <trkpt lat="46.320053" lon="14.633076">
        <ele>1376.745024</ele>
        <time>2011-07-30T10:10:09Z</time>
      </trkpt>
      <trkpt lat="46.320028" lon="14.633026">
        <ele>1373.861616</ele>
        <time>2011-07-30T10:10:16Z</time>
      </trkpt>
      <trkpt lat="46.320000" lon="14.632992">
        <ele>1371.938328</ele>
        <time>2011-07-30T10:10:22Z</time>
      </trkpt>
      <trkpt lat="46.319984" lon="14.632939">
        <ele>1370.01504</ele>
        <time>2011-07-30T10:10:29Z</time>
      </trkpt>
      <trkpt lat="46.319947" lon="14.632870">
        <ele>1368.573336</ele>
        <time>2011-07-30T10:10:37Z</time>
      </trkpt>
      <trkpt lat="46.319916" lon="14.632876">
        <ele>1368.091752</ele>
        <time>2011-07-30T10:10:41Z</time>
      </trkpt>
      <trkpt lat="46.319891" lon="14.632857">
        <ele>1367.613216</ele>
        <time>2011-07-30T10:10:45Z</time>
      </trkpt>
      <trkpt lat="46.319867" lon="14.632830">
        <ele>1368.573336</ele>
        <time>2011-07-30T10:10:49Z</time>
      </trkpt>
      <trkpt lat="46.319840" lon="14.632771">
        <ele>1369.05492</ele>
        <time>2011-07-30T10:10:56Z</time>
      </trkpt>
      <trkpt lat="46.319824" lon="14.632725">
        <ele>1369.05492</ele>
        <time>2011-07-30T10:11:03Z</time>
      </trkpt>
      <trkpt lat="46.319804" lon="14.632693">
        <ele>1368.573336</ele>
        <time>2011-07-30T10:11:08Z</time>
      </trkpt>
      <trkpt lat="46.319781" lon="14.632683">
        <ele>1367.613216</ele>
        <time>2011-07-30T10:11:15Z</time>
      </trkpt>
      <trkpt lat="46.319753" lon="14.632673">
        <ele>1367.613216</ele>
        <time>2011-07-30T10:11:19Z</time>
      </trkpt>
      <trkpt lat="46.319724" lon="14.632672">
        <ele>1367.131632</ele>
        <time>2011-07-30T10:11:24Z</time>
      </trkpt>
      <trkpt lat="46.319701" lon="14.632633">
        <ele>1365.689928</ele>
        <time>2011-07-30T10:11:30Z</time>
      </trkpt>
      <trkpt lat="46.319670" lon="14.632587">
        <ele>1364.729808</ele>
        <time>2011-07-30T10:11:34Z</time>
      </trkpt>
      <trkpt lat="46.319662" lon="14.632573">
        <ele>1364.729808</ele>
        <time>2011-07-30T10:11:35Z</time>
      </trkpt>
      <trkpt lat="46.319633" lon="14.632505">
        <ele>1364.248224</ele>
        <time>2011-07-30T10:11:42Z</time>
      </trkpt>
      <trkpt lat="46.319594" lon="14.632477">
        <ele>1364.248224</ele>
        <time>2011-07-30T10:11:46Z</time>
      </trkpt>
      <trkpt lat="46.319553" lon="14.632462">
        <ele>1363.76664</ele>
        <time>2011-07-30T10:11:54Z</time>
      </trkpt>
      <trkpt lat="46.319498" lon="14.632464">
        <ele>1362.80652</ele>
        <time>2011-07-30T10:12:01Z</time>
      </trkpt>
      <trkpt lat="46.319474" lon="14.632448">
        <ele>1362.80652</ele>
        <time>2011-07-30T10:12:05Z</time>
      </trkpt>
      <trkpt lat="46.319435" lon="14.632449">
        <ele>1363.288104</ele>
        <time>2011-07-30T10:12:10Z</time>
      </trkpt>
      <trkpt lat="46.319393" lon="14.632455">
        <ele>1361.8464</ele>
        <time>2011-07-30T10:12:17Z</time>
      </trkpt>
      <trkpt lat="46.319338" lon="14.632469">
        <ele>1358.481408</ele>
        <time>2011-07-30T10:12:25Z</time>
      </trkpt>
      <trkpt lat="46.319300" lon="14.632471">
        <ele>1356.55812</ele>
        <time>2011-07-30T10:12:31Z</time>
      </trkpt>
      <trkpt lat="46.319270" lon="14.632496">
        <ele>1354.153248</ele>
        <time>2011-07-30T10:12:36Z</time>
      </trkpt>
      <trkpt lat="46.319247" lon="14.632521">
        <ele>1350.788256</ele>
        <time>2011-07-30T10:12:44Z</time>
      </trkpt>
      <trkpt lat="46.319254" lon="14.632513">
        <ele>1346.463144</ele>
        <time>2011-07-30T10:12:52Z</time>
      </trkpt>
      <trkpt lat="46.319272" lon="14.632510">
        <ele>1336.849752</ele>
        <time>2011-07-30T10:13:22Z</time>
      </trkpt>
      <trkpt lat="46.319256" lon="14.632544">
        <ele>1336.371216</ele>
        <time>2011-07-30T10:13:30Z</time>
      </trkpt>
      <trkpt lat="46.319224" lon="14.632562">
        <ele>1335.408048</ele>
        <time>2011-07-30T10:13:35Z</time>
      </trkpt>
      <trkpt lat="46.319194" lon="14.632590">
        <ele>1334.926464</ele>
        <time>2011-07-30T10:13:41Z</time>
      </trkpt>
      <trkpt lat="46.319161" lon="14.632612">
        <ele>1333.966344</ele>
        <time>2011-07-30T10:13:45Z</time>
      </trkpt>
      <trkpt lat="46.319152" lon="14.632618">
        <ele>1333.966344</ele>
        <time>2011-07-30T10:13:46Z</time>
      </trkpt>
      <trkpt lat="46.319094" lon="14.632649">
        <ele>1333.48476</ele>
        <time>2011-07-30T10:13:53Z</time>
      </trkpt>
      <trkpt lat="46.319037" lon="14.632666">
        <ele>1332.043056</ele>
        <time>2011-07-30T10:14:00Z</time>
      </trkpt>
      <trkpt lat="46.318972" lon="14.632694">
        <ele>1331.082936</ele>
        <time>2011-07-30T10:14:08Z</time>
      </trkpt>
      <trkpt lat="46.318905" lon="14.632708">
        <ele>1330.601352</ele>
        <time>2011-07-30T10:14:16Z</time>
      </trkpt>
      <trkpt lat="46.318829" lon="14.632721">
        <ele>1331.082936</ele>
        <time>2011-07-30T10:14:24Z</time>
      </trkpt>
      <trkpt lat="46.318757" lon="14.632724">
        <ele>1330.122816</ele>
        <time>2011-07-30T10:14:32Z</time>
      </trkpt>
      <trkpt lat="46.318698" lon="14.632723">
        <ele>1329.159648</ele>
        <time>2011-07-30T10:14:39Z</time>
      </trkpt>
      <trkpt lat="46.318628" lon="14.632713">
        <ele>1327.717944</ele>
        <time>2011-07-30T10:14:47Z</time>
      </trkpt>
      <trkpt lat="46.318592" lon="14.632704">
        <ele>1327.23636</ele>
        <time>2011-07-30T10:14:51Z</time>
      </trkpt>
      <trkpt lat="46.318545" lon="14.632706">
        <ele>1326.757824</ele>
        <time>2011-07-30T10:14:56Z</time>
      </trkpt>
      <trkpt lat="46.318486" lon="14.632753">
        <ele>1326.27624</ele>
        <time>2011-07-30T10:15:03Z</time>
      </trkpt>
      <trkpt lat="46.318465" lon="14.632783">
        <ele>1325.794656</ele>
        <time>2011-07-30T10:15:07Z</time>
      </trkpt>
      <trkpt lat="46.318453" lon="14.632798">
        <ele>1325.794656</ele>
        <time>2011-07-30T10:15:09Z</time>
      </trkpt>
      <trkpt lat="46.318453" lon="14.632847">
        <ele>1325.31612</ele>
        <time>2011-07-30T10:15:13Z</time>
      </trkpt>
      <trkpt lat="46.318446" lon="14.632925">
        <ele>1324.834536</ele>
        <time>2011-07-30T10:15:21Z</time>
      </trkpt>
      <trkpt lat="46.318445" lon="14.632987">
        <ele>1323.392832</ele>
        <time>2011-07-30T10:15:26Z</time>
      </trkpt>
      <trkpt lat="46.318437" lon="14.633054">
        <ele>1322.911248</ele>
        <time>2011-07-30T10:15:33Z</time>
      </trkpt>
      <trkpt lat="46.318424" lon="14.633121">
        <ele>1321.469544</ele>
        <time>2011-07-30T10:15:40Z</time>
      </trkpt>
      <trkpt lat="46.318405" lon="14.633192">
        <ele>1320.509424</ele>
        <time>2011-07-30T10:15:45Z</time>
      </trkpt>
      <trkpt lat="46.318395" lon="14.633233">
        <ele>1320.509424</ele>
        <time>2011-07-30T10:15:49Z</time>
      </trkpt>
      <trkpt lat="46.318349" lon="14.633340">
        <ele>1320.509424</ele>
        <time>2011-07-30T10:15:57Z</time>
      </trkpt>
      <trkpt lat="46.318334" lon="14.633416">
        <ele>1320.02784</ele>
        <time>2011-07-30T10:16:04Z</time>
      </trkpt>
      <trkpt lat="46.318321" lon="14.633485">
        <ele>1319.064672</ele>
        <time>2011-07-30T10:16:09Z</time>
      </trkpt>
      <trkpt lat="46.318306" lon="14.633581">
        <ele>1318.586136</ele>
        <time>2011-07-30T10:16:16Z</time>
      </trkpt>
      <trkpt lat="46.318311" lon="14.633631">
        <ele>1318.104552</ele>
        <time>2011-07-30T10:16:20Z</time>
      </trkpt>
      <trkpt lat="46.318311" lon="14.633676">
        <ele>1317.622968</ele>
        <time>2011-07-30T10:16:23Z</time>
      </trkpt>
      <trkpt lat="46.318320" lon="14.633781">
        <ele>1318.104552</ele>
        <time>2011-07-30T10:16:30Z</time>
      </trkpt>
      <trkpt lat="46.318337" lon="14.633869">
        <ele>1318.104552</ele>
        <time>2011-07-30T10:16:35Z</time>
      </trkpt>
      <trkpt lat="46.318363" lon="14.633993">
        <ele>1317.144432</ele>
        <time>2011-07-30T10:16:43Z</time>
      </trkpt>
      <trkpt lat="46.318382" lon="14.634120">
        <ele>1317.144432</ele>
        <time>2011-07-30T10:16:51Z</time>
      </trkpt>
      <trkpt lat="46.318392" lon="14.634226">
        <ele>1317.144432</ele>
        <time>2011-07-30T10:16:59Z</time>
      </trkpt>
      <trkpt lat="46.318393" lon="14.634289">
        <ele>1317.144432</ele>
        <time>2011-07-30T10:17:05Z</time>
      </trkpt>
      <trkpt lat="46.318406" lon="14.634358">
        <ele>1318.104552</ele>
        <time>2011-07-30T10:17:10Z</time>
      </trkpt>
      <trkpt lat="46.318410" lon="14.634406">
        <ele>1317.144432</ele>
        <time>2011-07-30T10:17:15Z</time>
      </trkpt>
      <trkpt lat="46.318417" lon="14.634484">
        <ele>1316.662848</ele>
        <time>2011-07-30T10:17:22Z</time>
      </trkpt>
      <trkpt lat="46.318417" lon="14.634517">
        <ele>1316.662848</ele>
        <time>2011-07-30T10:17:25Z</time>
      </trkpt>
      <trkpt lat="46.318426" lon="14.634652">
        <ele>1315.221144</ele>
        <time>2011-07-30T10:17:34Z</time>
      </trkpt>
      <trkpt lat="46.318425" lon="14.634735">
        <ele>1314.73956</ele>
        <time>2011-07-30T10:17:42Z</time>
      </trkpt>
      <trkpt lat="46.318426" lon="14.634765">
        <ele>1314.73956</ele>
        <time>2011-07-30T10:17:47Z</time>
      </trkpt>
      <trkpt lat="46.318444" lon="14.634834">
        <ele>1314.261024</ele>
        <time>2011-07-30T10:17:53Z</time>
      </trkpt>
      <trkpt lat="46.318472" lon="14.634889">
        <ele>1313.77944</ele>
        <time>2011-07-30T10:18:00Z</time>
      </trkpt>
      <trkpt lat="46.318484" lon="14.634929">
        <ele>1313.297856</ele>
        <time>2011-07-30T10:18:04Z</time>
      </trkpt>
      <trkpt lat="46.318492" lon="14.634967">
        <ele>1313.297856</ele>
        <time>2011-07-30T10:18:09Z</time>
      </trkpt>
      <trkpt lat="46.318495" lon="14.634983">
        <ele>1313.297856</ele>
        <time>2011-07-30T10:18:15Z</time>
      </trkpt>
      <trkpt lat="46.318508" lon="14.635023">
        <ele>1312.816272</ele>
        <time>2011-07-30T10:18:19Z</time>
      </trkpt>
      <trkpt lat="46.318527" lon="14.635082">
        <ele>1311.856152</ele>
        <time>2011-07-30T10:18:26Z</time>
      </trkpt>
      <trkpt lat="46.318526" lon="14.635156">
        <ele>1311.374568</ele>
        <time>2011-07-30T10:18:32Z</time>
      </trkpt>
      <trkpt lat="46.318547" lon="14.635235">
        <ele>1310.896032</ele>
        <time>2011-07-30T10:18:39Z</time>
      </trkpt>
      <trkpt lat="46.318560" lon="14.635341">
        <ele>1310.414448</ele>
        <time>2011-07-30T10:18:49Z</time>
      </trkpt>
      <trkpt lat="46.318567" lon="14.635378">
        <ele>1310.896032</ele>
        <time>2011-07-30T10:18:54Z</time>
      </trkpt>
      <trkpt lat="46.318582" lon="14.635424">
        <ele>1311.374568</ele>
        <time>2011-07-30T10:18:59Z</time>
      </trkpt>
      <trkpt lat="46.318587" lon="14.635453">
        <ele>1311.856152</ele>
        <time>2011-07-30T10:19:02Z</time>
      </trkpt>
      <trkpt lat="46.318586" lon="14.635507">
        <ele>1311.856152</ele>
        <time>2011-07-30T10:19:06Z</time>
      </trkpt>
      <trkpt lat="46.318565" lon="14.635591">
        <ele>1312.337736</ele>
        <time>2011-07-30T10:19:13Z</time>
      </trkpt>
      <trkpt lat="46.318568" lon="14.635639">
        <ele>1312.816272</ele>
        <time>2011-07-30T10:19:17Z</time>
      </trkpt>
      <trkpt lat="46.318570" lon="14.635680">
        <ele>1313.77944</ele>
        <time>2011-07-30T10:19:20Z</time>
      </trkpt>
      <trkpt lat="46.318564" lon="14.635764">
        <ele>1314.73956</ele>
        <time>2011-07-30T10:19:25Z</time>
      </trkpt>
      <trkpt lat="46.318575" lon="14.635859">
        <ele>1314.73956</ele>
        <time>2011-07-30T10:19:33Z</time>
      </trkpt>
      <trkpt lat="46.318577" lon="14.635886">
        <ele>1314.73956</ele>
        <time>2011-07-30T10:19:35Z</time>
      </trkpt>
      <trkpt lat="46.318586" lon="14.635947">
        <ele>1314.261024</ele>
        <time>2011-07-30T10:19:40Z</time>
      </trkpt>
      <trkpt lat="46.318589" lon="14.635992">
        <ele>1314.261024</ele>
        <time>2011-07-30T10:19:43Z</time>
      </trkpt>
      <trkpt lat="46.318600" lon="14.636085">
        <ele>1314.73956</ele>
        <time>2011-07-30T10:19:49Z</time>
      </trkpt>
      <trkpt lat="46.318604" lon="14.636094">
        <ele>1314.73956</ele>
        <time>2011-07-30T10:19:51Z</time>
      </trkpt>
      <trkpt lat="46.318613" lon="14.636113">
        <ele>1314.261024</ele>
        <time>2011-07-30T10:19:52Z</time>
      </trkpt>
      <trkpt lat="46.318637" lon="14.636214">
        <ele>1314.73956</ele>
        <time>2011-07-30T10:20:00Z</time>
      </trkpt>
      <trkpt lat="46.318655" lon="14.636293">
        <ele>1314.73956</ele>
        <time>2011-07-30T10:20:07Z</time>
      </trkpt>
      <trkpt lat="46.318665" lon="14.636370">
        <ele>1314.73956</ele>
        <time>2011-07-30T10:20:11Z</time>
      </trkpt>
      <trkpt lat="46.318688" lon="14.636449">
        <ele>1314.73956</ele>
        <time>2011-07-30T10:20:18Z</time>
      </trkpt>
      <trkpt lat="46.318699" lon="14.636504">
        <ele>1314.73956</ele>
        <time>2011-07-30T10:20:22Z</time>
      </trkpt>
      <trkpt lat="46.318705" lon="14.636560">
        <ele>1314.73956</ele>
        <time>2011-07-30T10:20:26Z</time>
      </trkpt>
      <trkpt lat="46.318705" lon="14.636605">
        <ele>1314.73956</ele>
        <time>2011-07-30T10:20:29Z</time>
      </trkpt>
      <trkpt lat="46.318714" lon="14.636682">
        <ele>1314.73956</ele>
        <time>2011-07-30T10:20:34Z</time>
      </trkpt>
      <trkpt lat="46.318713" lon="14.636708">
        <ele>1314.73956</ele>
        <time>2011-07-30T10:20:37Z</time>
      </trkpt>
      <trkpt lat="46.318713" lon="14.636806">
        <ele>1315.221144</ele>
        <time>2011-07-30T10:20:43Z</time>
      </trkpt>
      <trkpt lat="46.318719" lon="14.636875">
        <ele>1315.221144</ele>
        <time>2011-07-30T10:20:49Z</time>
      </trkpt>
      <trkpt lat="46.318718" lon="14.636962">
        <ele>1315.702728</ele>
        <time>2011-07-30T10:20:56Z</time>
      </trkpt>
      <trkpt lat="46.318719" lon="14.636978">
        <ele>1315.702728</ele>
        <time>2011-07-30T10:20:57Z</time>
      </trkpt>
      <trkpt lat="46.318720" lon="14.637036">
        <ele>1316.181264</ele>
        <time>2011-07-30T10:21:01Z</time>
      </trkpt>
      <trkpt lat="46.318730" lon="14.637159">
        <ele>1316.662848</ele>
        <time>2011-07-30T10:21:09Z</time>
      </trkpt>
      <trkpt lat="46.318743" lon="14.637242">
        <ele>1317.144432</ele>
        <time>2011-07-30T10:21:17Z</time>
      </trkpt>
      <trkpt lat="46.318758" lon="14.637281">
        <ele>1317.622968</ele>
        <time>2011-07-30T10:21:21Z</time>
      </trkpt>
      <trkpt lat="46.318765" lon="14.637319">
        <ele>1317.622968</ele>
        <time>2011-07-30T10:21:24Z</time>
      </trkpt>
      <trkpt lat="46.318765" lon="14.637445">
        <ele>1318.586136</ele>
        <time>2011-07-30T10:21:33Z</time>
      </trkpt>
      <trkpt lat="46.318765" lon="14.637460">
        <ele>1318.586136</ele>
        <time>2011-07-30T10:21:35Z</time>
      </trkpt>
      <trkpt lat="46.318730" lon="14.637565">
        <ele>1318.586136</ele>
        <time>2011-07-30T10:21:43Z</time>
      </trkpt>
      <trkpt lat="46.318717" lon="14.637588">
        <ele>1318.586136</ele>
        <time>2011-07-30T10:21:44Z</time>
      </trkpt>
      <trkpt lat="46.318680" lon="14.637619">
        <ele>1319.064672</ele>
        <time>2011-07-30T10:21:48Z</time>
      </trkpt>
      <trkpt lat="46.318607" lon="14.637635">
        <ele>1320.02784</ele>
        <time>2011-07-30T10:21:55Z</time>
      </trkpt>
      <trkpt lat="46.318531" lon="14.637609">
        <ele>1321.469544</ele>
        <time>2011-07-30T10:22:03Z</time>
      </trkpt>
      <trkpt lat="46.318459" lon="14.637595">
        <ele>1322.911248</ele>
        <time>2011-07-30T10:22:11Z</time>
      </trkpt>
      <trkpt lat="46.318450" lon="14.637594">
        <ele>1322.911248</ele>
        <time>2011-07-30T10:22:12Z</time>
      </trkpt>
      <trkpt lat="46.318376" lon="14.637605">
        <ele>1325.31612</ele>
        <time>2011-07-30T10:22:22Z</time>
      </trkpt>
      <trkpt lat="46.318317" lon="14.637636">
        <ele>1326.757824</ele>
        <time>2011-07-30T10:22:29Z</time>
      </trkpt>
      <trkpt lat="46.318260" lon="14.637674">
        <ele>1328.678064</ele>
        <time>2011-07-30T10:22:35Z</time>
      </trkpt>
      <trkpt lat="46.318185" lon="14.637744">
        <ele>1331.56452</ele>
        <time>2011-07-30T10:22:44Z</time>
      </trkpt>
      <trkpt lat="46.318177" lon="14.637749">
        <ele>1332.043056</ele>
        <time>2011-07-30T10:22:45Z</time>
      </trkpt>
      <trkpt lat="46.318108" lon="14.637830">
        <ele>1334.447928</ele>
        <time>2011-07-30T10:22:53Z</time>
      </trkpt>
      <trkpt lat="46.318061" lon="14.637898">
        <ele>1336.849752</ele>
        <time>2011-07-30T10:23:01Z</time>
      </trkpt>
      <trkpt lat="46.318054" lon="14.637908">
        <ele>1337.331336</ele>
        <time>2011-07-30T10:23:02Z</time>
      </trkpt>
      <trkpt lat="46.318043" lon="14.637918">
        <ele>1337.81292</ele>
        <time>2011-07-30T10:23:05Z</time>
      </trkpt>
      <trkpt lat="46.318020" lon="14.637969">
        <ele>1340.214744</ele>
        <time>2011-07-30T10:23:12Z</time>
      </trkpt>
      <trkpt lat="46.318012" lon="14.637981">
        <ele>1340.214744</ele>
        <time>2011-07-30T10:23:13Z</time>
      </trkpt>
      <trkpt lat="46.317969" lon="14.638013">
        <ele>1341.177912</ele>
        <time>2011-07-30T10:23:20Z</time>
      </trkpt>
      <trkpt lat="46.317947" lon="14.638046">
        <ele>1341.656448</ele>
        <time>2011-07-30T10:23:25Z</time>
      </trkpt>
      <trkpt lat="46.317911" lon="14.638076">
        <ele>1342.138032</ele>
        <time>2011-07-30T10:23:32Z</time>
      </trkpt>
      <trkpt lat="46.317913" lon="14.638062">
        <ele>1341.656448</ele>
        <time>2011-07-30T10:23:40Z</time>
      </trkpt>
      <trkpt lat="46.317922" lon="14.638060">
        <ele>1342.138032</ele>
        <time>2011-07-30T10:23:47Z</time>
      </trkpt>
      <trkpt lat="46.317928" lon="14.638047">
        <ele>1342.138032</ele>
        <time>2011-07-30T10:23:55Z</time>
      </trkpt>
      <trkpt lat="46.317930" lon="14.638053">
        <ele>1342.138032</ele>
        <time>2011-07-30T10:24:03Z</time>
      </trkpt>
      <trkpt lat="46.317924" lon="14.638047">
        <ele>1340.696328</ele>
        <time>2011-07-30T10:24:21Z</time>
      </trkpt>
    </trkseg>
  </trk>
</gpx>
